[[{"header":{"parameterUnit":"m.s-1","parameterCategory":1,"la1":30.6,"la2":28.766,"lo1":-90.7593,"lo2":-88.6598,"dy":0.0162,"dx":0.0183,"nx":116,"ny":114,"refTime":"2024-03-23T06:00:00:Z","depth":0,"parameterNumber":2,"parameterNumberName":"U-component_of_WINDS"},"data":[0.0,0.0,0.0,0.0,0.0,0.0,0.0,0.0,0.0,0.0,0.0,0.0,0.0,0.0,0.0,0.0,0.0,0.0,0.0,0.0,0.0,0.0,0.0,0.0,0.0,0.0,0.0,0.0,0.0,0.0,0.0,0.0,0.0,0.0,0.0,0.0,0.0,0.0,0.0,0.0,0.0,0.0,0.0,0.0,0.0,0.0,0.0,0.0,0.0,0.0,0.0,0.0,0.0,0.0,0.0,0.0,0.0,0.0,0.0,0.0,0.0,0.0,0.0,0.0,0.0,0.0,0.0,0.0,0.0,0.0,0.0,0.0,0.0,0.0,0.0,0.0,0.0,0.0,0.0,0.0,0.0,0.0,0.0,0.0,0.0,0.0,0.0,0.0,0.0,0.0,0.0,0.0,0.0,0.0,0.0,0.0,0.0,0.0,0.0,0.0,0.0,0.0,0.0,0.0,0.0,0.0,0.0,0.0,0.0,0.0,0.0,0.0,0.0,0.0,0.0,0.0,0.0,0.0,0.0,0.0,0.0,0.0,0.0,0.0,0.0,0.0,0.0,0.0,0.0,0.0,0.0,0.0,0.0,0.0,0.0,0.0,0.0,0.0,0.0,0.0,0.0,0.0,0.0,0.0,0.0,0.0,0.0,0.0,0.0,0.0,0.0,0.0,0.0,0.0,0.0,0.0,0.0,0.0,0.0,0.0,0.0,0.0,0.0,0.0,0.0,0.0,0.0,0.0,0.0,0.0,0.0,0.0,0.0,0.0,0.0,0.0,0.0,0.0,0.0,0.0,0.0,0.0,0.0,0.0,0.0,0.0,0.0,0.0,0.0,0.0,0.0,0.0,0.0,0.0,0.0,0.0,0.0,0.0,0.0,0.0,0.0,0.0,0.0,0.0,0.0,0.0,0.0,0.0,0.0,0.0,0.0,0.0,0.0,0.0,0.0,0.0,0.0,0.0,0.0,0.0,0.0,0.0,0.0,0.0,0.0,0.0,0.0,0.0,0.0,0.0,0.0,0.0,0.0,0.0,0.0,0.0,0.0,0.0,0.0,0.0,0.0,0.0,0.0,0.0,0.0,0.0,0.0,0.0,0.0,0.0,0.0,0.0,0.0,0.0,0.0,0.0,0.0,0.0,0.0,0.0,0.0,0.0,0.0,0.0,0.0,0.0,0.0,0.0,0.0,0.0,0.0,0.0,0.0,0.0,0.0,0.0,0.0,0.0,0.0,0.0,0.0,0.0,0.0,0.0,0.0,0.0,0.0,0.0,0.0,0.0,0.0,0.0,0.0,0.0,0.0,0.0,0.0,0.0,0.0,0.0,0.0,0.0,0.0,0.0,0.0,0.0,0.0,0.0,0.0,0.0,0.0,0.0,0.0,0.0,0.0,0.0,0.0,0.0,0.0,0.0,0.0,0.0,0.0,0.0,0.0,0.0,0.0,0.0,0.0,0.0,0.0,0.0,0.0,0.0,0.0,0.0,0.0,0.0,0.0,0.0,0.0,0.0,0.0,0.0,0.0,0.0,0.0,0.0,0.0,0.0,0.0,0.0,0.0,0.0,0.0,0.0,0.0,0.0,0.0,0.0,0.0,0.0,0.0,0.0,0.0,0.0,0.0,0.0,0.0,0.0,0.0,0.0,0.0,0.0,0.0,0.0,0.0,0.0,0.0,0.0,0.0,0.0,0.0,0.0,0.0,0.0,0.0,0.0,0.0,0.0,0.0,0.0,0.0,0.0,0.0,0.0,0.0,0.0,0.0,0.0,0.0,0.0,0.0,0.0,0.0,0.0,0.0,0.0,0.0,0.0,0.0,0.0,0.0,0.0,0.0,0.0,0.0,0.0,0.0,0.0,0.0,0.0,0.0,0.0,0.0,0.0,0.0,0.0,0.0,0.0,0.0,0.0,0.0,0.0,0.0,0.0,0.0,0.0,0.0,0.0,0.0,0.0,0.0,0.0,0.0,0.0,0.0,0.0,0.0,0.0,0.0,0.0,0.0,0.0,0.0,0.0,0.0,0.0,0.0,0.0,0.0,0.0,0.0,0.0,0.0,0.0,0.0,0.0,0.0,0.0,0.0,0.0,0.0,0.0,0.0,0.0,0.0,0.0,0.0,0.0,0.0,0.0,0.0,0.0,0.0,0.0,0.0,0.0,0.0,0.0,0.0,0.0,0.0,0.0,0.0,0.0,0.0,0.0,0.0,0.0,0.0,0.0,0.0,0.0,0.0,0.0,0.0,0.0,0.0,0.0,0.0,0.0,0.0,0.0,0.0,0.0,0.0,0.0,0.0,0.0,0.0,0.0,0.0,0.0,0.0,0.0,0.0,0.0,0.0,0.0,0.0,0.0,0.0,0.0,0.0,0.0,0.0,0.0,0.0,0.0,0.0,0.0,0.0,0.0,0.0,0.0,0.0,0.0,0.0,0.0,0.0,0.0,0.0,0.0,0.0,0.0,0.0,0.0,0.0,0.0,0.0,0.0,0.0,0.0,0.0,0.0,0.0,0.0,0.0,0.0,0.0,0.0,0.0,0.0,0.0,0.0,0.0,0.0,0.0,0.0,0.0,0.0,0.0,0.0,0.0,0.0,0.0,0.0,0.0,0.0,0.0,0.0,0.0,0.0,0.0,0.0,0.0,0.0,0.0,0.0,0.0,0.0,0.0,0.0,0.0,0.0,0.0,0.0,0.0,0.0,0.0,0.0,0.0,0.0,0.0,0.0,0.0,0.0,0.0,0.0,0.0,0.0,0.0,0.0,0.0,0.0,0.0,0.0,0.0,0.0,0.0,0.0,0.0,0.0,0.0,0.0,0.0,0.0,0.0,0.0,0.0,0.0,0.0,0.0,0.0,0.0,0.0,0.0,0.0,0.0,0.0,0.0,0.0,0.0,0.0,0.0,0.0,0.0,0.0,0.0,0.0,0.0,0.0,0.0,0.0,0.0,0.0,0.0,0.0,0.0,0.0,0.0,0.0,0.0,0.0,0.0,0.0,0.0,0.0,0.0,0.0,0.0,0.0,0.0,0.0,0.0,0.0,0.0,0.0,0.0,0.0,0.0,0.0,0.0,0.0,0.0,0.0,0.0,0.0,0.0,0.0,0.0,0.0,0.0,0.0,0.0,0.0,0.0,0.0,0.0,0.0,0.0,0.0,0.0,0.0,0.0,0.0,0.0,0.0,0.0,0.0,0.0,0.0,0.0,0.0,0.0,0.0,0.0,0.0,0.0,0.0,0.0,0.0,0.0,0.0,0.0,0.0,0.0,0.0,0.0,0.0,0.0,0.0,0.0,0.0,0.0,0.0,0.0,0.0,0.0,0.0,0.0,0.0,0.0,0.0,0.0,0.0,0.0,0.0,0.0,0.0,0.0,0.0,0.0,0.0,0.0,0.0,0.0,0.0,0.0,0.0,0.0,0.0,0.0,0.0,0.0,0.0,0.0,0.0,0.0,0.0,0.0,0.0,0.0,0.0,0.0,0.0,0.0,0.0,0.0,0.0,0.0,0.0,0.0,0.0,0.0,0.0,0.0,0.0,0.0,0.0,0.0,0.0,0.0,0.0,0.0,0.0,0.0,0.0,0.0,0.0,0.0,0.0,0.0,0.0,0.0,0.0,0.0,0.0,0.0,0.0,0.0,0.0,0.0,0.0,0.0,0.0,0.0,0.0,0.0,0.0,0.0,0.0,0.0,0.0,0.0,0.0,0.0,0.0,0.0,0.0,0.0,0.0,0.0,0.0,0.0,0.0,0.0,0.0,0.0,0.0,0.0,0.0,0.0,0.0,0.0,0.0,0.0,0.0,0.0,0.0,0.0,0.0,0.0,0.0,0.0,0.0,0.0,0.0,0.0,0.0,0.0,0.0,0.0,0.0,0.0,0.0,0.0,0.0,0.0,0.0,0.0,0.0,0.0,0.0,0.0,0.0,0.0,0.0,0.0,0.0,0.0,0.0,0.0,0.0,0.0,0.0,0.0,0.0,0.0,0.0,0.0,0.0,0.0,0.0,0.0,0.0,0.0,0.0,0.0,0.0,0.0,0.0,0.0,0.0,0.0,0.0,0.0,0.0,0.0,0.0,0.0,0.0,0.0,0.0,0.0,0.0,0.0,0.0,0.0,0.0,0.0,0.0,0.0,0.0,0.0,0.0,0.0,0.0,0.0,0.0,0.0,0.0,0.0,0.0,0.0,0.0,0.0,0.0,0.0,0.0,0.0,0.0,0.0,0.0,0.0,0.0,0.0,0.0,0.0,0.0,0.0,0.0,0.0,0.0,0.0,0.0,0.0,0.0,0.0,0.0,0.0,0.0,0.0,0.0,0.0,0.0,0.0,0.0,0.0,0.0,0.0,0.0,0.0,0.0,0.0,0.0,0.0,0.0,0.0,0.0,0.0,0.0,0.0,0.0,0.0,0.0,0.0,0.0,0.0,0.0,0.0,0.0,0.0,0.0,0.0,0.0,0.0,0.0,0.0,0.0,0.0,0.0,0.0,0.0,0.0,0.0,0.0,0.0,0.0,0.0,0.0,0.0,0.0,0.0,0.0,0.0,0.0,0.0,0.0,0.0,0.0,0.0,0.0,0.0,0.0,0.0,0.0,0.0,0.0,0.0,0.0,0.0,0.0,0.0,0.0,0.0,0.0,0.0,0.0,0.0,0.0,0.0,0.0,0.0,0.0,0.0,0.0,0.0,0.0,0.0,0.0,0.0,0.0,0.0,0.0,0.0,0.0,0.0,0.0,0.0,0.0,0.0,0.0,0.0,0.0,0.0,0.0,0.0,0.0,0.0,0.0,0.0,0.0,0.0,0.0,0.0,0.0,0.0,0.0,0.0,0.0,0.0,0.0,0.0,0.0,0.0,0.0,0.0,0.0,0.0,0.0,0.0,0.0,0.0,0.0,0.0,0.0,0.0,0.0,0.0,0.0,0.0,0.0,0.0,0.0,0.0,0.0,0.0,0.0,0.0,0.0,0.0,0.0,0.0,0.0,0.0,0.0,0.0,0.0,0.0,0.0,0.0,0.0,0.0,0.0,0.0,0.0,0.0,0.0,0.0,0.0,0.0,0.0,0.0,0.0,0.0,0.0,0.0,0.0,0.0,0.0,0.0,0.0,0.0,0.0,0.0,0.0,0.0,0.0,0.0,0.0,0.0,0.0,0.0,0.0,0.0,0.0,0.0,0.0,0.0,0.0,0.0,0.0,0.0,0.0,0.0,0.0,0.0,0.0,0.0,0.0,0.0,0.0,0.0,0.0,0.0,0.0,0.0,0.0,0.0,0.0,0.0,0.0,0.0,0.0,0.0,0.0,0.0,0.0,0.0,0.0,0.0,0.0,0.0,0.0,0.0,0.0,0.0,0.0,0.0,0.0,0.0,0.0,0.0,0.0,0.0,0.0,0.0,0.0,0.0,0.0,0.0,0.0,0.0,0.0,0.0,0.0,0.0,0.0,0.0,0.0,0.0,0.0,0.0,0.0,0.0,0.0,0.0,0.0,0.0,0.0,0.0,0.0,0.0,0.0,0.0,0.0,0.0,0.0,0.0,0.0,0.0,0.0,0.0,0.0,0.0,0.0,0.0,0.0,0.0,0.0,0.0,0.0,0.0,0.0,0.0,0.0,0.0,0.0,0.0,0.0,0.0,0.0,0.0,0.0,0.0,0.0,0.0,0.0,0.0,0.0,0.0,0.0,0.0,0.0,0.0,0.0,0.0,0.0,0.0,0.0,0.0,0.0,0.0,0.0,0.0,0.0,0.0,0.0,0.0,0.0,0.0,0.0,0.0,0.0,0.0,0.0,0.0,0.0,0.0,0.0,0.0,0.0,0.0,0.0,0.0,0.0,0.0,0.0,0.0,0.0,0.0,0.0,0.0,0.0,0.0,0.0,0.0,0.0,0.0,0.0,0.0,0.0,0.0,0.0,0.0,0.0,0.0,0.0,0.0,0.0,0.0,0.0,0.0,0.0,0.0,0.0,0.0,0.0,0.0,0.0,0.0,0.0,0.0,0.0,0.0,0.0,0.0,0.0,0.0,0.0,0.0,0.0,0.0,0.0,0.0,0.0,0.0,0.0,0.0,0.0,0.0,0.0,0.0,0.0,0.0,0.0,0.0,0.0,-4.2798,-4.2342,0.0,0.0,0.0,0.0,0.0,0.0,0.0,0.0,0.0,0.0,0.0,0.0,0.0,0.0,0.0,0.0,0.0,0.0,0.0,0.0,0.0,0.0,0.0,0.0,0.0,0.0,-5.1977,-5.2157,-5.2157,-5.2486,0.0,0.0,0.0,0.0,-5.3174,-5.3503,-5.3655,-5.3692,-5.4046,-5.4569,-5.5129,-5.6415,-5.5807,-5.3713,0.0,0.0,0.0,0.0,0.0,0.0,0.0,0.0,0.0,0.0,0.0,0.0,0.0,0.0,0.0,0.0,0.0,0.0,0.0,0.0,0.0,0.0,0.0,0.0,0.0,0.0,0.0,0.0,0.0,0.0,0.0,0.0,0.0,0.0,0.0,0.0,0.0,0.0,0.0,0.0,0.0,0.0,0.0,0.0,0.0,0.0,0.0,0.0,0.0,0.0,0.0,0.0,0.0,0.0,0.0,0.0,0.0,0.0,0.0,0.0,0.0,0.0,0.0,0.0,0.0,0.0,0.0,0.0,0.0,0.0,-4.6358,-4.4667,0.0,0.0,0.0,0.0,0.0,0.0,0.0,0.0,0.0,0.0,0.0,0.0,0.0,0.0,0.0,0.0,0.0,0.0,0.0,0.0,0.0,0.0,0.0,-5.3054,-5.3324,-5.2755,-5.3204,-5.3514,-5.3387,-5.3268,-5.3268,-5.3387,-5.3268,-5.3426,-5.3862,-5.4112,-5.4274,-5.4413,-5.4746,-5.6128,-5.8581,-6.1054,-6.0257,-5.6795,-5.6825,0.0,0.0,0.0,0.0,0.0,0.0,0.0,0.0,0.0,0.0,0.0,0.0,0.0,0.0,0.0,0.0,0.0,0.0,0.0,0.0,0.0,0.0,0.0,0.0,0.0,0.0,0.0,0.0,0.0,0.0,0.0,0.0,0.0,0.0,0.0,0.0,0.0,0.0,0.0,0.0,0.0,0.0,0.0,0.0,0.0,0.0,0.0,0.0,0.0,0.0,0.0,0.0,0.0,0.0,0.0,0.0,0.0,0.0,0.0,0.0,0.0,0.0,0.0,-5.4235,-5.5261,-5.6484,-5.5954,-5.5609,-5.5244,-5.1758,-4.8913,-4.6838,-4.6974,0.0,0.0,0.0,0.0,0.0,0.0,0.0,0.0,0.0,0.0,0.0,0.0,0.0,0.0,0.0,0.0,0.0,0.0,0.0,0.0,0.0,-5.4162,-5.488,-5.479,-5.488,-5.4743,-5.4206,-5.3629,-5.3623,-5.41,-5.3629,-5.4384,-5.6555,-5.509,-5.457,-5.5188,-5.6585,-5.948,-6.383,-6.578,-6.6779,-6.6819,-6.1822,-5.9661,-5.9478,0.0,0.0,0.0,0.0,0.0,0.0,0.0,0.0,0.0,0.0,0.0,0.0,0.0,0.0,0.0,0.0,0.0,0.0,0.0,0.0,0.0,0.0,0.0,0.0,0.0,0.0,0.0,0.0,0.0,0.0,0.0,0.0,0.0,0.0,0.0,0.0,0.0,0.0,0.0,0.0,0.0,-4.3676,-4.4722,0.0,0.0,0.0,0.0,0.0,0.0,0.0,0.0,0.0,0.0,0.0,0.0,0.0,-5.2362,-5.497,-5.5969,-5.7204,-5.8695,-6.0121,-6.0798,-6.0858,-6.0471,-6.0289,-6.0264,-5.9659,0.0,-5.0434,-4.8825,0.0,0.0,0.0,0.0,0.0,0.0,0.0,0.0,0.0,0.0,0.0,0.0,0.0,0.0,0.0,0.0,0.0,0.0,0.0,0.0,0.0,-5.4773,-5.5227,-5.5635,-5.7714,-5.7965,-5.5424,-5.5963,-5.5707,-5.4373,-5.3717,-5.3906,-5.4999,-5.4564,-5.5966,-5.9194,-6.1264,-6.4221,-6.794,-6.8755,-6.976,-7.0584,-6.7301,-6.4147,-6.1152,-5.7913,0.0,0.0,0.0,0.0,0.0,0.0,0.0,0.0,0.0,0.0,0.0,0.0,0.0,0.0,0.0,0.0,0.0,0.0,0.0,0.0,0.0,0.0,0.0,0.0,0.0,0.0,0.0,0.0,0.0,0.0,0.0,0.0,0.0,0.0,0.0,0.0,0.0,0.0,0.0,-4.4356,-4.5637,-4.5111,-4.6029,-4.5689,0.0,0.0,0.0,0.0,0.0,0.0,0.0,0.0,0.0,-5.4515,-5.6055,-5.7718,-5.9716,-6.109,-6.2657,-6.4241,-6.4974,-6.5695,-6.652,-6.572,-6.5183,-6.4881,-6.458,-6.2094,-5.7951,-5.43,-5.1573,-4.9481,0.0,0.0,0.0,0.0,-4.7227,-4.7807,0.0,0.0,0.0,0.0,0.0,0.0,0.0,0.0,0.0,0.0,0.0,0.0,-5.4961,-5.5766,-5.6592,-5.8135,-6.0434,-6.0709,-5.7965,-5.7467,-5.6559,-5.4849,-5.3629,-5.3272,-5.3893,-5.5113,-5.8015,-6.2656,-6.581,-6.9081,-7.2451,-7.3365,-7.4165,-7.4757,-7.3264,-6.9544,-6.4059,-6.0893,-5.7224,-5.3225,0.0,0.0,0.0,0.0,0.0,0.0,0.0,0.0,0.0,0.0,0.0,0.0,0.0,0.0,0.0,0.0,0.0,0.0,0.0,0.0,0.0,0.0,0.0,0.0,0.0,0.0,0.0,0.0,0.0,0.0,0.0,0.0,0.0,0.0,0.0,0.0,0.0,-4.6787,-4.7885,-4.6447,-4.8564,-4.8538,0.0,0.0,0.0,0.0,0.0,0.0,-5.2616,-5.455,-5.6894,-5.9683,-6.1731,-6.3462,-6.485,-6.6247,-6.7663,-6.9049,-6.9049,-6.9777,-7.1083,-6.9978,-6.915,-6.8597,-6.807,-6.6564,-6.4153,-5.9282,-5.5641,-5.298,-5.1021,-5.0067,-4.9841,-4.9992,-5.0469,-5.1147,0.0,0.0,0.0,0.0,0.0,0.0,0.0,0.0,0.0,0.0,0.0,-5.2068,-5.5575,-5.75,-6.0077,-6.3984,-6.2549,-6.1801,-6.2665,-5.7092,-5.444,-5.5952,-5.3326,-5.2908,-5.5213,-5.7916,-6.072,-6.3588,-6.8832,-7.3751,-7.8224,-8.1192,-8.2471,-8.217,-8.001,-7.5887,-7.0062,-6.4314,-6.0478,-5.7756,-5.3281,0.0,0.0,0.0,0.0,0.0,0.0,0.0,0.0,0.0,0.0,0.0,0.0,0.0,0.0,0.0,0.0,0.0,0.0,0.0,0.0,0.0,0.0,0.0,0.0,0.0,0.0,0.0,0.0,0.0,0.0,0.0,0.0,0.0,0.0,0.0,0.0,0.0,0.0,-5.0551,-5.3452,0.0,0.0,0.0,0.0,-5.0446,-5.2563,-5.5072,-5.7974,-6.03,-6.3358,-6.7357,-6.8247,-6.9532,-7.118,-7.1483,-7.1822,-7.2489,-7.2489,-7.2816,-7.3393,-7.2263,-7.1435,-7.0882,-7.033,-6.8848,-6.6463,-6.1969,-5.9408,-5.8027,-5.534,-5.4587,-5.4888,-5.3833,-5.416,-5.4888,0.0,0.0,0.0,0.0,0.0,0.0,0.0,0.0,-4.7838,-4.9178,-5.0179,-5.2723,-5.775,-6.077,-6.3653,-6.6637,-6.7168,-6.6415,-6.4148,-6.0128,-5.7429,-5.6556,-5.379,-5.3661,-5.6781,-5.9969,-6.416,-6.9347,-7.3534,-7.7582,-8.1517,-8.1029,-8.1402,-8.2228,-7.9812,-7.7161,-7.4116,-6.7557,-6.2804,-5.9228,-5.4994,-5.2223,0.0,0.0,0.0,0.0,0.0,0.0,0.0,0.0,0.0,0.0,0.0,0.0,0.0,0.0,0.0,0.0,0.0,0.0,0.0,0.0,0.0,0.0,0.0,0.0,0.0,0.0,0.0,0.0,0.0,0.0,0.0,0.0,0.0,0.0,0.0,0.0,0.0,-5.6745,-5.9568,0.0,-5.5046,-5.5438,-5.6223,-5.6824,-5.9333,-6.2104,-6.5005,-6.6991,-6.9202,-7.1858,-7.2805,-7.3703,-7.4488,-7.4907,-7.4985,-7.4849,-7.4146,-7.392,-7.4071,-7.259,-7.161,-7.1058,-7.0506,-6.9426,-6.7894,-6.5936,-6.3425,-6.0638,-5.893,-5.8177,-5.7976,-5.7575,-5.7901,-5.8378,0.0,0.0,0.0,0.0,0.0,0.0,0.0,0.0,-4.613,-4.792,-4.9882,-5.3356,-5.9424,-6.3309,-6.6632,-6.9849,-6.9873,-6.8664,-6.6155,-6.145,-5.8183,-5.6876,-5.4785,-5.5282,-5.8758,-6.2783,-6.7532,-7.3027,-7.7639,-8.1139,-8.3679,-8.3374,-8.3177,-8.2974,-8.1102,-7.9087,-7.6806,-7.1663,-6.6678,-6.1947,-5.8287,-5.6013,-5.4341,0.0,0.0,0.0,0.0,0.0,0.0,0.0,0.0,0.0,0.0,0.0,0.0,0.0,0.0,0.0,0.0,0.0,0.0,0.0,0.0,0.0,0.0,0.0,0.0,0.0,0.0,0.0,0.0,0.0,0.0,0.0,0.0,0.0,0.0,-5.6405,-6.0117,-6.1241,-6.4613,-6.5109,-6.0692,-6.1659,-6.2809,-6.3358,-6.5737,-6.8246,-7.0755,-7.2323,-7.3869,-7.5495,-7.6398,-7.6762,-7.6576,-7.6868,-7.6678,-7.5753,-7.4674,-7.4021,-7.3795,-7.2313,-7.1334,-7.0782,-7.0405,-6.9526,-6.8321,-6.7945,-6.6061,-6.3299,-6.237,-6.1768,-6.1416,-6.104,-6.114,-6.124,0.0,0.0,0.0,0.0,0.0,0.0,0.0,-4.4719,-4.6077,-4.7839,-5.0247,-5.4158,-6.0509,-6.4848,-6.9135,-7.3683,-7.0415,-6.8298,-6.8795,-6.0744,-5.6223,-5.6798,-5.6327,-5.7712,-6.1293,-6.6338,-7.0651,-7.4127,-8.068,-8.4209,-8.4916,-8.8585,-8.8385,-8.4798,-8.4152,-8.1773,-7.8204,-7.6505,-7.2245,-6.6338,-6.3332,-6.1058,-5.915,0.0,0.0,0.0,0.0,0.0,0.0,0.0,0.0,0.0,0.0,0.0,0.0,0.0,0.0,0.0,0.0,0.0,0.0,0.0,0.0,0.0,0.0,0.0,0.0,0.0,0.0,0.0,0.0,0.0,0.0,0.0,0.0,0.0,-5.4393,-5.9908,-6.3907,-6.4012,-6.8481,-7.0023,-6.6076,-6.7749,-6.9318,-6.984,-7.1513,-7.3238,-7.4937,-7.6087,-7.7211,-7.8309,-7.8884,-7.8691,-7.7625,-7.7599,-7.6734,-7.5201,-7.4096,-7.3268,-7.264,-7.156,-7.0757,-7.0204,-7.0204,-6.93,-6.7794,-6.7769,-6.7116,-6.6086,-6.5534,-6.5308,-6.5157,-6.4103,-6.3676,-6.3299,0.0,0.0,0.0,0.0,0.0,0.0,-4.264,-4.3226,-4.4626,-4.7186,-5.2098,-5.732,-6.2417,-6.8429,-7.3134,-7.5669,-7.2559,-6.984,-6.8324,-6.1293,-5.7059,-5.6824,-5.8235,-6.145,-6.6599,-6.9762,-7.3055,-7.6505,-8.0604,-8.2667,-8.2859,-8.3835,-8.3835,-8.274,-8.1244,-7.9665,-7.8283,-7.7812,-7.6113,-7.3317,-6.7906,-6.4168,-6.1529,0.0,0.0,0.0,0.0,0.0,0.0,0.0,0.0,0.0,0.0,0.0,0.0,0.0,0.0,0.0,0.0,0.0,0.0,0.0,0.0,0.0,0.0,0.0,0.0,0.0,0.0,0.0,0.0,0.0,0.0,0.0,-5.5543,-5.9333,-6.0326,-6.4822,-6.8978,-7.1513,-7.3813,-7.4571,-7.3029,-7.3839,-7.4362,-7.4075,-7.5669,-7.6871,-7.7368,-7.8074,-7.8623,-7.8936,-7.8709,-7.8498,-7.8208,-7.7021,-7.6052,-7.5204,-7.3684,-7.2464,-7.151,-7.0807,-6.9978,-6.9074,-6.9074,-6.8597,-6.7769,-6.7367,-6.7015,-6.6689,-6.6112,-6.5634,-6.5208,-6.4505,-6.3249,-6.1793,0.0,0.0,0.0,0.0,0.0,0.0,-4.1376,-4.2134,-4.3781,-4.6861,-5.2877,-5.8732,-6.3829,-6.9919,-7.4127,-7.5408,-7.235,-6.9161,-6.6364,-6.1058,-5.8209,-5.8601,-6.1502,-6.524,-6.9814,-7.2663,-7.5329,-7.7812,-8.0602,-8.2056,-8.2029,-8.2859,-8.2767,-8.1964,-8.087,-7.9698,-7.8675,-7.8675,-7.8152,-7.6976,-7.3055,-6.9866,-6.7096,-6.3384,-6.1555,-6.0692,-5.8575,-5.7765,-5.732,-5.4785,0.0,0.0,0.0,0.0,0.0,0.0,0.0,0.0,0.0,0.0,0.0,0.0,0.0,0.0,0.0,0.0,0.0,0.0,0.0,0.0,0.0,0.0,0.0,0.0,-6.0718,-6.4979,-6.7828,-7.0337,-7.2898,-7.5643,-7.7002,-7.7551,-7.7185,-7.7473,-7.7525,-7.7185,-7.81,-7.8675,-7.8675,-7.8989,-7.9172,-7.9172,-7.8883,-7.8594,-7.8401,-7.7061,-7.5793,-7.4813,-7.2973,-7.1585,-7.0706,-6.9928,-6.9225,-6.8622,-6.8622,-6.817,-6.7417,-6.7116,-6.684,-6.6589,0.0,0.0,0.0,0.0,-6.2898,-6.119,0.0,0.0,0.0,0.0,0.0,0.0,-4.0409,-4.1402,-4.3441,-4.697,-5.2851,-5.881,-6.4299,-6.9579,-7.2977,-7.3578,-7.0442,-6.7017,-6.362,-6.0457,-5.9673,-6.179,-6.5528,-6.8952,-7.1931,-7.5146,-7.7342,-7.8414,-8.0629,-8.1685,-8.1685,-8.3472,-8.3289,-8.1685,-8.1685,-8.0803,-7.9172,-7.9172,-7.8884,-7.8361,-7.7865,-7.6244,-7.3683,-6.9919,-6.8324,-6.7671,-6.4456,-6.2443,-6.0849,-5.7948,0.0,0.0,0.0,0.0,0.0,0.0,0.0,0.0,0.0,0.0,0.0,0.0,0.0,0.0,0.0,0.0,0.0,0.0,0.0,0.0,0.0,0.0,0.0,0.0,-6.5998,-7.0389,-7.5303,-7.5643,-7.5957,-7.7473,-7.8544,-7.9172,-7.9172,-7.9172,-7.9172,-7.9172,-7.9172,-7.9172,-7.9172,-7.9172,0.0,0.0,0.0,-7.8857,-7.8394,-7.7196,-7.5794,-7.4241,-7.2033,-7.0673,-7.0044,-6.8974,-6.8497,-6.8447,-6.8447,-6.7844,-6.689,-6.689,-6.6538,-6.6011,-6.5936,-6.5634,-6.5057,-6.4002,-6.2571,-6.1165,0.0,0.0,0.0,0.0,0.0,0.0,-4.0409,-4.1402,-4.3572,-4.7492,-5.272,-5.7582,-6.1502,-6.6965,-7.0598,-7.12,-6.8063,-6.4796,-6.1816,-6.0535,-6.1921,-6.6469,-6.9161,-7.214,-7.5538,-7.7185,-7.8335,-7.9015,-7.9476,-7.9719,-7.9719,-8.0168,-8.0073,-7.9719,-7.9719,-7.9528,-7.9172,-7.9172,-7.9093,-7.8989,-7.8884,-7.7185,-7.4493,-7.2297,-7.0311,-6.8481,-6.6887,-6.6965,-6.741,-6.4508,-6.3959,-6.362,-5.8862,-5.5543,0.0,0.0,0.0,0.0,0.0,0.0,0.0,0.0,0.0,0.0,0.0,0.0,0.0,0.0,0.0,0.0,0.0,0.0,0.0,-6.5266,-6.9893,-7.3996,-7.7342,-7.8126,-7.8466,-7.8806,-7.9041,-7.9172,-7.9172,-7.9172,-7.9172,-7.9172,-7.9172,-7.9172,-7.9172,-7.9172,-7.9172,-7.9172,-7.8787,-7.8457,-7.8302,-7.6409,-7.4814,-7.3495,-7.1421,0.0,-6.8802,-6.8222,-6.7719,-6.7292,-6.7292,-6.6915,-6.6287,-6.6287,-6.5961,-6.5409,-6.4957,-6.4731,-6.4505,-6.34,-6.222,-6.1115,0.0,0.0,0.0,0.0,0.0,0.0,-4.0017,-4.101,-4.2971,-4.6447,-5.1179,-5.5415,-5.8546,-6.2789,-6.5281,-6.4966,-6.2347,-6.0771,-6.111,-6.2182,-6.5136,-7.0337,-7.2768,-7.5094,-7.742,-7.8309,-7.9334,-8.0614,-7.9624,-7.9719,-8.0614,-7.9624,-7.9172,-7.9172,-7.9172,-7.9172,-7.9172,-7.9172,-7.9172,-7.9172,-7.9172,-7.8309,-7.6924,-7.5748,-7.4414,-7.3003,-7.1853,-7.1409,-7.1017,-6.8403,-6.7331,-6.6338,-6.2025,-5.9281,-5.6928,0.0,0.0,0.0,0.0,0.0,0.0,0.0,0.0,0.0,0.0,0.0,0.0,0.0,0.0,-5.4837,-5.685,0.0,-6.5632,-7.0259,-7.3421,-7.6218,-7.8806,-7.9172,-7.9172,-7.9172,-7.9172,-7.9172,-7.9172,-7.9433,-7.9485,-7.9198,-7.9694,-7.9773,-7.9198,-7.9433,-7.9459,-7.9172,-7.898,-7.8467,-7.7891,-7.6279,-7.4552,-7.2836,-7.0987,-6.9662,-6.882,-6.8018,-6.7565,-6.7313,-6.7052,-6.6639,-6.6086,-6.581,-6.5534,-6.5208,-6.4404,-6.4078,-6.3952,-6.2822,-6.1893,-6.1065,0.0,0.0,0.0,0.0,0.0,0.0,0.0,-4.0755,-4.2466,-4.5334,-4.9526,-5.3223,-5.5699,-5.8427,-5.9546,-5.812,-5.7135,-5.7974,-6.1241,-6.4456,-6.8533,-7.3735,-7.5983,-7.7656,-7.8806,-7.9172,-8.0068,-8.1594,-7.9936,-7.9978,-8.1405,-7.9883,-7.9172,-7.9172,-7.9172,-7.9172,-7.9172,-7.9172,-7.9172,-7.9172,-7.9172,-7.9172,-7.9093,-7.8544,-7.7969,-7.7316,-7.627,-7.4493,-7.2376,-7.0755,-6.8978,-6.6939,-6.4168,-6.2757,-6.1241,-5.6693,-5.5543,0.0,0.0,0.0,0.0,0.0,0.0,0.0,0.0,-5.2302,-5.353,-5.5072,-5.7582,-6.0405,-6.3437,-6.6913,-7.0624,-7.4597,-7.6296,-7.776,-7.9616,-7.9459,-7.9172,-7.9172,-7.9172,-7.9172,-7.9172,-7.959,-7.9668,-7.9198,-8.0034,-8.0139,-7.9224,-7.9616,-7.9642,-7.9172,-7.9067,-7.8466,-7.7316,-7.6212,-7.4507,-7.2356,-7.0776,-6.9717,-6.9229,-6.8106,-6.7619,-6.7695,-6.7273,-6.6798,-6.6319,-6.5764,-6.5487,-6.5201,-6.4244,-6.3633,-6.3249,-6.2345,-6.1592,-6.0839,0.0,0.0,0.0,0.0,0.0,0.0,0.0,0.0,-4.2895,-4.5735,-4.9227,-5.1933,-5.3292,-5.5196,-5.5537,-5.3422,-5.6762,-6.0013,-6.2469,-6.6756,-7.1539,-7.6741,-7.8204,-7.9407,-8.0557,-8.0165,-8.0026,-8.0193,-7.9503,-7.9363,-7.9528,-7.9267,-7.9172,-7.9172,-7.9172,-7.9172,-7.9172,-7.9172,-7.9172,-7.9172,-7.9172,-7.9172,-7.9093,-7.8544,-7.7969,-7.7368,-7.6741,-7.4075,-7.099,-7.1748,-7.052,-6.8586,-6.8194,-6.6991,-6.49,-6.0771,-5.7477,-5.4628,-5.2093,-4.9976,-4.9165,-5.2014,-5.1805,-5.2433,0.0,-5.9098,-5.9255,-6.1973,-6.4404,-6.6469,-6.7906,-7.1409,-7.4597,-7.6166,-7.7812,-7.8989,-7.9224,-7.9224,-7.9172,-7.9172,-7.9172,-7.9172,-7.9172,-7.9224,-7.9224,-7.9172,-7.9276,-7.9302,-7.9172,-7.9224,-7.9224,-7.9172,-7.8675,-7.7865,-7.6715,-7.5551,-7.4089,-7.2288,-7.0706,-6.9877,-6.9773,-6.8237,-6.775,-6.8211,-6.7699,-6.7443,-6.7256,-6.6694,-6.5932,-6.5115,-6.4482,-6.3376,-6.2169,-6.2044,-6.1341,-6.0261,0.0,0.0,0.0,0.0,0.0,0.0,0.0,0.0,0.0,-4.4556,-4.7399,-4.9177,-4.9018,-4.9145,-4.8798,-4.7607,-5.2328,-5.7059,-6.1058,-6.72,-7.2872,-7.776,-7.9381,-8.04,-8.0871,-8.0635,-8.0904,-8.1657,-8.0325,-8.0035,-8.0803,-7.9719,-7.9172,-7.9267,-8.0331,-8.0776,-8.0776,-8.0776,-8.0776,-8.0682,-7.9624,-7.8962,-7.8623,-7.8048,-7.6192,-7.3918,-7.3656,-7.2062,0.0,-6.9082,-6.8377,-6.788,-6.8246,-6.6704,-6.4351,-6.2339,-5.9072,-5.5438,-5.2406,-5.1884,-5.2328,-5.2772,-5.4863,-5.7634,-6.0875,-6.2548,-6.4116,-6.6652,-6.9265,-7.1461,-7.2637,-7.5042,-7.7133,-7.7969,-7.8701,-7.9276,-7.9616,-7.8806,-7.7917,-7.7237,-7.7159,-7.7682,-7.9041,-7.9459,-7.9537,-7.9198,-7.9799,-7.9877,-7.9198,-7.9485,-7.9355,-7.8701,-7.844,-7.7446,-7.5643,-7.5146,-7.3683,-7.1304,-7.0636,-6.9977,-6.9215,-6.8326,-6.7885,-6.781,-6.7324,-6.6959,-6.6517,-6.5706,-6.4923,-6.4284,-6.3294,-6.2583,-6.1969,-6.1642,-6.0814,-5.9684,0.0,0.0,0.0,0.0,0.0,0.0,0.0,0.0,0.0,0.0,-4.6422,-4.7474,-4.6208,-4.5287,-4.4455,-4.373,-4.8486,-5.3818,-5.915,-6.6233,-7.2506,-7.7629,-7.9642,-8.1059,-8.1933,-8.1801,-8.242,-8.401,-8.1672,-8.1014,-8.1964,-8.0073,-7.9172,-7.9267,-8.1151,-8.1685,-8.1218,-8.1778,-8.1685,-8.1125,-8.0172,-7.9045,-7.8011,-7.6994,-7.3891,-7.0232,-7.0206,-6.856,-6.6129,-6.4456,-6.3959,-6.4195,-6.5266,-6.4404,-6.2835,-6.2104,-5.9019,-5.5255,-5.238,-5.3086,-5.4602,-5.4419,-5.8026,-6.1947,-6.3332,-6.5867,-6.8507,-7.0468,-7.2925,-7.5016,-7.6009,-7.7499,-7.8675,-7.9093,-7.9302,-7.9433,-7.9537,-7.8074,-7.6479,-7.5146,-7.4728,-7.512,-7.6662,-7.8335,-7.9224,-7.8962,-7.9851,-8.0034,-7.9224,-7.9564,-7.9328,-7.8335,-7.8021,-7.6898,-7.4937,-7.4441,-7.3055,-7.0807,-7.0494,-6.9893,-6.8999,-6.8591,-6.81,-6.7583,-6.7246,-6.6829,-6.6266,-6.5371,-6.4589,-6.3924,-6.2936,-6.2219,-6.1651,-6.1072,-6.0189,-5.9156,0.0,0.0,0.0,0.0,0.0,0.0,0.0,0.0,0.0,0.0,0.0,0.0,0.0,-4.5605,-4.4698,-4.3153,-4.6813,-5.1622,-5.7442,-6.3698,-7.0049,-7.6401,-7.8832,-8.1475,-8.4566,-8.4051,-8.4668,-8.6679,-8.3462,-8.1964,-8.1964,-8.0073,-7.9172,-7.9267,-8.1151,-8.0964,-7.9433,-8.1245,-8.0964,-7.938,-8.0534,-7.9601,-7.7334,-7.5127,-7.1409,-6.7253,-6.7227,-6.3254,-5.807,-5.8018,-5.7163,-5.6641,-5.8915,-6.0352,-6.098,-5.9856,-5.6667,-5.3217,-5.1936,-5.2511,-5.4367,-5.8209,-6.098,-6.3672,-6.7044,-7.0049,-7.2454,-7.363,-7.5303,-7.6715,-7.7316,-7.8361,-7.9145,-7.9172,-7.9642,-7.9616,-7.8518,-7.6871,-7.512,-7.3395,-7.2219,-7.1356,-7.0886,-7.4911,-7.776,-7.8309,-7.8884,-7.9198,-7.9172,-7.9198,-7.8936,-7.8335,-7.7237,-7.6113,-7.4911,-7.3238,-7.2036,-7.1356,-7.0259,-6.971,-6.9657,-6.9025,-6.845,-6.8011,-6.7928,-6.7589,-6.6988,-6.644,-6.5652,-6.4735,-6.4034,-6.2686,-6.0962,-6.0378,-5.9514,-5.8654,0.0,0.0,0.0,0.0,0.0,0.0,0.0,0.0,0.0,0.0,0.0,0.0,0.0,0.0,0.0,0.0,-4.6464,-5.1095,-5.5226,-6.3045,-6.9092,-7.2542,-7.7695,-8.095,-8.1758,-8.3142,-8.457,-8.6152,-8.3747,-8.2436,-8.1964,-8.0073,-7.9883,-8.1151,-8.3043,-8.4287,-8.4916,-8.5628,-8.4096,-8.1147,-7.9946,-7.7484,-7.44,-7.2554,-6.7953,-6.2287,0.0,-5.7582,-5.4602,-5.3034,-5.2746,-5.3321,-5.4916,-5.5125,-5.4419,-5.2537,-5.3191,-5.4262,-5.3112,-5.5857,-5.9777,-6.2652,-6.5684,-6.869,-7.1382,-7.3317,-7.4571,-7.4597,-7.4754,-7.4702,-7.4153,-7.4362,-7.499,-7.6166,-7.7133,-7.8021,-7.8779,-7.7734,-7.5512,-7.1879,-7.1409,-7.0442,-6.7958,-7.1879,-7.5146,-7.6479,-7.7499,-7.8361,-7.9119,-7.8806,-7.8178,-7.7211,-7.6427,-7.5277,-7.3735,-7.3134,-7.2167,-7.086,-6.9684,-6.9135,-6.9108,-6.8533,-6.8168,-6.7958,-6.7238,-6.6662,-6.601,-6.5224,-6.4415,-6.3717,-6.2452,-6.1297,-6.0276,-5.9489,-5.8479,-5.7575,0.0,0.0,0.0,0.0,0.0,0.0,0.0,0.0,0.0,0.0,0.0,0.0,0.0,0.0,0.0,0.0,0.0,-4.8736,-5.2469,-5.8876,-6.4209,-6.8023,-7.2478,-7.5565,-7.6955,-7.8005,-7.9744,-8.2267,-8.0529,-7.9683,-7.974,-7.8867,-7.8919,-7.9804,-8.2574,-8.4276,-8.5021,-8.5703,-8.3703,-7.9858,-7.7761,-7.4415,-7.0413,-6.7448,-6.2652,0.0,-5.3214,-5.0943,-4.9453,-4.7937,-4.8198,-4.9296,-5.0054,-5.0185,-4.9871,-4.8799,-5.1361,-5.4654,-5.5334,-5.9124,-6.3593,-6.6521,-6.9396,-7.1931,-7.363,-7.4754,-7.4963,-7.3369,-7.2559,-7.1748,-7.0389,-6.9474,-6.9814,-7.2585,-7.3317,-7.4493,-7.7263,-7.614,-7.3918,-7.0938,-7.0154,-6.8926,-6.6521,-6.9501,-7.248,-7.4624,-7.627,-7.7577,-7.8518,-7.8414,-7.7786,-7.6662,-7.5852,-7.4597,-7.2846,-7.2428,-7.1461,-6.9971,-6.9213,-6.8743,-6.8533,-6.8168,-6.7775,-6.7357,-6.6406,-6.5753,-6.5128,-6.4319,-6.3671,-6.2973,-6.1814,-6.0865,-6.0125,-5.9133,-5.8098,-5.717,0.0,0.0,0.0,0.0,0.0,0.0,0.0,0.0,0.0,0.0,0.0,0.0,0.0,0.0,0.0,0.0,0.0,0.0,-4.9297,-5.1873,-5.6186,-6.2837,-6.375,-6.6118,-7.0473,-6.9396,-7.0963,-7.5557,-7.4225,-7.4153,-7.5193,-7.597,-7.5931,-7.5388,-7.9413,-8.0612,-7.9745,-8.1484,-7.9615,-7.5407,-7.4085,-7.0488,-6.547,-6.0477,-5.5904,-5.161,-4.6658,-4.4016,-4.2944,-4.2997,-4.3833,-4.4853,-4.4826,-4.6029,-4.7675,-4.8904,-5.1361,-5.455,-5.847,-6.2231,-6.5974,-6.9905,-7.2105,-7.3416,-7.3992,-7.4374,-7.3604,-7.0154,-6.8847,-6.7775,-6.6024,-6.4038,-6.4142,-6.8716,-6.8795,-6.9866,-7.4467,-7.2768,-7.0964,-7.0755,-6.8821,-6.72,-6.6495,-6.7932,-7.0076,-7.2846,-7.5199,-7.6793,-7.7394,-7.7943,-7.7682,-7.6505,-7.5408,-7.3996,-7.2323,-7.1173,-7.0023,-6.8816,-6.8764,-6.8533,-6.7985,-6.7958,-6.7305,-6.6207,-6.5606,-6.5005,-6.4456,-6.3881,-6.3306,-6.2731,-6.2156,-6.1331,-6.0283,-5.917,-5.8247,-5.7514,0.0,0.0,0.0,0.0,0.0,0.0,0.0,0.0,0.0,0.0,0.0,0.0,0.0,0.0,0.0,0.0,0.0,0.0,-4.7829,-5.2143,-5.5398,-5.6961,-6.1103,-6.3843,-6.482,-6.6153,-6.8107,-7.0769,-6.899,-6.8539,-6.9208,-6.7988,-6.8389,-7.0056,-7.1654,-7.2963,-7.3992,-7.4513,-7.2478,-6.8789,-6.7545,-6.4548,-6.0706,-5.8467,-5.4649,-5.0158,-4.8425,-4.5156,-4.1873,-4.2735,-4.4382,-4.6055,-4.6029,-4.7231,-4.9035,-5.1047,-5.4576,-5.8444,-6.1189,-6.6712,-7.2201,-7.4083,-7.4891,-7.5267,-7.5402,-7.2812,-6.9527,-6.6469,-6.3332,-6.0483,-5.834,-5.9202,-6.1607,-6.5815,-6.9474,-7.3264,-7.7499,-7.7446,-7.5852,-7.282,-7.2742,-7.167,-6.8507,-6.937,-7.0807,-7.2376,-7.4258,-7.5774,-7.6767,-7.6976,-7.6323,-7.4728,-7.3944,-7.316,-7.2323,-7.1173,-7.0232,-6.9474,-6.903,-6.8533,-6.7958,-6.7514,-6.6704,-6.558,-6.5005,-6.443,-6.3855,-6.328,-6.2705,-6.213,-6.1256,-6.0176,-5.917,-5.8521,-5.7943,-5.744,0.0,0.0,0.0,0.0,0.0,0.0,0.0,0.0,0.0,0.0,0.0,0.0,0.0,0.0,0.0,0.0,0.0,0.0,0.0,-4.9424,-5.1621,-5.2727,-5.525,-5.6968,-5.7631,-5.8368,-5.9938,-6.251,-6.1733,-6.1893,-6.298,-6.2857,-6.3379,-6.449,-6.5863,-6.7339,-6.8884,-6.8884,-6.704,0.0,0.0,-5.919,-5.5794,-5.3554,-5.0649,-4.7636,-4.6562,-4.4542,-4.2683,-4.4356,-4.595,-4.744,-4.8721,-5.0472,-5.2589,-5.5125,-5.8601,-6.2234,-6.5083,-7.028,-7.5113,-7.5951,-7.5874,-7.5004,-7.3267,-6.9613,-6.5266,-6.0614,-5.7425,-5.4785,-5.2485,-5.4001,-5.7163,-6.1973,-6.6469,-7.12,-7.6558,-7.7054,-7.6349,-7.4833,-7.4807,-7.4022,-7.1722,-7.1853,-7.248,-7.3369,-7.4101,-7.5016,-7.6166,-7.6218,-7.5669,-7.4441,-7.3317,-7.2245,-7.1173,-7.0285,-6.9657,-6.9318,-6.9004,-6.8403,-6.7592,-6.7253,-6.6338,-6.4979,-6.4404,-6.3698,-6.2888,-6.2313,-6.1894,-6.1502,-6.0445,-5.9799,-5.931,-5.86,-5.7996,-5.7595,0.0,0.0,0.0,0.0,0.0,0.0,0.0,0.0,0.0,0.0,0.0,0.0,0.0,0.0,0.0,0.0,0.0,0.0,0.0,0.0,-4.7152,-4.9717,-4.8775,-4.8955,-5.0661,-4.9583,-5.0421,-5.3294,-5.3862,-5.4931,-5.6497,-5.85,-5.9037,-5.8407,-6.0452,-6.2002,-6.3079,-6.3079,-6.1762,-5.9458,-5.7034,-5.4281,-5.1344,0.0,-4.6339,-4.5138,-4.3389,-4.3125,-4.4017,-4.7039,-4.8426,-4.9401,-5.2354,-5.4863,-5.7364,-6.0539,-6.3223,-6.5999,-6.9802,-7.3591,-7.6737,-7.7096,-7.6057,-7.3814,-6.9794,-6.5628,-6.0718,-5.4262,-5.1727,-5.0028,-4.7885,-4.9191,-5.2433,-5.8279,-6.2234,-6.7096,-7.4153,-7.4676,-7.4963,-7.6636,-7.6035,-7.5408,-7.5251,-7.4702,-7.4571,-7.5094,-7.4441,-7.4414,-7.5329,-7.5434,-7.5172,-7.4467,-7.2977,-7.1382,-6.971,-6.9213,-6.8926,-6.8764,-6.8764,-6.822,-6.7096,-6.7096,-6.6103,-6.4378,-6.3881,-6.3018,-6.1921,-6.145,-6.1189,-6.1006,-5.9986,-5.9803,-5.9986,-5.8993,-5.8362,-5.7927,0.0,0.0,0.0,0.0,0.0,0.0,0.0,0.0,0.0,0.0,-4.8656,-4.7309,0.0,0.0,0.0,0.0,0.0,0.0,0.0,0.0,0.0,-4.7788,-4.7608,-4.7638,-4.7967,-4.7758,-4.7938,-4.8506,-4.8626,-4.9089,-4.9931,-5.0359,-5.07,-5.1137,-5.2013,-5.2557,-5.2767,-5.2767,-5.2498,-5.1989,-5.102,-4.9988,-4.8925,-4.8268,0.0,0.0,-4.3491,-4.2351,-4.2811,-4.9783,-5.2291,-5.3086,-5.6432,-5.9072,-6.1927,-6.6788,-6.8519,-6.9881,-7.4993,-7.8263,-8.0279,-8.0277,-7.7315,-7.3451,-6.9703,-6.2551,0.0,-5.1335,-4.8068,-4.5532,-4.4173,-4.6917,-5.1256,-5.7076,-6.2051,-6.7828,-7.5277,-7.6218,-7.661,-7.7891,-7.8257,-7.8048,-7.7107,-7.6505,-7.6218,-7.6323,-7.4885,-7.3866,-7.3578,-7.4022,-7.3604,-7.2062,-7.1722,-7.0964,-6.971,-6.9605,-6.9318,-6.8764,-6.8764,-6.822,-6.7096,-6.7096,-6.5894,-6.3829,-6.3724,-6.3018,-6.1973,-6.1868,-6.1555,-6.111,-6.0901,-6.0274,-5.949,-5.9307,-5.8843,-5.8381,0.0,0.0,0.0,0.0,0.0,0.0,0.0,0.0,-5.0661,-5.4341,-5.3114,-5.1259,0.0,0.0,0.0,0.0,0.0,0.0,0.0,0.0,0.0,0.0,-4.7309,-4.7309,-4.7309,-4.7309,-4.7489,-4.7818,0.0,-4.7638,-4.8267,-4.7938,-4.7938,-4.8267,-4.8566,-4.8895,-4.9224,-4.9224,-4.9224,-4.9194,-4.8895,-4.8356,-4.7788,0.0,0.0,0.0,-4.4097,-4.3636,-4.4547,-4.9858,-5.3225,-5.6133,-6.156,-6.3894,-6.566,-7.0932,-7.2668,-7.3979,-7.843,-8.1376,-8.2843,-8.1794,-7.7944,-7.2814,-6.6646,0.0,0.0,-4.7009,-4.4565,-4.3154,-4.2291,-4.5454,-4.9557,-5.3818,-5.7843,-6.3384,-7.1827,-7.2768,-7.3996,-7.7865,-7.857,-7.8518,-7.7969,-7.6845,-7.614,-7.614,-7.4519,-7.3683,-7.4022,-7.3447,-7.2454,-7.1017,-7.0677,-7.0102,-6.9265,-6.9239,-6.9108,-6.8764,-6.8764,-6.8246,-6.7122,-6.7122,-6.6024,-6.4116,-6.4116,-6.3123,-6.1529,-6.1529,-6.1189,-6.0614,-6.0326,-6.0039,-5.9777,-5.9464,-5.8993,-5.8452,0.0,0.0,0.0,0.0,0.0,0.0,0.0,-5.2516,-5.3414,-5.889,-5.7962,-5.5748,-5.2995,-4.9972,-4.7908,0.0,0.0,0.0,0.0,0.0,0.0,0.0,0.0,0.0,-4.7309,0.0,0.0,-4.8087,-4.7549,0.0,0.0,0.0,0.0,0.0,-4.7309,-4.7578,-4.8087,-4.8087,-4.8087,0.0,0.0,-4.7758,0.0,0.0,0.0,0.0,0.0,-4.5072,-4.6154,-4.9623,-5.2827,-5.666,-6.3914,-6.6835,-6.8705,-7.3645,-7.5838,-7.7529,-8.1406,-8.3724,-8.4645,-8.2788,-7.7986,-7.1602,-6.3494,-5.6363,0.0,-4.3493,-4.2002,-4.169,-4.1376,-4.4041,-4.744,-5.0551,-5.3478,-5.8497,-6.7514,-6.8926,-7.1252,-7.7237,-7.8178,-7.8309,-7.8309,-7.6976,-7.6035,-7.5904,-7.4284,-7.3604,-7.431,-7.3055,-7.1775,-7.0624,-7.0128,-6.9553,-6.8764,-6.8764,-6.8764,-6.8764,-6.8716,-6.8194,-6.7305,-6.707,-6.6129,-6.4717,-6.4587,-6.3306,-6.1293,-6.1293,-6.0953,-6.0378,-5.9908,-5.9934,-6.0169,-5.9725,-5.9098,-5.8452,0.0,0.0,0.0,0.0,0.0,0.0,0.0,-5.2606,-5.5059,-6.3318,-6.1164,-5.8501,-5.7603,-5.3533,-4.9912,0.0,0.0,0.0,0.0,0.0,0.0,0.0,0.0,0.0,0.0,0.0,0.0,-4.7399,-4.7339,0.0,0.0,0.0,0.0,0.0,0.0,-4.7339,-4.7399,-4.7399,0.0,0.0,0.0,0.0,0.0,0.0,0.0,0.0,0.0,-4.511,-4.527,-5.0702,-5.1775,-5.2152,-5.944,-6.531,-7.0408,-7.4798,0.0,0.0,-8.4854,-8.5956,-8.5388,-8.3863,-7.7342,-6.9447,-6.2549,0.0,-4.6785,-4.2992,-4.1324,-4.0723,-4.1219,-4.2474,-4.4722,-4.8669,-5.1753,-5.6484,-6.4639,-6.7985,-7.1409,-7.6192,-7.7682,-7.8309,-7.8309,-7.7708,-7.7081,-7.6558,-7.4911,-7.3526,-7.2585,-7.2402,-7.1775,-7.0624,-7.0546,-6.9971,-6.8764,-6.8764,-6.8764,-6.8764,-6.8324,-6.8011,-6.788,-6.6834,-6.5972,-6.5266,-6.477,-6.3541,-6.1894,-6.1894,-6.1555,-6.1032,-6.098,-6.0666,-6.0222,-6.0169,-5.9464,-5.8523,0.0,0.0,0.0,0.0,0.0,0.0,0.0,-5.2456,-5.4521,-6.4336,-6.2869,-6.0954,-6.1104,-5.7304,-5.2755,0.0,0.0,0.0,0.0,0.0,0.0,0.0,0.0,0.0,0.0,0.0,-4.7309,-4.7309,-4.7309,0.0,0.0,0.0,0.0,0.0,0.0,-4.7309,-4.7309,-4.7309,0.0,0.0,0.0,0.0,0.0,0.0,0.0,0.0,0.0,0.0,-4.6459,-4.8689,-5.0074,-5.1362,-5.425,-5.8667,-6.4197,-7.1482,-7.542,-7.8789,-8.4981,-8.7133,-8.7024,-8.4887,-7.7548,-6.9108,-6.201,0.0,-4.6325,-4.2441,-4.0984,-4.0592,-4.1219,-4.169,-4.2735,-4.5062,-4.6055,-4.8948,-5.6055,-5.8903,-6.317,-7.1024,-7.2977,-7.4885,-7.8021,-7.6871,-7.5669,-7.5094,-7.4388,-7.35,-7.2376,-7.1644,-7.0886,-7.0076,-6.9736,-6.9318,-6.8764,-6.8764,-6.8664,-6.8324,-6.8455,-6.7958,-6.6965,-6.72,-6.6599,-6.5371,-6.5136,-6.3881,-6.1973,-6.1973,-6.1424,-6.0588,-6.0588,-6.0431,-6.0222,-6.0222,-5.949,-5.8549,0.0,0.0,0.0,0.0,0.0,-4.6352,-5.3264,-5.2665,-5.479,-6.4186,-6.3468,-6.2361,-6.3019,-5.88,-5.4072,-4.9434,0.0,0.0,0.0,0.0,0.0,0.0,0.0,0.0,0.0,0.0,-4.7309,-4.7309,-4.7309,-4.7309,0.0,0.0,-4.7309,-4.7309,0.0,0.0,0.0,0.0,0.0,0.0,0.0,0.0,0.0,0.0,0.0,0.0,0.0,0.0,0.0,0.0,0.0,-5.0062,-5.0062,-5.2576,-5.7363,-6.6789,-7.2451,-7.699,-8.324,-8.6329,-8.7197,-8.4743,-7.7186,-6.862,0.0,0.0,-4.5942,-4.2468,-4.0893,-4.0357,-4.0932,-4.1036,-4.145,-4.2726,-4.2927,-4.509,-5.1152,-5.3779,-5.7957,-6.6052,-6.8246,-7.0964,-7.58,-7.5748,-7.5094,-7.4336,-7.4101,-7.3421,-7.2114,-7.1121,-7.0311,-6.971,-6.9318,-6.9004,-6.8764,-6.8764,-6.856,-6.7985,-6.822,-6.7697,-6.6547,-6.7017,-6.6652,-6.5632,-6.5475,-6.409,-6.1973,-6.1973,-6.1267,-6.0222,-6.0222,-6.0222,-6.0222,-6.0222,-5.949,-5.8601,0.0,0.0,0.0,0.0,0.0,0.0,0.0,-5.3324,-5.6526,-6.3169,-6.2899,-6.2361,-6.3019,-5.7184,-5.3204,-5.3114,0.0,0.0,0.0,0.0,0.0,0.0,0.0,0.0,0.0,0.0,-4.7309,-4.7309,-4.7309,-4.7309,-4.7309,-4.7309,-4.7309,-4.7309,0.0,0.0,0.0,0.0,0.0,0.0,0.0,0.0,0.0,0.0,0.0,0.0,0.0,0.0,0.0,0.0,0.0,0.0,0.0,-4.8267,-5.1336,-6.1194,-6.8764,-7.4958,-7.9597,-8.3247,-8.5252,-8.3277,-7.5856,-6.7558,0.0,-5.2814,-4.4995,-4.3142,-4.1085,-3.9782,-4.0331,-4.0435,-4.0935,-4.2517,-4.4261,-4.719,-5.2332,-5.5552,-5.8758,-6.2388,-6.4404,-6.7017,-7.1069,-7.4571,-7.6113,-7.499,-7.4336,-7.3238,-7.1513,-7.0886,-7.0311,-6.971,-6.9684,-6.9422,-6.8764,-6.8764,-6.856,-6.7985,-6.7383,-6.7122,-6.7015,-6.5946,-6.5737,-6.6233,-6.5632,-6.409,-6.1973,-6.1973,-6.1267,-6.0222,-6.0222,-6.0222,-6.0222,-6.0222,-5.949,-5.8601,0.0,0.0,0.0,0.0,0.0,0.0,0.0,-4.8147,-5.0331,-5.6496,-5.6555,-5.7124,-6.0057,-5.6077,-5.3174,-5.3174,0.0,0.0,0.0,0.0,0.0,0.0,0.0,0.0,0.0,0.0,-4.7967,-4.9269,-4.9269,-4.9508,-4.9972,-4.9523,-4.8835,-4.7967,-4.7489,-4.7309,0.0,0.0,0.0,0.0,0.0,0.0,0.0,0.0,0.0,0.0,0.0,0.0,0.0,0.0,0.0,0.0,0.0,0.0,0.0,-5.3832,-6.0894,-6.7837,-7.1128,-7.4091,-7.5557,-7.2714,-6.7093,-6.1204,-5.6848,-5.0685,-4.526,-4.3224,-4.1632,-4.0514,-4.0402,-4.0409,-4.1083,-4.3199,-4.5352,-4.7608,-5.0096,-5.4539,-5.9062,-6.3031,-6.9534,-7.3996,-7.4885,-7.5591,-7.5695,-7.4963,-7.397,-7.282,-7.1461,-7.0886,-7.0311,-6.971,-6.9318,-6.903,-6.8764,-6.8764,-6.835,-6.7383,-6.7592,-6.7096,-6.5946,-6.6364,-6.6233,-6.5606,-6.4639,-6.3358,-6.1921,-6.111,-6.0326,-5.9673,-6.0065,-5.9986,-5.9673,-6.0065,-5.949,-5.8601,0.0,0.0,0.0,0.0,0.0,0.0,0.0,-4.6052,-4.7848,-5.1828,-5.2187,-5.3593,-5.7573,-5.3803,-5.1558,-5.3054,0.0,0.0,0.0,0.0,0.0,0.0,0.0,0.0,0.0,-4.7549,-4.8895,-5.1349,-5.1858,-5.2576,-5.3443,-5.3245,-5.1858,-4.9374,-4.8955,-4.8237,0.0,0.0,0.0,0.0,0.0,0.0,-4.6121,0.0,0.0,0.0,0.0,0.0,0.0,0.0,0.0,0.0,0.0,0.0,0.0,0.0,-5.4431,-6.0146,-6.4545,-6.7657,-6.9183,-6.7119,-6.2705,-5.8,-5.4959,-4.9977,-4.5487,-4.3864,-4.2194,-4.0962,-4.0844,-4.052,-4.0973,-4.3199,-4.4965,-4.6846,-4.8976,-5.3259,-5.8081,-6.3172,-7.0347,-7.4807,-7.465,-7.5303,-7.5382,-7.4624,-7.3474,-7.2402,-7.1461,-7.0677,-7.0076,-6.971,-6.9135,-6.8764,-6.8764,-6.8764,-6.8246,-6.7096,-6.7462,-6.6861,-6.5397,-6.6129,-6.5946,-6.5005,-6.409,-6.2914,0.0,-6.0849,-6.0222,-5.9751,-6.0326,-6.0195,-5.9751,-6.0352,-5.9699,-5.8627,0.0,0.0,0.0,0.0,0.0,0.0,0.0,0.0,0.0,0.0,-4.9553,-5.1379,-5.5119,-5.0601,-4.8775,0.0,0.0,0.0,0.0,0.0,0.0,0.0,0.0,0.0,0.0,-4.8057,-5.0032,-5.3324,-5.467,-5.5987,-5.7334,-5.7902,-5.5748,-5.1349,-5.1259,-4.9763,0.0,0.0,0.0,0.0,-4.7496,-4.6602,0.0,0.0,0.0,0.0,0.0,0.0,0.0,0.0,0.0,0.0,0.0,0.0,0.0,0.0,0.0,0.0,0.0,-6.2989,-6.4934,-6.4784,-6.1044,-5.6944,-5.5059,-5.0124,0.0,-4.4935,-4.2862,-4.1279,-4.153,-4.0845,-4.089,-4.3027,-4.3892,-4.5573,-4.9158,-5.2517,-5.7032,-6.3507,-6.8141,-7.1043,-7.1539,-7.397,-7.5068,-7.397,-7.2872,-7.1958,-7.1304,-7.0285,-6.9684,-6.9631,-6.9108,-6.8764,-6.8764,-6.8711,-6.822,-6.7096,-6.7044,-6.6442,-6.5371,-6.5345,-6.5031,-6.4482,-6.3803,-6.26,-6.111,-6.098,-6.0614,-6.0169,-6.0771,-6.0666,-6.0222,-6.0849,-6.0013,-5.8732,0.0,0.0,0.0,0.0,0.0,0.0,0.0,0.0,0.0,0.0,-4.683,-4.7744,-4.9224,-4.8147,-4.7668,0.0,0.0,0.0,0.0,0.0,0.0,0.0,0.0,0.0,0.0,-4.9194,-5.1409,-5.473,-5.6017,-5.7573,-5.9368,-5.9039,-5.6675,-5.2665,-5.1678,-4.9763,-4.7309,0.0,0.0,0.0,-4.6223,-4.6014,0.0,0.0,0.0,0.0,-4.6077,-4.5958,0.0,0.0,0.0,0.0,0.0,0.0,0.0,0.0,-4.7878,-4.8716,-5.093,0.0,-5.4341,-5.2815,-5.1528,-5.0331,0.0,-4.7435,-4.557,-4.4624,-4.3171,-4.2139,-4.2477,-4.1791,-4.2429,-4.6163,-4.7731,-4.9553,-5.2603,-5.8699,-6.4509,-6.9075,-7.1722,-7.3264,-7.3369,-7.3578,-7.3447,-7.2742,-7.201,-7.1173,-7.0154,-6.984,-6.9501,-6.9056,-6.8899,-6.8764,-6.8764,-6.8403,-6.7828,-6.7096,-6.6678,-6.6103,-6.5371,-6.4926,-6.4665,-6.443,-6.2548,-6.1502,-6.1006,-5.9673,-5.9045,-5.8967,-5.9542,-5.9699,-5.9647,-6.0222,-5.9882,-5.9255,0.0,0.0,0.0,0.0,0.0,0.0,0.0,0.0,0.0,0.0,0.0,0.0,0.0,0.0,0.0,0.0,0.0,0.0,0.0,0.0,0.0,0.0,0.0,0.0,-4.879,-5.0032,-5.2606,-5.6526,-5.8141,-6.0116,-6.2361,-6.2301,-5.9338,-5.3982,-5.081,-4.8626,-4.7266,-4.7126,-4.6769,-4.6243,-4.5758,0.0,0.0,0.0,0.0,0.0,-4.5824,-4.5508,0.0,-4.6562,-4.6679,-4.6334,0.0,0.0,0.0,0.0,-4.7309,-4.7369,-4.7728,-4.9045,-5.0152,-4.9374,-4.8955,-4.8626,-4.8297,-4.7303,-4.6123,-4.4817,-4.3963,-4.3328,-4.2946,-4.2741,-4.3583,-4.6674,-4.8781,-5.1704,-5.6364,-6.1449,-6.6377,-7.0874,-7.248,-7.3526,-7.4336,-7.363,-7.2768,-7.1958,-7.1356,-7.0651,-6.9736,-6.9448,-6.9161,-6.8764,-6.8764,-6.8716,-6.8455,-6.8141,-6.7566,-6.6704,-6.6129,-6.5711,-6.5345,-6.4534,-6.3985,-6.3646,-6.1894,-6.0953,-6.0614,-5.9411,-5.9072,-5.9359,-5.9934,-6.0013,-5.983,-6.0405,-6.0091,-5.9411,0.0,0.0,0.0,0.0,0.0,0.0,0.0,0.0,0.0,0.0,0.0,0.0,0.0,0.0,0.0,0.0,0.0,0.0,0.0,0.0,0.0,0.0,0.0,-4.9719,-4.9898,-5.084,-5.3653,-5.8261,-6.0386,-6.275,-6.5353,-6.6221,-6.263,-5.5269,-5.0481,-4.7967,-4.7296,-4.7005,-4.6845,-4.672,-4.5741,0.0,0.0,0.0,0.0,0.0,0.0,0.0,0.0,-4.5982,-4.6575,-4.6783,-4.67,0.0,0.0,0.0,0.0,0.0,-4.7788,-4.8805,-4.9733,-4.9717,-4.9464,-4.9149,-4.903,-4.7866,-4.6447,-4.4993,-4.4744,-4.4456,-4.3185,-4.3979,-4.5361,-4.6886,-4.9651,-5.3856,-6.0162,-6.299,-6.6133,-7.0807,-7.201,-7.2977,-7.4388,-7.35,-7.2402,-7.1356,-7.0755,-7.0206,-6.9605,-6.9108,-6.8764,-6.8764,-6.8769,-6.8429,-6.7854,-6.7854,-6.7279,-6.6129,-6.5528,-6.5214,-6.5083,-6.4038,-6.3227,-6.2626,-6.1476,-6.064,-6.0039,-5.9464,-5.9568,-6.0117,-6.0561,-6.0509,-6.0274,-6.0692,-6.0222,-5.9359,0.0,0.0,0.0,0.0,0.0,0.0,0.0,0.0,0.0,0.0,0.0,0.0,0.0,0.0,0.0,0.0,0.0,0.0,0.0,0.0,0.0,0.0,-5.0331,-5.1439,-5.2594,-5.2247,-5.4311,-5.8949,-6.1523,-6.4126,-6.6729,-6.8525,-6.4904,-5.6683,-5.4251,-5.099,-4.7309,-4.7225,-4.7066,-4.6737,-4.602,0.0,0.0,0.0,0.0,0.0,0.0,0.0,0.0,-4.5196,-4.5866,-4.6729,-4.643,0.0,0.0,0.0,0.0,0.0,-5.0002,-5.1169,-5.1109,-4.8416,-4.8087,-4.8297,-4.7728,-4.6133,-4.4702,-4.4432,-4.4404,-4.421,-4.3719,-4.6695,-4.9571,-5.0662,-5.4977,-5.9659,-6.3975,-6.6178,-6.8306,-7.105,-7.2323,-7.2898,-7.2716,-7.2062,-7.1409,-7.0755,-7.018,-6.9579,-6.9004,-6.8816,-6.8764,-6.8764,-6.8377,-6.7828,-6.7227,-6.7227,-6.6652,-6.5528,-6.4926,-6.4404,-6.3907,-6.3254,-6.2652,-6.2025,-6.0875,-6.0039,-5.9464,-5.8889,-5.8993,-5.9464,-5.9072,-5.9437,-6.0169,-5.9777,-5.9516,-5.9359,0.0,0.0,0.0,0.0,0.0,0.0,0.0,0.0,0.0,0.0,0.0,0.0,0.0,0.0,0.0,0.0,0.0,0.0,0.0,0.0,0.0,-5.1828,-5.2157,-5.2725,-5.3713,-5.482,-5.7663,-6.2301,-6.5652,-6.8495,-7.0679,-6.7986,-6.3498,-5.746,-5.4102,-5.081,-4.7774,-4.6693,-4.6633,-4.7155,0.0,0.0,0.0,0.0,0.0,0.0,0.0,0.0,0.0,0.0,-4.4478,-4.5946,-4.5393,0.0,0.0,0.0,0.0,0.0,-4.8775,-4.9853,-5.0193,-4.8362,-4.874,-4.9056,-4.6948,-4.5326,-4.4321,-4.4387,-4.4864,-4.517,-4.5091,-4.9114,-5.3818,-5.7914,-6.0137,-6.255,-6.6018,-6.7106,-6.8509,-7.1103,-7.1853,-7.2454,-7.316,-7.2114,-7.1173,-7.0651,-7.0023,-6.9448,-6.879,-6.8764,-6.869,-6.8403,-6.8115,-6.7566,-6.6652,-6.6338,-6.5737,-6.4926,-6.4351,-6.3933,-6.3646,-6.2757,-6.2051,-6.1476,-6.0927,-6.0195,-5.9333,-5.9072,-5.9124,-5.9333,-5.9072,-5.9307,-5.9725,-5.9464,-5.9359,-5.9307,0.0,0.0,0.0,0.0,0.0,0.0,0.0,0.0,0.0,0.0,0.0,0.0,0.0,0.0,0.0,0.0,0.0,0.0,0.0,0.0,-4.9793,-5.3144,-5.3653,-5.479,-5.6705,-5.856,-6.1912,-6.6879,-7.0829,-7.3702,-7.5377,-6.8884,-6.3408,-5.886,-5.4221,-5.081,-4.8387,-4.6558,-4.6691,-4.7841,0.0,0.0,0.0,0.0,0.0,0.0,0.0,0.0,0.0,0.0,0.0,0.0,0.0,0.0,0.0,-4.7585,-4.7344,-4.7415,-4.7926,-4.8894,-4.961,-4.8975,-4.9436,-4.9494,-4.7549,-4.5977,-4.5176,-4.5964,-4.6758,-4.7212,-4.6867,-5.146,-5.7424,-6.3915,-6.4594,-6.5205,-6.782,-6.8245,-6.9213,-7.1513,-7.1801,-7.2271,-7.3474,-7.2167,-7.099,-7.0415,-6.984,-6.9318,-6.879,-6.8716,-6.8429,-6.8011,-6.7723,-6.7096,-6.6076,-6.5475,-6.49,-6.4325,-6.375,-6.341,-6.3254,-6.2234,-6.145,-6.0901,-6.0771,-6.0117,-5.9176,-5.9176,-5.9255,-5.9359,-5.9359,-5.9359,-5.9333,-5.9202,-5.9176,-5.9098,0.0,0.0,0.0,0.0,0.0,0.0,0.0,0.0,0.0,0.0,0.0,0.0,0.0,0.0,0.0,0.0,0.0,0.0,0.0,0.0,-4.8955,-5.0405,-5.4012,-5.856,-6.4126,-6.3797,-6.646,-7.2355,-7.6305,-7.8938,-8.0165,-7.418,-6.7956,-6.1613,-5.6974,-5.2785,-4.9105,-4.7746,-4.7911,-4.8909,-4.5567,0.0,0.0,0.0,0.0,0.0,0.0,0.0,0.0,0.0,0.0,0.0,0.0,0.0,-4.6308,-4.7323,-4.7448,-4.7747,-4.9823,-5.0725,-5.0883,-5.0223,-4.9039,-4.8509,-5.0357,-4.8758,-4.765,-5.0347,-5.0999,-5.0632,-4.9179,-5.3796,-5.9775,-6.5782,-6.7866,-6.9133,-7.0204,-7.1286,-7.2193,-7.2898,-7.2977,-7.2846,-7.2454,-7.1356,-7.0415,-6.9814,-6.9239,-6.8816,-6.8764,-6.835,-6.8037,-6.7985,-6.6965,-6.6103,-6.5449,-6.4874,-6.4299,-6.3724,-6.3175,-6.26,-6.2077,-6.145,-6.0849,-6.0248,-5.9725,-5.915,-5.8575,-5.8575,-5.8889,-5.9359,-5.9359,-5.9359,-5.9307,-5.8758,-5.8575,-5.8575,0.0,0.0,0.0,0.0,0.0,0.0,0.0,0.0,0.0,0.0,0.0,0.0,0.0,0.0,0.0,0.0,0.0,0.0,0.0,0.0,-4.9194,-5.2576,-5.494,-5.856,-6.3707,-6.7986,-7.3073,-7.9028,-8.1751,-8.2499,-8.1272,-7.4061,-6.7418,-6.1313,-5.7064,-5.4132,-5.2139,-4.9326,-4.8946,-4.9868,-4.6564,-4.5607,0.0,0.0,0.0,0.0,0.0,0.0,0.0,0.0,-4.1058,-4.3313,-4.393,-4.5441,-4.7107,-4.7847,-4.7391,-4.7043,-4.8741,-4.9829,-5.0445,-4.9857,-5.0282,-5.0782,-5.0614,-4.9655,-4.9864,-5.3451,-5.4191,-5.4944,-5.7277,-5.8941,-6.1881,-6.7752,-6.8794,-6.9429,-7.0893,-7.1801,-7.2506,-7.3055,-7.282,-7.2533,-7.2323,-7.0938,-6.9945,-6.971,-6.8821,-6.8324,-6.8324,-6.7749,-6.7096,-6.639,-6.5946,-6.5266,-6.4325,-6.375,-6.3358,-6.3149,-6.294,-6.2522,-6.1947,-6.1398,-6.0797,-6.0222,-5.9986,-5.9359,-5.8549,-5.8889,-5.9176,-5.9359,-5.9359,-5.9568,-5.9777,-5.8862,-5.8967,-5.9516,0.0,0.0,0.0,0.0,0.0,0.0,0.0,0.0,0.0,0.0,0.0,0.0,0.0,0.0,0.0,0.0,0.0,0.0,-4.7309,-4.7309,-4.8895,-5.2486,-5.47,-5.8321,-6.3588,-7.1009,-7.7113,-8.1841,-8.5492,-8.5282,-8.1332,-7.442,-6.8375,-6.3079,-5.8471,-5.6406,-5.6115,-5.1551,-5.0252,-5.0877,-4.7102,-4.5681,0.0,0.0,0.0,0.0,0.0,0.0,0.0,0.0,-3.9726,-4.1545,-4.2832,-4.4415,-4.6005,-4.6859,-4.6427,-4.5757,-4.6162,-4.7372,-4.8483,-4.8144,-4.9904,-5.1885,-5.2593,-5.2581,-5.3519,-5.7521,-5.8114,-5.9058,-6.2962,-6.2726,-6.362,-6.8697,-6.9453,-6.9866,-7.12,-7.1748,-7.2167,-7.2533,-7.2088,-7.1696,-7.1487,-7.0389,-6.9631,-6.9448,-6.8533,-6.7985,-6.7985,-6.707,-6.6181,-6.5397,-6.5031,-6.4378,-6.341,-6.3018,-6.2652,-6.2287,-6.2287,-6.2077,-6.1685,-6.0927,-6.0352,-5.9934,-5.9751,-5.9228,-5.8549,-5.8941,-5.9202,-5.9333,-5.9176,-5.9437,-5.9856,-5.9072,-5.9281,-5.9908,0.0,0.0,0.0,0.0,0.0,0.0,0.0,0.0,0.0,0.0,0.0,0.0,0.0,0.0,0.0,0.0,0.0,0.0,-4.7309,-4.7309,-4.7908,-4.9239,-5.3054,-5.8231,-6.4784,-7.2684,-7.7771,-7.9866,-8.7048,-8.7197,-8.0644,-7.6006,-7.1727,-6.7657,-6.1792,-5.9877,-6.0663,-5.4309,-5.1856,-5.1816,-4.7119,-4.5484,-4.5573,0.0,0.0,0.0,0.0,0.0,0.0,0.0,-3.8867,-3.8714,-4.3197,-4.3335,-4.2276,-4.409,-4.4449,-4.3939,-4.2343,-4.3357,-4.4962,-4.5195,-4.7399,-5.1072,-5.6996,-5.8025,-5.8953,-6.2929,-6.2931,-6.284,-6.4958,-6.4637,-6.5072,-6.8298,-6.9803,-7.0755,-7.1304,-7.1382,-7.1382,-7.1382,-7.0912,-7.0363,-6.9762,-6.9684,-6.9448,-6.879,-6.8298,-6.7985,-6.7958,-6.6312,-6.5371,-6.5345,-6.4247,-6.3384,-6.2809,-6.2809,-6.2234,-6.111,-6.111,-6.111,-6.1084,-5.9908,-5.9359,-5.9333,-5.8758,-5.8523,-5.8523,-5.8523,-5.8862,-5.9307,-5.8758,-5.8862,-5.9385,-5.9359,-5.9385,-5.9464,0.0,0.0,0.0,0.0,0.0,0.0,0.0,0.0,0.0,0.0,0.0,0.0,0.0,0.0,0.0,0.0,0.0,0.0,-4.7266,-4.7309,-4.7698,-4.8536,-5.2396,-5.5418,-5.7363,-6.655,-7.5467,-8.3965,-8.4714,-8.1961,-7.5886,-7.2654,-6.9004,-6.5054,-6.2764,-6.1028,-5.9418,-5.382,-5.1818,-5.2162,-4.9416,-4.7769,-4.6888,0.0,0.0,0.0,0.0,0.0,0.0,0.0,0.0,0.0,-4.2717,-4.3823,-4.4466,-4.4948,-4.4693,-4.4079,-4.3277,-4.3832,-4.5135,-4.715,-5.0696,-5.4769,-5.9197,-5.9542,-6.0414,-6.5633,-6.6133,-6.5836,-6.6665,-6.6767,-6.6991,-6.7735,-6.9664,-7.0893,-7.0271,-7.0572,-7.0834,-7.0834,-7.0311,-6.9893,-6.971,-6.9344,-6.903,-6.8764,-6.7906,-6.72,-6.6808,-6.5528,-6.4221,-6.3018,-6.2652,-6.1999,-6.1006,-6.1006,-6.0823,-6.0483,-6.0065,-6.0091,-6.0457,-5.9699,-5.9359,-5.9333,-5.8758,-5.8523,-5.8549,-5.8941,-5.9202,-5.9385,-5.962,-5.983,-5.9908,-5.9516,-5.9882,-6.0561,0.0,0.0,0.0,0.0,0.0,0.0,0.0,0.0,0.0,0.0,-4.4726,-4.4948,0.0,0.0,0.0,0.0,0.0,0.0,0.0,-4.7309,-4.7728,-4.8626,-5.1708,-5.488,-5.8022,-6.5742,-7.2146,-7.7083,-7.9058,-7.7263,-7.1966,-7.2744,-7.1248,-6.8046,-6.9654,-6.7682,-6.2916,-5.8977,-5.5622,-5.277,-5.1644,-5.0171,-4.849,0.0,0.0,0.0,0.0,0.0,0.0,0.0,0.0,0.0,-4.1244,-4.24,-4.3302,-4.2821,-4.2527,-4.2261,-4.1772,-4.2896,-4.4837,-4.7452,-5.1861,-5.6793,-6.1603,-6.3156,-6.4665,-6.8847,-6.8711,-6.7987,-6.8403,-6.804,-6.7711,-6.7801,-6.9454,-7.0488,-6.98,-6.9997,-7.0232,-7.0232,-6.971,-6.9344,-6.9344,-6.8847,-6.8507,-6.8507,-6.72,-6.6181,-6.5632,-6.4273,-6.294,-6.1685,-6.1398,-6.0927,-6.0222,-6.0222,-6.0117,-5.9882,-5.9516,-5.9437,-5.9516,-5.9176,-5.9019,-5.8993,-5.8653,-5.8523,-5.8549,-5.8889,-5.9019,-5.9098,-5.9647,-5.9882,-5.9908,-6.0013,-6.0509,-6.1058,0.0,0.0,-4.0268,-4.025,0.0,0.0,0.0,0.0,0.0,0.0,-4.4464,-4.5258,0.0,0.0,0.0,0.0,0.0,0.0,0.0,0.0,-4.7938,-4.9419,-5.1678,-5.6376,-6.3767,-6.7867,-6.7837,-6.3558,-7.1308,-7.2804,-6.8585,-7.4689,-7.6275,-7.421,-7.8973,-7.661,-6.8831,-6.637,-6.0649,-5.3332,-5.3568,-5.2259,-5.008,-4.969,0.0,0.0,0.0,0.0,0.0,0.0,0.0,0.0,-3.9442,-4.0043,-4.0331,-3.9076,-3.9181,-3.9573,-3.9076,-4.1223,-4.4289,-4.7144,-5.2253,-5.8171,-6.4323,-6.7775,-7.0154,-7.1748,-7.0585,-6.9481,-6.9991,-6.8778,-6.7912,-6.8374,-6.9261,-6.9774,-6.9631,-6.9579,-6.9553,-6.9553,-6.903,-6.869,-6.8607,-6.8168,-6.7828,-6.7828,-6.6207,-6.4979,-6.4404,-6.2809,-6.1607,-6.098,-6.0431,-6.0117,-6.0065,-6.0065,-5.9803,-5.9281,-5.9281,-5.9019,-5.8523,-5.8523,-5.8523,-5.8523,-5.8523,-5.8523,-5.8523,-5.8523,-5.8523,-5.8575,-5.9202,-5.9437,-5.9594,-6.0718,-6.1136,-6.1189,0.0,0.0,-4.145,-4.1302,0.0,0.0,0.0,0.0,0.0,0.0,0.0,0.0,0.0,0.0,0.0,0.0,0.0,0.0,0.0,0.0,-4.8356,-5.069,-5.5688,-5.9937,-6.3199,-6.272,-6.1672,-6.0146,-6.6041,-6.7358,-6.4515,-7.1996,-7.5198,-7.4749,-7.5808,-7.3035,-6.7087,-5.9972,-5.5307,-5.277,-5.3881,-5.2426,-4.9794,-5.1072,-4.8955,0.0,0.0,0.0,0.0,0.0,0.0,0.0,-3.9917,-4.0618,-4.1376,-3.9311,-3.9442,-4.0305,-4.0671,-4.192,-4.4571,-5.0586,-5.7791,-6.4164,-6.7305,-6.8926,-6.9814,-7.018,-7.0618,-7.0657,-6.9952,-7.0123,-7.0072,-6.8878,-6.9958,-7.0524,-6.9171,-6.8638,-6.835,-6.835,-6.7828,-6.7488,-6.7514,-6.6991,-6.6652,-6.6652,-6.5031,-6.3803,-6.3227,-6.1999,-6.0823,-5.9777,-5.962,-5.9333,-5.8889,-5.8889,-5.881,-5.8706,-5.8706,-5.8627,-5.8523,-5.8523,-5.8523,-5.8523,-5.8523,-5.8523,-5.8523,-5.8523,-5.8523,-5.8601,-5.9647,-6.0039,-6.0117,-6.0849,-6.1398,-6.1738,0.0,0.0,0.0,0.0,0.0,0.0,0.0,0.0,0.0,0.0,0.0,0.0,0.0,0.0,0.0,0.0,-4.7022,0.0,0.0,0.0,0.0,-5.3862,-5.8231,-6.0625,-6.0715,-5.9668,-5.7902,-5.5329,-5.9039,-6.1642,-6.3228,-7.053,-7.4779,-7.6365,-7.7885,-7.415,-6.6394,-6.2535,-5.8202,-5.4064,-5.5954,-5.4879,-5.2194,-5.2199,-4.9523,-4.5538,-4.3663,0.0,0.0,0.0,0.0,0.0,0.0,0.0,-3.9782,-3.7978,-3.8635,-4.0027,-4.0398,-4.307,-4.7592,-5.5206,-6.1267,-6.5998,-6.8324,-6.9291,-6.9684,-6.9684,-7.018,-7.0389,-6.9814,-6.97,-6.9447,-6.8595,-6.8881,-6.8995,-6.8067,-6.7749,-6.7566,-6.7566,-6.7044,-6.6808,-6.7096,-6.6103,-6.5449,-6.5449,-6.3829,-6.2496,-6.1633,-6.0744,-5.9882,-5.8993,-5.8967,-5.881,-5.8523,-5.8523,-5.8523,-5.8523,-5.8523,-5.8523,-5.8523,-5.8523,-5.8523,-5.8523,-5.8523,-5.8523,-5.8523,-5.8523,-5.8523,-5.8627,-5.9777,-6.0222,-6.0326,-6.1215,-6.1711,-6.1894,0.0,0.0,0.0,0.0,0.0,0.0,0.0,0.0,0.0,0.0,0.0,0.0,0.0,0.0,-4.6992,0.0,0.0,0.0,0.0,0.0,0.0,0.0,-5.9159,-5.9937,-5.8501,-5.7693,0.0,-5.1917,-5.3443,-5.7423,-6.3737,-6.9991,-7.4779,-7.825,-8.0315,-7.5814,-6.6667,-6.6034,-6.1557,-5.5025,-5.707,-5.6314,-5.3768,-5.2278,-4.9314,-4.5717,-4.4007,-4.2709,-4.1849,-4.1975,0.0,0.0,0.0,0.0,-3.7795,-3.6488,-3.7395,-3.898,-3.9575,-4.4573,-5.1403,-5.905,-6.3326,-6.6266,-6.8422,-6.9316,-6.9658,-6.9658,-6.9564,-6.9527,-6.9422,-6.8533,-6.7802,-6.7697,-6.7279,-6.6913,-6.6808,-6.6704,-6.6652,-6.6652,-6.6155,-6.6024,-6.6469,-6.5031,-6.409,-6.409,-6.2496,-6.111,-6.0117,-5.9516,-5.8993,-5.8523,-5.8523,-5.8523,-5.8523,-5.8523,-5.8523,-5.8523,-5.8523,-5.8523,-5.8523,-5.8523,-5.8523,-5.8523,-5.8523,-5.8523,-5.8523,-5.8523,-5.8523,-5.8627,-5.9777,-6.0222,-6.0352,-6.1529,-6.1973,-6.1894,0.0,0.0,0.0,0.0,0.0,0.0,0.0,0.0,0.0,0.0,-4.6091,-4.6005,0.0,0.0,0.0,-4.8729,-4.7711,0.0,0.0,0.0,0.0,0.0,-5.7124,-5.8919,-5.9787,-5.5897,0.0,-5.467,-5.4371,-5.8112,-6.5712,-7.062,-7.5288,-7.9417,-7.6425,-7.2678,-6.8127,-6.0241,-5.5266,-5.2645,-5.2968,-5.1553,-4.9237,-4.9568,-4.7549,-4.4575,-4.4881,-4.4162,-4.2983,-4.2619,-4.2244,0.0,0.0,0.0,-3.8266,-3.6593,-3.6289,-3.7085,-3.9621,-4.6428,-5.4013,-5.9045,-6.357,-6.7179,-6.8991,-6.9477,-6.9531,-6.9531,-6.9179,-6.8795,-6.8298,-6.7671,-6.7044,-6.6599,-6.6442,-6.6207,-6.5684,-6.5188,-6.4874,-6.4874,-6.4378,-6.4064,-6.4116,-6.3018,-6.2313,-6.2313,-6.0692,-5.9647,-5.949,-5.8941,-5.8601,-5.8523,-5.8523,-5.8523,-5.8523,-5.8523,-5.8523,-5.8523,-5.8523,-5.8523,-5.8523,-5.8523,-5.8523,-5.8523,-5.8523,-5.8523,-5.8523,-5.8523,-5.8523,-5.8627,-5.9777,-6.0222,-6.0352,-6.1529,-6.1973,-6.1973,0.0,0.0,0.0,0.0,0.0,0.0,0.0,0.0,0.0,0.0,0.0,-4.6951,0.0,0.0,0.0,-4.7365,0.0,0.0,0.0,0.0,0.0,0.0,-5.5867,-5.6296,-5.5919,-5.3213,-5.1795,-5.1693,-5.2038,-5.7163,-6.6719,-7.0599,-7.4809,-7.9058,-7.4719,-7.056,-6.6311,-5.9249,-5.5329,-5.3773,-5.2665,-5.1947,-5.1409,-4.9464,-4.7578,-4.5687,-4.3478,-4.2798,-4.2752,-4.1,-4.0695,-4.0695,-3.8576,0.0,0.0,0.0,-3.6532,-3.8006,-4.2808,-4.7001,-5.1413,-5.732,-6.1638,-6.4934,-6.7002,-6.8667,-6.9466,-6.862,-6.7762,-6.7374,-6.8093,-6.6793,-6.5871,-6.647,-6.5291,-6.4378,-6.443,-6.3646,-6.3201,-6.3541,-6.2783,-6.2365,-6.2679,-6.1659,-6.098,-6.098,-5.9986,-5.9228,-5.8915,-5.8653,-5.8366,-5.8052,-5.8026,-5.7895,-5.7556,-5.7556,-5.7712,-5.8026,-5.8026,-5.8209,-5.8523,-5.8523,-5.8523,-5.8523,-5.8523,-5.8523,-5.8549,-5.8862,-5.8993,-5.9098,-6.0274,-6.0718,-6.0823,-6.1659,-6.1973,-6.2025,0.0,0.0,0.0,0.0,0.0,0.0,0.0,0.0,0.0,0.0,0.0,0.0,0.0,0.0,0.0,0.0,-4.7509,0.0,0.0,0.0,0.0,0.0,0.0,0.0,-5.1244,-5.0423,-4.9544,-4.8696,-5.0572,-5.7059,-6.7808,-7.1325,-7.5736,-8.0584,-7.5796,-7.1188,-6.664,-6.0475,-5.7304,-5.6166,-5.2965,-5.2097,-5.2426,-4.9793,-4.8057,-4.6629,-4.3444,-4.2639,-4.2697,-4.0441,-3.9964,-4.0167,-3.9017,-3.7717,0.0,0.0,0.0,-3.8351,-4.3537,-4.5579,-4.7754,-5.4105,-5.8858,-6.259,-6.4861,-6.7547,-6.9135,-6.7585,-6.6169,-6.5647,-6.6899,-6.5382,-6.4214,-6.5146,-6.3672,-6.2496,-6.2757,-6.2077,-6.1685,-6.2104,-6.1398,-6.1058,-6.1476,-6.0614,-6.0013,-6.0013,-5.9464,-5.8967,-5.8523,-5.8523,-5.8261,-5.7756,-5.773,-5.7373,-5.6824,-5.6798,-5.7085,-5.773,-5.773,-5.7948,-5.8523,-5.8523,-5.8523,-5.8523,-5.8523,-5.8523,-5.8549,-5.8967,-5.9228,-5.9464,-6.0483,-6.098,-6.1189,-6.1764,-6.1973,-6.2025,0.0,0.0,0.0,0.0,0.0,0.0,0.0,0.0,0.0,0.0,0.0,0.0,-4.9553,-4.8019,-4.7638,-4.9271,-4.7381,-4.6785,-4.8343,-4.9145,0.0,0.0,0.0,0.0,-4.7461,-4.776,-4.7971,-4.8072,-5.177,-5.8923,-6.9286,-7.3644,-7.9477,-8.603,-8.0764,-7.6215,-7.1966,-6.3498,-5.9907,-5.9279,-5.2905,-4.9643,-4.8716,-4.9687,-4.8521,-4.6399,-4.6791,-4.5577,-4.3618,-4.2653,-4.1708,-4.0707,-3.9195,-3.8292,-3.7691,0.0,0.0,0.0,-3.862,-4.1165,-4.4382,-4.9113,-5.5414,-6.1147,-6.3497,-6.645,-6.8274,-6.6763,-6.4807,-6.3424,-6.355,-6.2798,-6.1996,-6.1446,-6.1241,-6.1032,-6.0483,-6.0352,-6.0326,-6.0352,-6.03,-6.0274,-6.03,-5.9751,-5.9411,-5.9411,-5.8889,-5.8549,-5.8523,-5.8523,-5.8261,-5.7756,-5.773,-5.7373,-5.6824,-5.6798,-5.7085,-5.773,-5.773,-5.7948,-5.8523,-5.8523,-5.8523,-5.8523,-5.8523,-5.8523,-5.8523,-5.8549,-5.8862,-5.9437,-6.0039,-6.0614,-6.1189,-6.1764,-6.1973,-6.1973,0.0,0.0,0.0,0.0,0.0,0.0,0.0,0.0,0.0,0.0,0.0,0.0,0.0,-4.7544,-4.6688,-4.6878,-4.5853,-4.6024,-4.7989,-4.7778,0.0,0.0,0.0,0.0,-4.5536,-4.6051,-4.6031,-4.5388,-4.8254,-5.4743,-6.4569,-6.9784,-7.581,-8.211,-7.8519,-7.5198,-7.1697,-6.266,-5.8112,-5.6585,-5.2516,-5.1079,-5.1199,-4.9134,-4.8835,-4.9134,-4.6624,-4.4923,-4.3618,-4.2144,-4.085,-3.9654,-3.8563,-3.7795,-3.7142,-3.6201,-3.5757,-3.5966,-3.7717,-3.8945,-4.1054,-4.6673,-5.108,-5.4884,-5.8216,-6.1487,-6.3593,-6.2449,-6.1876,-6.1453,-6.0935,-6.0796,-6.1138,-6.1916,-6.0849,-6.0039,-6.0195,-5.9594,-5.9255,-5.962,-5.9359,-5.9124,-5.9124,-5.8941,-5.881,-5.881,-5.8287,-5.8131,-5.8497,-5.7817,-5.732,-5.7111,-5.6745,-5.6275,-5.5726,-5.5726,-5.5987,-5.6536,-5.6928,-5.7425,-5.7974,-5.834,-5.8523,-5.8523,-5.8523,-5.8523,-5.8549,-5.8915,-5.9411,-5.996,-6.0561,-6.1163,-6.1685,-6.1894,-6.1973,-6.2025,0.0,0.0,0.0,0.0,0.0,-4.4435,-4.6876,0.0,0.0,0.0,0.0,0.0,0.0,0.0,-4.6545,-4.5481,-4.497,-4.5475,-4.7225,-4.6558,-4.6083,-4.6011,0.0,0.0,-4.4103,-4.5026,-4.4989,-4.3912,-4.6517,-5.2294,-6.0955,-6.6389,-7.2591,-7.8968,-7.5258,-7.421,-7.4689,-6.655,-6.1942,-5.9727,-5.5059,-5.3713,-5.4281,-5.2336,-5.2127,-5.2449,-4.904,-4.679,-4.4944,-4.2279,-4.0464,-3.9226,-3.8635,-3.7926,-3.7116,-3.6149,-3.5861,-3.607,-3.7037,-3.7456,-3.8976,-4.4622,-4.7565,-5.013,-5.4185,-5.7338,-5.9215,-5.8574,-5.888,-5.9143,-5.8596,-5.881,-5.9481,-6.0703,-5.9546,-5.8653,-5.9019,-5.8418,-5.8078,-5.847,-5.8183,-5.7948,-5.7948,-5.7948,-5.7948,-5.7948,-5.7582,-5.7634,-5.8209,-5.732,-5.6719,-5.651,-5.5935,-5.5465,-5.5099,-5.5099,-5.536,-5.5909,-5.651,-5.7111,-5.7756,-5.8261,-5.8523,-5.8523,-5.8523,-5.8523,-5.8549,-5.9124,-5.9699,-6.0274,-6.0875,-6.1476,-6.1973,-6.1973,-6.1973,-6.2025,0.0,-4.4943,-4.3925,-4.7059,-4.5084,-4.4079,-4.7128,-4.7848,-4.8317,-4.9221,0.0,0.0,0.0,0.0,0.0,-4.5668,-4.5076,-4.5182,-4.5986,-4.566,-4.499,-4.3823,0.0,0.0,-4.3075,-4.4642,-4.491,-4.386,-4.6948,-5.1989,-5.8817,-6.3839,-7.0209,-7.7143,-7.1547,-7.3642,-8.0943,-7.4988,-7.1427,-6.9034,-6.0505,-5.7154,-5.7483,-5.9279,-5.8441,-5.6012,-5.4309,-5.1436,-4.7706,-4.343,-4.1021,-3.9751,-3.9625,-3.8841,-3.7795,-3.7194,-3.7011,-3.6907,0.0,0.0,0.0,-4.2604,-4.5006,-4.7381,-5.1612,-5.3923,-5.516,-5.5264,-5.5752,-5.6219,-5.6626,-5.6719,-5.6876,-5.7451,-5.7137,-5.6798,-5.6798,-5.6798,-5.6798,-5.6798,-5.6798,-5.6798,-5.6798,-5.6798,-5.6798,-5.6798,-5.6798,-5.7033,-5.7678,-5.7085,-5.651,-5.5909,-5.5386,-5.5099,-5.5099,-5.5099,-5.536,-5.5909,-5.651,-5.7111,-5.7756,-5.8261,-5.8523,-5.8523,-5.8523,-5.8523,-5.8549,-5.9098,-5.9699,-6.0274,-6.0875,-6.145,-6.1973,-6.1973,-6.1973,-6.1973,-4.7116,-4.612,-4.5621,-4.7326,-4.5719,-4.5049,-4.7509,-4.7941,-4.8524,0.0,0.0,0.0,-5.0697,-4.9774,-4.92,-4.8982,-4.7894,-4.6649,-4.5182,-4.4626,-4.4177,-4.386,-4.4464,-4.4201,-4.3023,-4.3888,-4.3756,-4.2682,-4.4362,-4.7512,-5.2048,-5.668,-6.2045,-6.7897,-6.9602,-7.0649,-7.0649,-6.4216,-6.3378,-6.5802,-5.9099,-5.871,-6.1732,-5.8501,-5.7345,-5.7234,-5.5358,-5.3274,-5.1002,-4.8024,-4.5727,-4.3606,-4.0544,-3.9102,-3.8292,-3.7299,-3.7299,-3.7429,-3.6384,0.0,0.0,0.0,0.0,0.0,-4.4339,-4.6075,-4.7676,-4.9775,-5.0975,-5.2226,-5.3988,-5.4341,-5.4393,-5.455,-5.583,-5.6667,-5.6223,-5.6536,-5.6641,-5.6196,-5.6536,-5.6798,-5.6798,-5.6798,-5.6798,-5.6798,-5.6405,-5.6405,-5.7007,-5.6484,-5.5909,-5.5334,-5.5177,-5.5099,-5.5099,-5.5099,-5.536,-5.5909,-5.651,-5.7111,-5.7756,-5.8261,-5.8523,-5.8523,-5.8523,-5.8523,-5.8523,-5.8679,-5.9333,-6.0248,-6.0405,-6.1084,-6.1973,-6.1973,-6.1973,-6.2025,-4.6933,-4.6657,-4.6747,-4.8203,-4.7361,-4.7406,-5.0162,-5.0166,0.0,0.0,0.0,0.0,-5.2719,-5.2911,-5.2575,-5.1495,-4.944,-4.7414,-4.5584,-4.446,-4.3781,-4.352,-4.399,-4.4095,-4.3755,-4.4304,-4.4042,-4.2918,-4.331,-4.4992,-4.7782,-5.1668,-5.587,-6.0188,-6.3353,-6.4216,-6.2899,-5.7094,-5.8351,-6.4006,-6.1642,-6.251,-6.4964,-6.2321,-6.2057,-6.2522,-5.9066,-5.7551,-5.645,-5.1425,-4.7829,-4.4724,-4.1074,-3.9886,-3.9573,-3.8423,-3.8501,-3.8684,-3.7508,-3.7037,-3.7355,-3.9501,0.0,0.0,-4.1523,-4.2176,-4.2907,-4.4935,-4.6238,-4.7728,-5.008,-5.089,-5.1387,-5.1858,-5.3269,-5.4419,-5.4811,-5.5177,-5.5255,-5.4916,-5.5177,-5.5386,-5.5386,-5.5595,-5.5726,-5.5726,-5.5621,-5.5726,-5.6092,-5.5987,-5.5647,-5.5125,-5.5099,-5.5099,-5.5099,-5.5099,-5.5255,-5.5595,-5.6405,-5.6981,-5.732,-5.8157,-5.8523,-5.8523,-5.8523,-5.8523,-5.8523,-5.8523,-5.9176,-6.0248,-6.0509,-6.1163,-6.1973,-6.1973,-6.1973,-6.2051,0.0,-4.6836,-4.7472,-4.9823,-4.9664,-5.0381,-5.3872,-5.3356,-5.327,0.0,0.0,0.0,-5.7075,-5.7845,0.0,0.0,-5.0821,-4.8242,-4.6656,-4.4931,0.0,-4.3232,-4.4278,-4.4826,-4.4668,-4.5268,-4.5009,-4.3781,-4.3206,-4.3804,-4.5523,-4.8434,-5.1304,-5.4124,-5.5315,-5.6436,-5.7244,-5.3623,-5.6137,-6.275,-6.5233,-6.67,-6.7533,-6.8467,-6.9347,-6.9435,-6.4295,-6.3122,-6.2699,-5.4379,-4.8764,-4.4728,-4.174,-4.1036,-4.1089,-3.9939,-4.0043,-4.0252,-3.9128,-3.8606,-3.8919,-4.1269,-4.0292,0.0,-4.1311,-4.0797,-4.016,-4.0923,-4.1873,-4.3258,-4.5724,-4.7031,-4.81,-4.9239,-5.001,-5.1126,-5.2851,-5.3164,-5.3164,-5.3112,-5.3164,-5.3217,-5.3295,-5.3739,-5.4053,-5.4105,-5.4654,-5.4994,-5.4994,-5.5465,-5.5491,-5.502,-5.4994,-5.4994,-5.4994,-5.5072,-5.5125,-5.5203,-5.6275,-5.685,-5.6928,-5.8026,-5.8523,-5.8523,-5.8523,-5.8523,-5.8523,-5.8523,-5.915,-6.0195,-6.0797,-6.1372,-6.1894,-6.1947,-6.2025,-6.2156,-4.8298,-4.7427,-4.7909,-5.3171,-5.2006,-5.1607,-5.5273,-5.428,-5.4428,-5.792,-6.1028,-6.4158,-6.7558,-6.4789,0.0,0.0,0.0,0.0,0.0,0.0,-4.4539,-4.4408,-4.5088,-4.5218,-4.4694,-4.5268,-4.4826,-4.318,-4.2605,-4.3143,-4.4746,-4.6327,-4.8553,-5.1323,-5.306,-5.3623,-5.3533,-5.6376,-5.8171,-5.9219,-6.0805,-6.4934,-7.0136,-7.0355,-7.0533,-7.038,-6.8161,-6.7189,-6.5889,-5.8659,-5.2865,-4.7947,-4.4362,-4.2317,-4.1089,-3.9939,-4.0331,-4.0906,-3.973,-4.0357,-4.101,-3.9703,-4.0425,0.0,-3.915,-3.8851,-3.9181,-3.983,-3.973,-4.0469,-4.352,-4.4441,-4.5045,-4.6036,-4.7585,-4.9296,-5.1047,-5.1675,-5.1779,-5.1361,-5.1675,-5.2145,-5.2616,-5.2772,-5.3034,-5.353,-5.4079,-5.4393,-5.4393,-5.4471,-5.4497,-5.4393,-5.4393,-5.4393,-5.4393,-5.4863,-5.5308,-5.5752,-5.6458,-5.7033,-5.7529,-5.8209,-5.8523,-5.8523,-5.8523,-5.8523,-5.8523,-5.8523,-5.8915,-5.9594,-6.0169,-6.0771,-6.1346,-6.179,-6.226,-6.2731,-4.861,-4.9326,-5.0651,-5.3766,0.0,-5.4671,0.0,0.0,-5.8633,-6.2038,-6.6525,-6.9572,-6.9901,-6.7502,-6.4727,0.0,0.0,0.0,0.0,0.0,-4.5062,-4.4694,-4.5297,-4.5898,-4.6447,-4.6186,-4.5767,-4.5111,-4.3729,-4.344,-4.4223,-4.5723,-4.7085,-4.8346,-5.0827,-5.1261,-5.0451,-5.3414,-5.5269,-5.6705,-6.263,-6.7567,-7.1512,-7.2353,-7.3388,-7.3927,-7.1005,-6.8577,-6.5793,-6.0142,-5.581,-5.1941,-4.6502,-4.4957,-4.48,-4.2762,-4.2579,-4.2788,-4.1611,-4.1533,-4.1611,-4.101,-4.0644,0.0,0.0,-3.8292,-3.7952,-3.824,-3.7821,-3.8064,-4.0298,-4.1431,-4.2309,-4.3136,-4.4518,-4.5896,-4.7157,-4.9087,-5.0132,-4.9557,-4.974,-5.0132,-5.0734,-5.1047,-5.1675,-5.2851,-5.3191,-5.3478,-5.3792,-5.3792,-5.3792,-5.3792,-5.4053,-5.421,-5.421,-5.4811,-5.5229,-5.5517,-5.6379,-5.6954,-5.7268,-5.8131,-5.8523,-5.8523,-5.8523,-5.8523,-5.8523,-5.8523,-5.8862,-5.9411,-5.9986,-6.0771,-6.1607,-6.2182,-6.2574,-6.294,-4.8745,-5.0699,-5.2566,-5.3744,0.0,0.0,0.0,0.0,-6.283,-6.6041,-7.0925,-7.3223,-7.0949,-6.9331,-6.721,-6.4377,0.0,0.0,0.0,-4.8184,-4.5857,-4.4931,-4.5689,-4.6552,-4.7492,-4.6839,-4.6552,-4.6682,-4.4696,-4.3833,-4.4096,-4.5578,-4.6338,-4.6462,-4.9063,-4.9868,-4.9284,-5.0361,-5.2695,-5.6526,-6.5562,-6.9662,-7.0669,-7.3345,-7.5454,-7.655,-7.308,-6.9608,-6.5877,-6.108,-5.8193,-5.5558,-4.8721,-4.7675,-4.8433,-4.5976,-4.5271,-4.5036,-4.399,-4.3415,-4.318,-4.3337,-4.1925,-4.0409,0.0,0.0,0.0,-3.7063,-3.6647,-3.6674,-3.778,-3.905,-4.0175,-4.0856,-4.1936,-4.2883,-4.33,-4.6213,-4.8078,-4.7602,-4.731,-4.7712,-4.8995,-4.9495,-5.0322,-5.1727,-5.1831,-5.2197,-5.3008,-5.3034,-5.3112,-5.3217,-5.3635,-5.3922,-5.4053,-5.4628,-5.4994,-5.5125,-5.6275,-5.6798,-5.685,-5.8,-5.8523,-5.8523,-5.8523,-5.8523,-5.8523,-5.8627,-5.9019,-5.9568,-6.0039,-6.0875,-6.1868,-6.2443,-6.2809,-6.3123,-4.9723,-4.9311,-5.0226,-5.5041,0.0,0.0,0.0,0.0,-6.3612,-6.8741,-7.2569,-7.5288,-7.6664,-7.3044,-7.0866,-7.1592,-6.3092,-5.7466,-5.6831,-5.1719,-4.7722,-4.5558,-4.7048,-4.7022,-4.5166,-4.6003,-4.5741,-4.4278,-4.3493,-4.365,-4.4617,0.0,-4.6342,-4.7746,-4.8468,-5.025,-5.2636,-5.2785,-5.6077,-6.1523,-6.5054,-6.5832,-6.5562,-7.1649,-7.4134,-7.4322,-7.4465,-7.2662,-6.9424,-6.3629,-6.0216,-5.7294,-5.1915,-4.9322,-4.812,-4.7283,-4.7048,-4.6891,-4.6264,-4.7858,-4.8878,-4.5428,-4.5846,-4.5924,-4.135,0.0,-3.8867,-3.7325,0.0,-3.7578,-3.8212,0.0,0.0,-3.9754,-4.1452,-4.2426,-4.1716,-4.3784,-4.5325,-4.5094,-4.4225,-4.4994,-4.8644,-4.9079,-4.919,-4.9494,-4.9479,-5.0159,-5.1727,-5.1805,-5.204,-5.2589,-5.2668,-5.2955,-5.3478,-5.4027,-5.4576,-5.5125,-5.6275,-5.6798,-5.685,-5.8,-5.8523,-5.8523,-5.8523,-5.8523,-5.8549,-5.9072,-5.962,-6.0117,-6.0195,-6.064,-6.1293,-6.1868,-6.2705,-6.3593,-4.8551,-4.9858,-5.1295,-5.3964,0.0,0.0,0.0,0.0,-6.8239,-7.1774,-7.5131,-7.7622,-7.8849,-7.5198,-7.2698,-7.2882,-6.6026,-6.0511,-5.7697,-5.3621,-5.0367,-4.8204,-4.7832,-4.7545,-4.7257,-4.6734,-4.595,-4.4905,-4.4304,-4.4095,0.0,0.0,-4.5685,-4.6922,-4.8624,-5.0645,-5.2826,-5.4687,-5.7124,-6.0086,-6.3468,-6.4515,-6.4844,-7.2624,-7.5377,-7.4988,-7.448,-7.2595,-6.9427,-6.3586,-6.109,-5.9542,-5.4044,-5.2014,-5.1492,-5.0603,-4.9845,-4.9139,-4.8224,-4.9711,-5.0607,-4.6724,-4.6614,-4.6384,-4.2364,-4.0226,-3.8972,-3.8606,0.0,0.0,0.0,0.0,0.0,0.0,-4.1083,-4.1387,-4.0239,-4.0535,-4.1505,-4.3309,-4.3552,-4.4534,-4.6991,-4.7044,-4.719,-4.7876,-4.7389,-4.7963,-5.0028,-5.0446,-5.1021,-5.1936,-5.2328,-5.2772,-5.34,-5.4288,-5.502,-5.5595,-5.6745,-5.7294,-5.732,-5.8157,-5.8523,-5.8523,-5.8523,-5.8523,-5.8549,-5.9124,-5.9699,-6.0248,-6.0614,-6.111,-6.1685,-6.226,-6.2783,-6.328,-4.6845,-4.9558,-5.1738,-5.2471,-5.4614,0.0,-5.9765,-6.5419,-7.0451,-7.3268,-7.5707,-7.7981,-8.0135,-7.6983,-7.5079,-7.6049,-7.0047,-6.4595,-6.0633,-5.6617,-5.3082,-5.007,-4.8852,-4.8381,-4.859,-4.7362,-4.6369,-4.5581,-4.4642,-4.446,-4.48,0.0,0.0,-4.7153,-4.9308,-5.1733,-5.4358,-5.741,-5.9847,-6.1882,-6.4934,-6.6819,-6.8345,-7.3522,-7.5527,-7.5368,-7.3652,-7.1466,-6.849,-6.3175,-6.1342,-6.0484,-5.5789,-5.4497,-5.4445,-5.3295,-5.2485,-5.1648,-5.0159,-5.1262,-5.1916,-4.7937,-4.7098,-4.6356,-4.2941,-4.1246,-4.0305,-4.0122,-3.9869,0.0,0.0,0.0,-4.1193,0.0,0.0,-4.1456,-4.0237,-3.9363,-3.9564,-4.1754,-4.3629,-4.4969,-4.5657,-4.5354,-4.5543,-4.6567,-4.5421,-4.5767,-4.8224,-4.8878,-4.9793,-5.1073,-5.1858,-5.2616,-5.34,-5.4367,-5.5203,-5.5909,-5.6928,-5.7503,-5.7756,-5.8261,-5.8523,-5.8523,-5.8523,-5.8523,-5.8575,-5.9307,-5.9856,-6.03,-6.1058,-6.1607,-6.2025,-6.2443,-6.2783,-6.3175,-4.4938,-4.7509,-5.0038,-5.1083,-5.4501,-5.8626,-6.3142,-6.5144,-6.7775,-7.2355,-7.3043,-7.5318,-8.1093,-7.8687,-7.8776,-8.3889,-7.6564,-7.0577,-6.8013,-6.1876,-5.5773,-5.0123,-5.0394,-4.9636,-4.744,-4.7278,-4.6704,-4.5581,-4.3912,-4.4487,-4.7096,-4.4328,0.0,0.0,-5.0572,-5.3955,-5.9075,-6.1762,-6.5832,-7.056,-7.1338,-7.3941,-7.6963,-7.3402,-7.3223,-7.4582,-7.1815,-6.9516,-6.7227,-6.299,-6.0811,-5.9508,-5.7357,-5.6301,-5.5621,-5.4471,-5.4524,-5.4445,-5.2145,-5.3255,-5.3909,-4.927,-4.8152,-4.7079,-4.3127,-4.3468,-4.3938,-4.1716,-4.412,-4.5875,-4.3362,-4.4053,0.0,0.0,0.0,0.0,0.0,-4.1577,-4.0767,-4.0232,-4.398,-4.6228,-4.5287,-4.4753,-4.4697,-4.5397,-4.3486,-4.3572,-4.6395,-4.71,-4.8198,-4.9897,-5.1047,-5.2197,-5.34,-5.3949,-5.4785,-5.5909,-5.6536,-5.7111,-5.7756,-5.8261,-5.8523,-5.8523,-5.8523,-5.8523,-5.8601,-5.9725,-6.0195,-6.0326,-6.1502,-6.1947,-6.1973,-6.1999,-6.2705,-6.3646,-4.5198,-4.7162,-4.8978,-4.9222,-5.1468,-5.5209,-6.1194,-6.4695,-6.8794,-7.4719,-7.6245,-7.9417,-8.624,-8.5222,-8.4743,-8.6539,-8.1285,-7.5865,-7.1279,-6.6152,-6.1566,-5.7468,-5.5674,-5.387,-5.1936,-5.0394,-4.8486,-4.6186,-4.5218,-4.5428,-4.6708,-4.4591,-4.5444,-4.8769,-5.1265,-5.4767,-5.9131,-6.4188,-6.7597,-6.9812,-7.1787,-7.4929,-7.816,-7.5557,-7.4689,-7.4501,-7.1793,-6.9259,-6.6764,-6.4363,-6.1917,-5.9657,-5.878,-5.7582,-5.651,-5.6484,-5.6379,-5.5961,-5.4785,-5.6279,-5.689,-5.1294,-5.0651,-5.0001,-4.4991,-4.4617,-4.48,-4.284,-4.4387,-4.5659,-4.4195,-4.432,0.0,0.0,0.0,0.0,0.0,-3.9494,-3.9816,-4.1171,-4.343,-4.4588,-4.3832,-4.3414,-4.3036,-4.2589,-4.1258,-4.1559,-4.4068,-4.5088,-4.6917,-4.9793,-5.0655,-5.1988,-5.3896,-5.4497,-5.5177,-5.5909,-5.6902,-5.7477,-5.7756,-5.8261,-5.8523,-5.8523,-5.8523,-5.8523,-5.8601,-5.9751,-6.0222,-6.0326,-6.1502,-6.1738,-6.145,-6.1842,-6.2443,-6.3227,-4.5937,-4.6841,-4.7846,-4.885,-5.098,-5.4377,-5.9839,-6.463,-6.9637,-7.5335,-7.8678,-8.2978,-8.9322,-8.9262,-8.8933,-8.9412,-8.5287,-7.9948,-7.3586,-6.9784,-6.5699,-6.1001,-5.9228,-5.732,-5.5177,-5.3295,-5.0812,-4.7702,-4.6917,-4.7048,-4.7963,-4.5166,-4.5726,-4.9244,-5.2322,-5.5624,-5.9377,-6.6642,-7.026,-7.1242,-7.3129,-7.5283,-7.7368,-7.5442,-7.4744,-7.4411,-7.1021,-6.8276,-6.6099,-6.4159,-6.1808,-5.9616,-5.9218,-5.8314,-5.7399,-5.7373,-5.7529,-5.7451,-5.6223,-5.7562,-5.8159,-5.3238,-5.2713,-5.2024,-4.7092,-4.7048,-4.7466,-4.5297,-4.6238,-4.7271,-4.6779,-4.5845,0.0,0.0,0.0,0.0,0.0,-3.8835,-3.9544,-4.0604,-4.2393,-4.3499,-4.3325,-4.2851,-4.2171,-4.1167,-4.0192,-4.0435,-4.2317,-4.3493,-4.5532,-4.859,-5.0054,-5.1701,-5.3583,-5.4785,-5.5674,-5.6249,-5.7216,-5.7835,-5.7974,-5.834,-5.8523,-5.8523,-5.8523,-5.8523,-5.8601,-5.9751,-6.0222,-6.0326,-6.1293,-6.1555,-6.1502,-6.2051,-6.2757,-6.3567,-4.7026,-4.6546,-4.705,-4.9936,-5.2972,-5.615,-5.9538,-6.5002,-7.0322,-7.4445,-8.0152,-8.5641,-9.0339,-9.0848,-9.1327,-9.2554,-8.8491,-8.28,-7.5527,-7.2871,-6.8382,-6.1184,-6.1267,-6.0169,-5.7294,-5.5935,-5.3609,-5.0237,-4.8904,-4.9139,-5.0734,-4.6159,-4.6348,-5.0651,-5.361,-5.6595,-5.9976,-6.8912,-7.3507,-7.4931,-7.526,-7.5359,-7.5111,-7.3211,-7.3462,-7.4343,-6.955,-6.6853,-6.5165,-6.2507,-6.0615,-5.9228,-5.8732,-5.8523,-5.8314,-5.7242,-5.8078,-5.8889,-5.6719,-5.7346,-5.7921,-5.5072,-5.4341,-5.3269,-4.9348,-5.0603,-5.1831,-4.8982,-4.9766,-5.0917,-5.0734,-4.8379,-4.6161,0.0,0.0,0.0,0.0,-3.9652,-4.0049,-3.8662,-4.11,-4.3108,-4.3689,-4.2934,-4.1998,-4.1085,-4.0086,0.0,-4.1167,-4.2317,-4.4042,-4.6447,-4.927,-5.1335,-5.2563,-5.4785,-5.6196,-5.6771,-5.7373,-5.7948,-5.847,-5.8497,-5.8523,-5.8523,-5.8523,-5.8523,-5.8601,-5.9751,-6.0222,-6.0274,-6.0875,-6.1476,-6.2051,-6.2652,-6.3567,-6.4587,-4.6526,-4.8844,-5.1071,-5.1889,-5.3767,-5.6621,-6.0865,-6.5763,-7.1407,-7.8341,-8.3108,-8.7885,-9.3032,-9.3601,-9.3511,-9.3332,-8.9581,-8.5653,-8.1943,-7.7647,-7.3602,-6.9945,-6.7906,-6.5711,-6.3227,-5.9542,-5.6771,-5.502,-5.1282,-5.0106,-5.1309,-4.7571,-4.6668,-4.8378,-5.233,-5.5398,-5.8083,-6.6387,-7.1659,-7.4472,-7.4184,-7.4808,-7.5737,-7.282,-7.3374,-7.5129,-7.1421,-6.7878,-6.4797,-6.4079,-6.1527,-5.8784,-5.9072,-5.8862,-5.8549,-5.8679,-5.9019,-5.9333,-5.915,-5.9437,-5.9307,-5.7268,-5.6118,-5.4863,-5.2589,-5.3295,-5.3844,-5.1805,-5.2433,-5.2537,-5.0002,-4.8169,-4.6183,0.0,0.0,0.0,-3.8787,-3.9536,-4.0059,-3.9699,-4.0594,-4.1298,-4.144,-4.1063,-4.0476,-3.9743,-3.8845,-3.8841,-3.9991,-4.1141,-4.3389,-4.6996,-4.9061,-5.1282,-5.3739,-5.5177,-5.5987,-5.6144,-5.7163,-5.7739,-5.7895,-5.8314,-5.8523,-5.8523,-5.8523,-5.8523,-5.8601,-5.9751,-6.0222,-6.0274,-6.0875,-6.1476,-6.2104,-6.3097,-6.3646,-6.4038,-4.7414,-5.1844,-5.5538,-5.5811,-5.8838,-6.1921,-6.3859,-6.7107,-7.1664,-7.8153,-8.3699,-8.8155,-9.0848,-9.3481,-9.4768,-9.408,-9.0118,-8.658,-8.4028,-8.0248,-7.661,-7.3264,-7.133,-6.9338,-6.7269,-6.2242,-5.906,-5.7837,-5.3286,-5.123,-5.1518,-4.8094,-4.6917,-4.7864,-5.1691,-5.4671,-5.7414,-6.6014,-7.0952,-7.2838,-7.2253,-7.2399,0.0,-7.0684,-7.141,-7.3241,-7.0673,-6.7936,-6.5302,-6.3736,-6.1318,-5.8915,-5.8967,-5.8758,-5.8627,-5.9202,-5.9542,-5.9803,-6.0143,-6.0405,-6.0248,-5.8784,-5.7895,-5.6902,-5.4942,-5.4994,-5.502,-5.3556,-5.3138,-5.2563,-5.089,-4.8381,-4.5532,-4.2317,0.0,-4.0148,-3.9547,-3.9918,-4.0034,-3.9527,-3.9897,-4.0121,-4.0012,-4.0066,-3.9708,-3.8737,-3.9055,-3.9409,-3.9573,-4.135,-4.3754,-4.6839,-4.9348,-5.1779,-5.4184,-5.6092,-5.6928,-5.6693,-5.7582,-5.8026,-5.8052,-5.8366,-5.8523,-5.8523,-5.8784,-5.8889,-5.8967,-6.0143,-6.0457,-6.0274,-6.0875,-6.1476,-6.2104,-6.3254,-6.3829,-6.4168,-4.8799,-5.4582,-5.9269,-5.9605,-6.4905,-6.8951,-6.8342,-7.0166,-7.3157,-7.7574,-8.4249,-8.8394,-8.7766,-9.2344,-9.5217,-9.4648,-9.0435,-8.6693,-8.4172,-8.1594,-7.8204,-7.3866,-7.3003,-7.1787,-7.0038,-6.4478,-6.0997,-5.976,-5.5066,-5.2334,-5.1413,-4.8198,-4.7153,-4.81,-5.1186,-5.4323,-5.7835,-6.6719,-7.0517,-7.0483,-6.9977,-6.9437,-6.8802,-6.8077,-6.8993,-7.0378,-6.8624,-6.7324,-6.5991,-6.2683,-6.0669,-5.9255,-5.8706,-5.8523,-5.8627,-5.9202,-5.9725,-6.0117,-6.0195,-6.0614,-6.0744,-5.9647,-5.9359,-5.881,-5.6719,-5.6249,-5.5961,-5.4968,-5.3321,-5.2145,-5.2433,-4.8669,-4.4589,-4.1977,-4.1533,-4.1324,-4.0723,-4.0664,-4.0293,-3.9181,-3.9537,0.0,-3.9294,-3.9636,-3.9417,-3.8155,-3.9692,-4.0381,-3.9647,-4.195,-4.4273,-4.6556,-4.9688,-5.2354,-5.4419,-5.7059,-5.8183,-5.7791,-5.8287,-5.8523,-5.8523,-5.8601,-5.8575,-5.8549,-5.9202,-5.9437,-5.9464,-6.064,-6.0823,-6.0378,-6.0927,-6.1476,-6.2104,-6.3254,-6.4038,-6.4613,-4.9113,-5.4521,-5.872,-5.7359,-6.42,-7.1183,-7.521,-7.8933,-8.2329,-8.5416,-9.0203,-9.3361,-9.3242,-9.4139,-9.4738,-9.4618,-9.0839,-8.8007,-8.7002,-8.3006,-7.9511,-7.6819,-7.5251,-7.3795,-7.2504,-6.6999,-6.3703,-6.2828,-5.7,-5.3067,-5.089,-4.8852,-4.7492,-4.6948,-4.9883,-5.4526,-6.0589,-6.6184,-6.8231,-6.7869,-6.8333,-6.9381,-7.0405,-6.8536,-6.9318,-7.0986,-6.7707,-6.6186,-6.5417,-6.3109,-6.0989,-5.9255,-5.8706,-5.8523,-5.8627,-5.9202,-5.9437,-5.962,-6.0091,-6.03,-6.0222,-5.9542,-5.9359,-5.9124,-5.8261,-5.8052,-5.8,-5.7791,-5.6013,-5.4079,-5.2746,-4.8329,-4.4354,-4.2971,-4.2735,-4.2526,-4.1951,-4.2126,-4.1923,-4.0979,-4.1169,-4.095,-3.9623,-3.9154,-3.8958,-3.8953,-3.8671,-3.8792,-3.9547,-4.0451,-4.2864,-4.7048,-4.9139,-5.1936,-5.5569,-5.7085,-5.8,-5.8366,-5.847,-5.8523,-5.8523,-5.8993,-5.8967,-5.8575,-5.962,-5.9803,-5.9464,-6.064,-6.1058,-6.098,-6.1084,-6.1476,-6.2104,-6.3254,-6.4038,-6.4613,-5.3467,-5.7732,-6.1521,-6.3157,-6.9884,-7.6634,-8.1212,-8.5551,-8.7945,-8.6808,-8.9202,-9.0878,-9.0549,-9.2943,-9.4618,-9.4618,-9.0954,-8.8344,-8.7697,-8.3705,-8.0191,-7.7577,-7.6087,-7.5003,-7.4304,-6.8367,-6.5027,-6.4388,-5.7788,-5.3259,-5.076,-4.8695,-4.7597,-4.7524,-5.1174,-5.5486,-6.0391,-6.5002,-6.6656,-6.623,-6.7296,-6.8344,-6.9178,-6.7844,-6.8605,-6.9992,-6.7101,-6.5747,-6.4973,-6.2203,-6.0453,-5.9255,-5.8706,-5.8523,-5.8627,-5.9202,-5.9568,-5.9803,-5.9777,-5.9986,-6.0013,-5.915,-5.8915,-5.8862,-5.8575,-5.8523,-5.8418,-5.8131,-5.6719,-5.4733,-5.2093,-4.8826,-4.6238,-4.5401,-4.4694,-4.4173,-4.3598,-4.3412,-4.2801,-4.1479,-4.1433,-4.1002,-3.9751,-3.9599,-3.9396,-3.8964,-3.9341,-3.9667,-3.9991,-4.1584,-4.4017,-4.7205,-4.9871,-5.2746,-5.5883,-5.766,-5.8523,-5.8523,-5.8523,-5.8523,-5.8523,-5.9098,-5.9202,-5.9019,-6.0169,-6.0535,-6.03,-6.0561,-6.0849,-6.1084,-6.0771,-6.1555,-6.2914,-6.3463,-6.443,-6.5475,-5.8654,-6.1864,-6.5436,-6.9931,-7.62,-8.1751,-8.4983,-8.9412,-9.1237,-8.8005,-8.8514,-8.8903,-8.8215,-9.1895,-9.4319,-9.4199,-9.0551,-8.795,-8.7396,-8.349,-7.9982,-7.7211,-7.6429,-7.59,-7.5407,-7.0145,-6.6696,-6.5307,-5.8669,-5.3721,-5.0424,0.0,-4.7738,-4.8774,-5.3093,-5.655,-5.9489,-6.424,-6.5839,-6.5362,-6.6875,-6.779,-6.8159,-6.7392,-6.7946,-6.8961,-6.6942,-6.5599,-6.4217,-6.1501,-6.0222,-5.9647,-5.9072,-5.8862,-5.8941,-5.9255,-5.9673,-5.9908,-5.9333,-5.9516,-5.9647,-5.8732,-5.8523,-5.8523,-5.8523,-5.8523,-5.8392,-5.7921,-5.6824,-5.4942,-5.1753,-4.9923,-4.8564,-4.7461,-4.6626,-4.5846,-4.4905,-4.4565,-4.3755,-4.1899,-4.1899,-4.1455,-3.9939,-4.0278,-4.0174,-3.9155,-4.0121,-4.0689,-4.0432,-4.2705,-4.4943,-4.7048,-5.0263,-5.3217,-5.5883,-5.7843,-5.8836,-5.8862,-5.8627,-5.8653,-5.8889,-5.9333,-5.9542,-5.962,-6.0797,-6.1241,-6.1084,-6.0483,-6.0588,-6.1084,-6.0744,-6.1868,-6.3698,-6.3803,-6.4874,-6.6312,-6.247,-6.5778,-6.9181,-7.2889,-7.8997,-8.3696,-8.4654,-8.8723,-9.2194,-9.3601,-9.39,-9.3691,-9.3002,-9.3391,-9.3451,-9.2853,-8.9225,-8.6686,-8.613,-8.1876,-7.8361,-7.5983,-7.6797,-7.6823,-7.5596,-7.3556,-7.0354,-6.599,-6.0755,-5.5165,-4.9245,-4.7929,-4.8171,-4.9924,-5.433,-5.7389,-5.9568,-6.4722,-6.6248,-6.539,-6.7352,-6.8838,-6.9737,-6.8235,-6.8406,-6.909,-6.7408,-6.5199,-6.2856,-6.21,-6.1424,-6.0849,-6.0248,-6.0065,-5.996,-5.949,-5.9483,-5.9307,-5.8758,-5.8627,-5.8653,-5.8549,-5.8523,-5.8523,-5.8523,-5.8523,-5.8497,-5.8444,-5.7085,-5.5177,-5.2772,-5.1753,-5.042,-4.7696,-4.7675,-4.7205,-4.5036,-4.5611,-4.5401,-4.3127,-4.3807,-4.3363,-4.0592,-4.088,-4.0958,-4.0305,-3.9931,-3.9931,-4.0383,-4.166,-4.3677,-4.6473,-4.8878,-5.1988,-5.5883,-5.6667,-5.8052,-6.0039,-5.9019,-5.9045,-6.0065,-6.0117,-6.0143,-6.0195,-6.1372,-6.1607,-6.1084,-6.0483,-6.0588,-6.1163,-6.1633,-6.2574,-6.375,-6.4273,-6.524,-6.6364,-6.6211,-6.8944,-7.2634,-7.7636,-8.1129,-8.4444,-8.8274,-9.0429,-9.2045,-9.3242,-9.3391,-9.3302,-9.3032,-9.3002,-9.2883,-9.2613,-8.9052,-8.6349,-8.5427,-8.1446,-7.7995,-7.5355,-7.5687,-7.5518,-7.4582,-7.3486,-7.0645,-6.6174,-6.2577,-5.7869,-5.213,-4.9902,-4.9664,-5.1268,-5.5677,-5.8668,-6.0763,-6.5555,-6.6889,-6.5922,-6.7619,-6.8455,-6.8689,-6.8733,-6.917,-6.9787,-6.9757,-6.7801,-6.5146,-6.4209,-6.2635,-6.1006,-6.0405,-6.0222,-6.0169,-5.9934,-6.0143,-6.0222,-5.9281,-5.9281,-5.9385,-5.8679,-5.8523,-5.8523,-5.8523,-5.8523,-5.8523,-5.8523,-5.7686,-5.6458,-5.4837,-5.353,-5.2171,-5.0681,-4.9479,-4.8146,-4.6469,-4.6107,-4.5245,-4.3258,-4.3127,-4.2605,-4.1115,-4.1167,-4.135,-4.1455,-4.0618,-4.0488,-4.1428,-4.2239,-4.3833,-4.6395,-4.9348,-5.2197,-5.4863,-5.719,-5.881,-5.9699,-5.9594,-5.9777,-6.0222,-6.0588,-6.0771,-6.0771,-6.0875,-6.0588,-6.0091,-6.0561,-6.0692,-6.0718,-6.1999,-6.2966,-6.3803,-6.4717,-6.5789,-6.6861,-7.0069,-7.2695,-7.6606,-8.2135,-8.4031,-8.621,-9.0399,-9.1207,-9.1506,-9.1955,-9.2015,-9.2105,-9.2284,-9.2314,-9.2224,-9.2045,-8.8302,-8.5652,-8.478,-8.0747,-7.7446,-7.5251,-7.5745,-7.5806,-7.4937,-7.4484,-7.2094,-6.7689,-6.4484,-6.0105,-5.4654,-5.2124,-5.1949,-5.3964,-5.7957,-6.0663,-6.2567,-6.6719,-6.7574,-6.6247,-6.7808,-6.8221,-6.8154,-6.9542,-7.0304,-7.0734,-7.128,-6.963,-6.6996,-6.5442,-6.3606,-6.1738,-6.098,-6.0744,-6.0692,-6.0535,-6.0797,-6.0875,-5.9673,-5.9673,-5.9777,-5.8967,-5.8758,-5.881,-5.8967,-5.9019,-5.8967,-5.881,-5.8183,-5.7399,-5.6562,-5.5308,-5.4053,-5.2929,-5.1413,-4.9662,-4.7623,-4.6944,-4.5794,-4.3546,-4.3232,-4.2814,-4.1899,-4.1664,-4.1742,-4.2185,-4.1402,-4.1376,-4.2369,-4.3127,-4.4513,-4.6656,-4.974,-5.2354,-5.4445,-5.7399,-5.9124,-5.962,-6.0013,-6.0405,-6.0744,-6.1006,-6.1032,-6.0823,-6.0405,-6.0091,-5.996,-6.0953,-6.1215,-6.1136,-6.2705,-6.3672,-6.4299,-6.5292,-6.6364,-6.741,-7.4324,-7.746,-8.1116,-8.5823,-8.8274,-8.9621,-8.9681,-9.0249,-9.0668,-9.0668,-9.0668,-9.0908,-9.1566,-9.1626,-9.1386,-9.0728,-8.6572,-8.4049,-8.4049,-7.9349,-7.6375,-7.5721,-7.7917,-7.8624,-7.739,-7.7907,-7.5877,-7.1316,-6.6612,-6.1434,-5.5942,-5.4164,-5.5032,-5.8283,-6.1441,-6.3505,-6.4769,-6.8113,-6.8117,-6.5951,-6.7815,-6.8597,-6.8834,-7.1102,-7.1962,-7.1878,-7.1334,-6.9695,-6.7549,-6.5289,-6.4116,-6.3437,-6.2313,-6.1947,-6.1842,-6.1267,-6.111,-6.0875,-5.9673,-5.9359,-5.9385,-5.9359,-5.9359,-5.949,-6.0065,-6.0195,-6.0039,-5.9464,-5.8515,-5.773,-5.7704,-5.7163,-5.604,-5.3766,-5.3373,-5.1936,-4.7853,-4.8329,-4.7754,-4.4278,-4.4879,-4.485,-4.318,-4.25,-4.2211,-4.2211,-4.2211,-4.2396,-4.2971,-4.4041,-4.5451,-4.7226,-4.9584,-5.2171,-5.5072,-5.6824,-5.8523,-6.0222,-6.0222,-6.0823,-6.1921,-6.1372,-6.0797,-6.0222,-6.0222,-6.0561,-6.1136,-6.1738,-6.2287,-6.2914,-6.4064,-6.4874,-6.5423,-6.605,-6.6991,-6.7985,-7.8426,-8.1078,-8.3889,-8.625,-8.7975,-8.9142,-8.9591,-9.0219,-9.0638,-9.0638,-9.0638,-9.0728,-9.0938,-9.0938,-9.0878,-9.0668,-8.7715,-8.5738,-8.5278,-8.2147,-7.9691,-7.8321,-7.8903,-7.879,-7.7472,-7.7194,-7.5352,-7.1995,-6.9247,-6.5038,-5.9528,-6.0525,-6.1586,-6.2831,-6.6622,-6.9309,-7.0903,-7.0886,-7.0321,-6.9354,-6.8793,-6.7977,-6.7296,-6.9486,-7.0997,-7.1962,-7.1765,-7.0986,-6.9722,-6.7472,-6.5626,-6.4064,-6.2914,-6.2548,-6.2443,-6.1868,-6.1685,-6.1529,-6.0771,-6.0561,-6.0457,-6.0065,-5.996,-5.9986,-6.0169,-5.9908,-5.9594,-5.9483,-5.8758,-5.8235,-5.8235,-5.7765,-5.6876,-5.536,-5.3792,-5.1779,-4.893,-4.7832,-4.6447,-4.42,-4.4199,-4.4068,-4.3101,-4.2866,-4.2918,-4.3363,-4.3389,-4.3232,-4.3023,-4.4121,-4.5924,-4.846,-5.076,-5.3138,-5.5621,-5.8157,-5.9673,-6.0222,-6.1032,-6.1398,-6.1346,-6.0378,-6.0039,-6.0195,-5.9803,-6.0195,-6.1189,-6.2156,-6.2443,-6.2469,-6.4822,-6.5109,-6.4482,-6.6652,-6.741,-6.7436,-8.0337,-8.2643,-8.4983,-8.5791,-8.7467,-8.8813,-8.9232,-9.007,-9.0638,-9.0638,-9.0638,-9.0638,-9.0638,-9.0638,-9.0638,-9.0638,-8.8018,-8.6274,-8.5952,-8.3307,-8.1263,-8.0111,-7.983,-7.9352,-7.8482,-7.7204,-7.5462,-7.332,-7.0018,-6.6339,-6.2391,-6.3703,-6.4993,-6.6538,-6.9627,-7.1637,-7.2736,-7.2014,-7.0846,-6.9548,-6.8699,-6.7827,-6.7208,-6.932,-7.083,-7.174,-7.149,-7.1185,-7.0483,-6.802,-6.6317,-6.4979,-6.3829,-6.3306,-6.2992,-6.2208,-6.1973,-6.1842,-6.1267,-6.111,-6.1032,-6.064,-6.0561,-6.0614,-6.0823,-6.0274,-5.9699,-5.9699,-5.9072,-5.8523,-5.8523,-5.8235,-5.7608,-5.6432,-5.4341,-5.2014,-4.9714,-4.7702,-4.5898,-4.4382,-4.4199,-4.4042,-4.3702,-4.365,-4.3729,-4.3912,-4.4487,-4.4513,-4.3702,-4.5192,-4.7283,-4.9949,-5.2459,-5.4785,-5.6876,-5.9333,-6.0561,-6.0561,-6.1293,-6.1346,-6.0771,-6.0013,-5.9777,-5.9908,-6.0222,-6.0771,-6.1555,-6.2914,-6.3254,-6.3123,-6.5162,-6.5528,-6.5162,-6.6756,-6.7383,-6.7488,-8.062,-8.2762,-8.4803,-8.4833,-8.6928,-8.8634,-8.8753,-8.9741,-9.0519,-9.0549,-9.0579,-9.0579,-9.0579,-9.0608,-9.0638,-9.0638,-8.7862,-8.615,-8.6091,-8.3306,-8.1633,-8.1407,-8.0702,-8.0251,-8.0167,-7.7768,-7.5946,-7.475,-6.9227,-6.6104,-6.5136,-6.4636,-6.632,-6.9878,-7.1023,-7.1503,-7.1363,-7.1841,-7.0173,-6.7337,-6.7831,-6.7985,-6.8202,-7.034,-7.1177,-7.1257,-7.0634,-7.0417,-7.0041,-6.7321,-6.6312,-6.6076,-6.4953,-6.4221,-6.3567,-6.2391,-6.1999,-6.1868,-6.1319,-6.1189,-6.1189,-6.1241,-6.1241,-6.1372,-6.1868,-6.1084,-6.0274,-6.0274,-5.9359,-5.8575,-5.8575,-5.8549,-5.8131,-5.6928,-5.4811,-5.2537,-5.0211,-4.7885,-4.6029,-4.4983,-4.4879,-4.4905,-4.4853,-4.4879,-4.4696,-4.4147,-4.5532,-4.6003,-4.5088,-4.7231,-4.9453,-5.1596,-5.4471,-5.6798,-5.8549,-6.0274,-6.111,-6.111,-6.1084,-6.0771,-6.0222,-6.0169,-5.9934,-5.9647,-6.1215,-6.1999,-6.226,-6.3776,-6.4456,-6.4587,-6.5214,-6.6076,-6.6939,-6.6599,-6.7096,-6.7985,-8.3455,-8.4581,-8.5611,-8.612,-8.7167,-8.8274,-8.9292,-8.9262,-8.9322,-8.983,-8.989,-8.989,-8.989,-9.0339,-9.0638,-9.0638,-8.9531,-8.8598,-8.8093,-8.6853,-8.5487,-8.3982,-8.2407,-8.1129,-8.0179,-7.6983,-7.4536,-7.2969,-7.0723,-7.0361,-7.1714,-7.1536,-7.2833,-7.5404,-7.5978,-7.5773,-7.4891,-7.2858,-7.1119,-6.9642,-6.848,-6.7985,-6.8119,-6.9026,-7.0173,-7.115,-6.9712,-6.9748,-7.0095,-6.7744,-6.6625,-6.6155,-6.5423,-6.5083,-6.4665,-6.3097,-6.2313,-6.1947,-6.1816,-6.1764,-6.1868,-6.2313,-6.2417,-6.2339,-6.2025,-6.1424,-6.0901,-6.0901,-5.9986,-5.9176,-5.9176,-5.881,-5.8,-5.6379,-5.421,-5.204,-5.0159,-4.7545,-4.5898,-4.6055,-4.6447,-4.6552,-4.6107,-4.6447,-4.66,-4.6525,-4.6081,-4.6473,-4.7989,-5.0237,-5.1727,-5.2276,-5.5099,-5.7425,-5.915,-6.0457,-6.111,-6.111,-6.064,-6.0352,-6.0195,-5.9777,-6.0222,-6.1346,-6.1319,-6.2313,-6.3881,-6.341,-6.375,-6.4639,-6.5658,-6.5946,-6.5972,-6.7619,-6.8141,-6.7985,-8.4564,-8.5252,-8.591,-8.6569,-8.7257,-8.8155,-8.9471,-8.9112,-8.9023,-8.998,-8.9591,-8.9441,-9.004,-9.016,-9.0309,-9.0608,-8.9771,-8.9082,-8.8693,-8.7496,-8.6299,-8.5222,-8.3201,-8.1366,-7.9787,-7.7036,-7.4546,-7.2297,-7.1978,-7.2212,-7.3156,-7.3924,-7.5198,-7.6886,-7.7328,-7.6633,-7.5021,-7.3498,-7.1631,-6.9612,-6.8763,-6.8377,-6.8429,-6.8716,-6.9376,-7.0009,-6.9154,-6.9192,-6.9532,-6.7998,-6.7305,-6.6965,-6.6364,-6.5815,-6.5188,-6.4273,-6.3776,-6.3541,-6.3541,-6.3332,-6.3149,-6.3201,-6.3201,-6.3071,-6.2496,-6.1921,-6.1346,-6.0823,-5.9986,-5.9281,-5.9019,-5.8287,-5.7163,-5.5412,-5.2981,-5.0707,-4.8956,-4.6944,-4.5924,-4.6761,-4.7623,-4.8224,-4.8433,-4.8956,-4.8956,-4.8198,-4.8277,-4.8564,-4.9061,-5.225,-5.3949,-5.3687,-5.6719,-5.8941,-6.0169,-6.0797,-6.098,-6.0718,-6.0666,-6.064,-6.064,-6.0849,-6.1319,-6.1973,-6.2182,-6.2705,-6.3358,-6.3254,-6.3593,-6.4247,-6.5423,-6.5998,-6.6286,-6.7305,-6.7802,-6.7958,-8.4983,-8.5462,-8.606,-8.6718,-8.7317,-8.8155,-8.9471,-8.9112,-8.9112,-9.0339,-8.9531,-8.9262,-9.0369,-9.01,-9.004,-9.0608,-8.9441,-8.8693,-8.8693,-8.6988,-8.5851,-8.5551,-8.3239,-8.111,-7.9182,-7.7014,-7.4855,-7.2708,-7.3023,-7.324,-7.3265,-7.4591,-7.5783,-7.6866,-7.7304,-7.6099,-7.3816,-7.3816,-7.1873,-6.8764,-6.8764,-6.8764,-6.8764,-6.8764,-6.8764,-6.8764,-6.8764,-6.8764,-6.8769,-6.8272,-6.8115,-6.8037,-6.7514,-6.6625,-6.5789,-6.5789,-6.5789,-6.5711,-6.5345,-6.5031,-6.4639,-6.3959,-6.3803,-6.3646,-6.2966,-6.2391,-6.1685,-6.0692,-5.996,-5.9333,-5.8862,-5.7686,-5.6223,-5.4497,-5.1779,-4.9322,-4.7702,-4.6473,-4.6212,-4.744,-4.8773,-4.9976,-5.0943,-5.1622,-5.1387,-4.9976,-5.1021,-5.1256,-5.0159,-5.3896,-5.5961,-5.5752,-5.8732,-6.0588,-6.111,-6.111,-6.0849,-6.0352,-6.0875,-6.1163,-6.1293,-6.2339,-6.2548,-6.2156,-6.3123,-6.3097,-6.2417,-6.3227,-6.3698,-6.4038,-6.5109,-6.6155,-6.7044,-6.6782,-6.7279,-6.8037,-8.627,-8.6449,-8.6748,-8.7437,-8.7646,-8.8155,-8.9471,-8.9112,-8.8963,-8.9711,-8.9651,-8.9591,-8.9801,-9.0219,-9.0519,-9.0638,-8.9441,-8.8693,-8.8693,-8.7885,-8.6629,-8.4953,-8.3084,-8.0708,-7.7835,-7.4621,-7.3475,-7.4523,-7.4046,-7.5266,-7.8064,-7.7232,-7.77,-7.9261,-7.8755,-7.6778,-7.3816,-7.3816,-7.1873,-6.8764,-6.8764,-6.8764,-6.8764,-6.8764,-6.8764,-6.8764,-6.8764,-6.8764,-6.8821,-6.8743,-6.8716,-6.869,-6.8612,-6.8115,-6.7592,-6.7592,-6.7592,-6.7148,-6.5188,-6.5318,-6.5763,-6.4665,-6.4404,-6.4116,-6.3071,-6.2391,-6.1921,-6.1738,-6.0849,-6.0065,-5.996,-5.8235,-5.6223,-5.4497,-5.1779,-4.9453,-4.8224,-4.7074,-4.697,-4.8616,-5.0681,-5.204,-5.2223,-5.3191,-5.3687,-5.3426,-5.2746,-5.3086,-5.4759,-5.6013,-5.7294,-5.8653,-6.0169,-6.1032,-6.111,-6.111,-6.1084,-6.098,-6.1084,-6.1372,-6.1868,-6.2522,-6.2783,-6.2705,-6.2888,-6.341,-6.4064,-6.328,-6.3803,-6.5188,-6.5867,-6.6547,-6.72,-6.8115,-6.856,-6.869,-8.6689,-8.6988,-8.7317,-8.7646,-8.7706,-8.8155,-8.9471,-8.9112,-8.9052,-9.004,-8.9262,-8.9023,-9.007,-8.983,-8.9741,-9.007,-8.9232,-8.8544,-8.8185,-8.7197,-8.621,-8.5282,-8.3804,-8.1266,-7.7554,-7.5004,-7.4096,-7.492,-7.5186,-7.6482,-7.8669,-7.9384,-7.9516,-7.9297,-7.9686,-7.7587,-7.3816,-7.3816,-7.1873,-6.8764,-6.8764,-6.8764,-6.8764,-6.8764,-6.8764,-6.8764,-6.8764,-6.8764,-6.8816,-6.9213,-6.9291,-6.937,-6.9684,-6.937,-6.8847,-6.8533,-6.822,-6.7671,-6.6286,-6.6312,-6.6442,-6.5292,-6.4979,-6.477,-6.3933,-6.3306,-6.2705,-6.2104,-6.1293,-6.0509,-5.9882,-5.8131,-5.6432,-5.5308,-5.1936,-4.9374,-4.9139,-4.8407,-4.8512,-5.0237,-5.2746,-5.4707,-5.5647,-5.6223,-5.6405,-5.6092,-5.5569,-5.5595,-5.6353,-5.7529,-5.8679,-5.9803,-6.0953,-6.1581,-6.1581,-6.1267,-6.111,-6.1136,-6.1738,-6.2182,-6.2469,-6.3672,-6.3855,-6.3306,-6.362,-6.3698,-6.3593,-6.3384,-6.3933,-6.4979,-6.558,-6.6155,-6.6756,-6.7592,-6.8115,-6.8377,-8.6778,-8.7227,-8.7706,-8.7706,-8.7975,-8.8514,-8.9501,-8.9352,-8.9501,-9.0519,-8.9322,-8.8963,-9.0489,-8.9741,-8.9292,-8.9651,-8.9082,-8.8484,-8.7975,-8.6659,-8.5851,-8.5701,-8.4176,-8.182,-7.8629,-7.6482,-7.5751,-7.6565,-7.6811,-7.7753,-7.9342,-8.0971,-8.0883,-7.9297,-8.0345,-7.8306,-7.4041,-7.4041,-7.2009,-6.8764,-6.8764,-6.8764,-6.8764,-6.8764,-6.8764,-6.8764,-6.8764,-6.8764,-6.8868,-6.9657,-6.9893,-6.9997,-7.0598,-7.0389,-6.9788,-6.9213,-6.8716,-6.8246,-6.7645,-6.7592,-6.7383,-6.6103,-6.5684,-6.5397,-6.4691,-6.409,-6.3437,-6.2548,-6.1816,-6.1032,-6.0143,-5.834,-5.6719,-5.5857,-5.2433,-4.9923,-5.008,-4.9976,-5.0498,-5.2197,-5.4707,-5.6954,-5.8549,-5.8836,-5.8679,-5.8175,-5.8122,-5.7921,-5.7608,-5.8862,-5.996,-6.0797,-6.1685,-6.2104,-6.1973,-6.1529,-6.1529,-6.1921,-6.2679,-6.3175,-6.3463,-6.4926,-6.49,-6.3698,-6.4273,-6.4038,-6.3254,-6.3698,-6.4221,-6.4796,-6.5371,-6.5867,-6.6364,-6.7044,-6.7592,-6.8011,-8.6689,-8.7227,-8.7706,-8.7706,-8.8723,-8.9561,-8.9651,-9.013,-9.0519,-9.0638,-9.0519,-9.0489,-9.0526,-9.0549,-9.0279,-8.9711,-8.9082,-8.8663,-8.8604,-8.7347,-8.6329,-8.5731,-8.3508,-8.211,-8.173,-7.8428,-7.8259,-8.1568,-7.9363,-7.9708,-8.2438,-8.205,-8.1392,-8.0674,-8.0764,-7.857,-7.4738,-7.4738,-7.2473,-6.8764,-6.8764,-6.8764,-6.8764,-6.8764,-6.8764,-6.8764,-6.8764,-6.8764,-6.903,-7.0154,-7.052,-7.0624,-7.1173,-7.0964,-7.0415,-6.9814,-6.9605,-6.9448,-6.8873,-6.9108,-6.9108,-6.7436,-6.6599,-6.592,-6.4796,-6.409,-6.3646,-6.3567,-6.2679,-6.1868,-6.179,-5.949,-5.7059,-5.5438,-5.353,-5.1884,-5.0864,-5.1596,-5.2877,-5.4628,-5.6432,-5.8,-5.9202,-5.9777,-5.9856,-5.9281,-5.9228,-5.9464,-5.9934,-6.0091,-6.0927,-6.2574,-6.2705,-6.2496,-6.1973,-6.1921,-6.2705,-6.4273,-6.3829,-6.4168,-6.5214,-6.5894,-6.5292,-6.3698,-6.4273,-6.4482,-6.4404,-6.4456,-6.4796,-6.5371,-6.5972,-6.6233,-6.6416,-6.7514,-6.7958,-6.8063,-8.6748,-8.7227,-8.7706,-8.7706,-8.8454,-8.9202,-8.9621,-9.0219,-9.0638,-9.0638,-9.0279,-9.004,-9.004,-9.004,-8.9591,-8.8544,-8.8604,-8.8514,-8.8095,-8.7586,-8.6838,-8.5731,-8.4387,-8.3213,-8.2117,-8.0788,-8.0706,-8.2117,-8.1129,-8.1404,-8.2844,-8.2918,-8.22,-8.072,-7.969,-7.7549,-7.4716,-7.3245,-7.1366,-6.9344,-6.8978,-6.9056,-6.9344,-6.8978,-6.8764,-6.8764,-6.8764,-6.8764,-6.903,-7.0206,-7.0598,-7.0755,-7.167,-7.1827,-7.1461,-7.052,-7.0259,-7.0049,-6.9108,-6.9265,-6.937,-6.8011,-6.7514,-6.7044,-6.5894,-6.5162,-6.4639,-6.4273,-6.3567,-6.2914,-6.2574,-6.1032,-5.9594,-5.8941,-5.6458,-5.4707,-5.4994,-5.5125,-5.5543,-5.6562,-5.8209,-5.9411,-5.9856,-6.0431,-6.0692,-6.0483,-6.0771,-6.1241,-6.179,-6.2182,-6.2679,-6.3332,-6.3358,-6.3254,-6.3045,-6.2679,-6.3175,-6.4534,-6.4665,-6.5162,-6.5972,-6.6521,-6.6233,-6.5318,-6.5867,-6.592,-6.5632,-6.5632,-6.5737,-6.592,-6.5789,-6.5946,-6.6364,-6.7148,-6.7671,-6.8063,-8.6778,-8.7227,-8.7706,-8.7706,-8.8245,-8.8903,-8.9561,-8.986,-9.016,-9.0579,-9.007,-8.9681,-8.9681,-8.9681,-8.9232,-8.8095,-8.8245,-8.8364,-8.8334,-8.7945,-8.7287,-8.6359,-8.5701,-8.4733,-8.3562,-8.297,-8.297,-8.3562,-8.297,-8.3004,-8.3696,-8.3936,-8.3217,-8.1646,-8.0293,-7.8388,-7.6094,-7.3931,-7.2151,-7.0735,-6.9779,-6.9631,-6.9945,-6.9553,-6.9291,-6.9108,-6.9108,-6.9004,-6.9004,-6.9971,-7.0311,-7.0494,-7.1461,-7.1879,-7.1853,-7.1069,-7.099,-7.0964,-7.0154,-7.0206,-7.0102,-6.8403,-6.7985,-6.7749,-6.6782,-6.6233,-6.5815,-6.5423,-6.4874,-6.4325,-6.3724,-6.2705,-6.1685,-6.0953,-5.8993,-5.7634,-5.7895,-5.7895,-5.8104,-5.8679,-5.9777,-6.064,-6.1006,-6.1424,-6.1659,-6.1659,-6.2025,-6.2417,-6.2809,-6.3541,-6.3933,-6.3933,-6.4116,-6.4221,-6.4221,-6.3646,-6.4038,-6.5345,-6.5737,-6.6233,-6.6834,-6.7017,-6.6887,-6.6573,-6.6756,-6.6625,-6.6286,-6.6286,-6.6181,-6.5972,-6.5763,-6.592,-6.6364,-6.7096,-6.7645,-6.8063,-8.6689,-8.7227,-8.7706,-8.7706,-8.8245,-8.8903,-8.9561,-8.9112,-8.9142,-9.0459,-9.007,-8.9651,-8.9651,-8.9651,-8.9382,-8.8723,-8.8095,-8.8274,-8.9591,-8.8454,-8.7706,-8.7736,-8.7048,-8.6659,-8.6689,-8.4912,-8.4912,-8.6689,-8.4912,-8.4589,-8.5671,-8.5043,-8.4384,-8.3696,-8.3038,-8.1485,-7.9191,-7.7429,-7.5372,-7.3073,-7.1312,-7.0598,-7.0598,-7.0598,-7.0232,-6.971,-6.971,-6.9344,-6.8952,-6.9501,-6.9684,-6.9814,-7.0415,-7.0964,-7.1409,-7.1409,-7.1827,-7.2297,-7.2297,-7.2297,-7.1592,-6.8743,-6.8011,-6.7854,-6.7279,-6.7122,-6.7096,-6.7096,-6.6652,-6.6103,-6.5501,-6.4456,-6.294,-6.064,-6.0771,-6.0535,-5.8784,-5.9516,-6.0483,-6.1058,-6.1136,-6.1581,-6.2705,-6.2835,-6.2835,-6.2835,-6.2835,-6.2835,-6.2835,-6.3933,-6.4534,-6.4534,-6.5083,-6.5371,-6.5397,-6.4822,-6.5397,-6.7096,-6.7096,-6.741,-6.7958,-6.7357,-6.7096,-6.7096,-6.6547,-6.6286,-6.6286,-6.6286,-6.592,-6.5449,-6.605,-6.6286,-6.6416,-6.7566,-6.7985,-6.8063,-8.6599,-8.6838,-8.7137,-8.7616,-8.7856,-8.8215,-8.8873,-8.8813,-8.8813,-8.9232,-8.9112,-8.8813,-8.8334,-8.8693,-8.8514,-8.7377,-8.7945,-8.8753,-8.9621,-8.8873,-8.8604,-8.9052,-8.7107,-8.621,-8.6659,-8.4912,-8.4912,-8.6689,-8.4912,-8.4589,-8.5701,-8.5492,-8.4803,-8.3619,-8.1828,-8.0376,-7.9084,-7.5666,-7.4744,-7.5346,-7.1952,-7.155,-7.2805,-7.1215,-7.0494,-7.0337,-7.0337,-6.9945,-6.9527,-7.0128,-7.0049,-6.9866,-7.086,-7.1278,-7.1409,-7.1409,-7.1539,-7.1592,-7.12,-7.1095,-7.099,-7.0494,-7.0389,-7.0023,-6.8638,-6.8324,-6.8089,-6.7253,-6.6965,-6.6782,-6.6625,-6.5998,-6.5005,-6.3489,-6.341,-6.3045,-6.1738,-6.2182,-6.2705,-6.2888,-6.2914,-6.2888,-6.2835,-6.3175,-6.3254,-6.2862,-6.3567,-6.4012,-6.4012,-6.4717,-6.5318,-6.5737,-6.5136,-6.5371,-6.6573,-6.6024,-6.6207,-6.7122,-6.754,-6.7828,-6.7985,-6.7802,-6.7488,-6.7096,-6.6913,-6.6861,-6.6861,-6.6442,-6.6181,-6.6024,-6.6207,-6.6521,-6.6939,-6.7697,-6.8246,-6.8612,-8.6539,-8.6689,-8.6898,-8.7586,-8.7467,-8.7526,-8.8185,-8.8065,-8.8095,-8.8604,-8.8454,-8.8155,-8.7736,-8.8304,-8.8364,-8.7526,-8.8693,-8.9531,-8.9651,-8.9292,-8.9262,-8.9651,-8.7885,-8.6928,-8.7077,-8.5974,-8.5974,-8.7077,-8.5974,-8.5796,-8.6479,-8.621,-8.5372,-8.4008,-8.2367,-8.0912,-7.9383,-7.6247,-7.5761,-7.6692,-7.3578,-7.3575,-7.5131,-7.3099,-7.2181,-7.1884,-7.1143,-7.0546,-7.0102,-7.0468,-7.0363,-7.018,-7.086,-7.1226,-7.1409,-7.1409,-7.1565,-7.1696,-7.1356,-7.1278,-7.1356,-7.167,-7.1409,-7.0755,-6.9474,-6.9187,-6.8926,-6.7985,-6.7775,-6.7723,-6.7488,-6.7174,-6.6573,-6.5423,-6.5397,-6.5136,-6.4012,-6.4351,-6.4534,-6.4064,-6.4012,-6.3881,-6.3541,-6.3803,-6.3959,-6.3855,-6.4691,-6.5214,-6.5214,-6.5763,-6.6233,-6.6599,-6.6155,-6.639,-6.7436,-6.7357,-6.7227,-6.7122,-6.7697,-6.7854,-6.7619,-6.741,-6.7227,-6.707,-6.6861,-6.6782,-6.6782,-6.6416,-6.6286,-6.6312,-6.6521,-6.6939,-6.7514,-6.8115,-6.8533,-6.8764,-8.6449,-8.6629,-8.6868,-8.7496,-8.7107,-8.6898,-8.7526,-8.7077,-8.7137,-8.8424,-8.8035,-8.7646,-8.7706,-8.8245,-8.8604,-8.8604,-8.9801,-9.0309,-8.9711,-8.9681,-8.9681,-8.9741,-8.9112,-8.8484,-8.7885,-8.7635,-8.7605,-8.7796,-8.7545,-8.7575,-8.7766,-8.7018,-8.603,-8.4863,-8.4145,-8.2551,-8.0315,-7.8366,-7.7717,-7.7855,-7.5762,-7.6096,-7.761,-7.5845,-7.4819,-7.4079,-7.2382,-7.1379,-7.0907,-7.0684,-7.0598,-7.0598,-7.0651,-7.1017,-7.1409,-7.1461,-7.1879,-7.2297,-7.2297,-7.2297,-7.2297,-7.2297,-7.1513,-7.0598,-6.9971,-6.984,-6.9684,-6.9108,-6.9004,-6.8847,-6.8324,-6.822,-6.7854,-6.6704,-6.6913,-6.6834,-6.5684,-6.6024,-6.5946,-6.49,-6.477,-6.4743,-6.4691,-6.4639,-6.4848,-6.5423,-6.5972,-6.6312,-6.6364,-6.6782,-6.707,-6.7174,-6.7592,-6.788,-6.7985,-6.8455,-6.8168,-6.7174,-6.7723,-6.7645,-6.6991,-6.6495,-6.6521,-6.6913,-6.6416,-6.6207,-6.6207,-6.6207,-6.6233,-6.6338,-6.6887,-6.7462,-6.8063,-6.8638,-6.8764,-6.879,-8.5791,-8.6329,-8.6718,-8.6868,-8.6778,-8.6718,-8.6868,-8.6778,-8.6988,-8.7796,-8.7317,-8.7107,-8.7646,-8.7826,-8.7915,-8.7915,-8.9112,-8.983,-8.9681,-8.9681,-8.989,-9.0399,-8.9801,-8.9382,-8.9232,-8.7293,-8.7027,-8.8484,-8.6444,-8.6556,-8.8454,-8.7227,-8.6509,-8.621,-8.5013,-8.3884,-8.2658,-7.9049,-7.9376,-8.1899,-7.6899,-7.7093,-8.007,-7.7804,-7.6868,-7.651,-7.4814,-7.376,-7.3,-7.1215,-7.0598,-7.0677,-7.1095,-7.1304,-7.1487,-7.1958,-7.2193,-7.2297,-7.2297,-7.2297,-7.2297,-7.2297,-7.2114,-7.1775,-7.1173,-7.1043,-7.0886,-7.0337,-7.0206,-7.018,-7.0049,-7.0023,-6.9657,-6.8481,-6.8377,-6.8063,-6.6887,-6.6834,-6.6808,-6.6573,-6.6547,-6.6364,-6.5946,-6.5475,-6.5449,-6.605,-6.6207,-6.6469,-6.6887,-6.6625,-6.6861,-6.7775,-6.7044,-6.7096,-6.7985,-6.7645,-6.7566,-6.7802,-6.7932,-6.7462,-6.6442,-6.6338,-6.6076,-6.5737,-6.5632,-6.558,-6.558,-6.558,-6.5867,-6.6338,-6.6887,-6.7462,-6.8063,-6.8638,-6.8764,-6.8978,-8.5611,-8.6479,-8.7167,-8.7167,-8.6898,-8.6689,-8.6689,-8.6958,-8.7287,-8.7646,-8.7377,-8.7317,-8.7676,-8.7975,-8.8424,-8.9052,-8.9741,-9.013,-9.013,-9.0429,-9.0608,-9.0638,-9.0608,-9.0459,-9.013,-8.8801,-8.8475,-8.9142,-8.7824,-8.7824,-8.9142,-8.8125,-8.7107,-8.615,-8.5162,-8.3681,-8.1772,-7.8802,-7.9261,-8.1664,-7.7748,-7.7967,-8.0505,-7.9204,-7.7689,-7.6152,-7.5258,-7.4137,-7.3016,-7.1833,-7.1409,-7.1461,-7.1748,-7.1827,-7.1905,-7.2219,-7.2297,-7.2297,-7.2297,-7.2297,-7.2297,-7.2297,-7.2297,-7.214,-7.1539,-7.1409,-7.1252,-7.0703,-7.0598,-7.0598,-7.0598,-7.0598,-7.0389,-6.9788,-6.9448,-6.903,-6.8403,-6.8089,-6.7828,-6.7566,-6.7514,-6.7305,-6.673,-6.6155,-6.605,-6.6652,-6.6939,-6.7227,-6.7514,-6.7253,-6.7357,-6.7958,-6.741,-6.7253,-6.7566,-6.754,-6.741,-6.7174,-6.7174,-6.6704,-6.5841,-6.5841,-6.5684,-6.5371,-6.5371,-6.5371,-6.5371,-6.5371,-6.5737,-6.6338,-6.6887,-6.7462,-6.8063,-6.8638,-6.8764,-6.8894,-8.5581,-8.6689,-8.7676,-8.7556,-8.7048,-8.6689,-8.6689,-8.7167,-8.7556,-8.7676,-8.7616,-8.7616,-8.7856,-8.8454,-8.9292,-9.0369,-9.0668,-9.0758,-9.0638,-9.1357,-9.1536,-9.0997,-9.1506,-9.1476,-9.0818,-9.0818,-9.0489,-8.983,-8.9711,-8.9681,-8.9651,-8.8873,-8.7556,-8.5821,-8.5043,-8.3036,-8.0136,-7.8314,-7.8641,-8.0281,-7.8374,-7.8893,-8.0614,-8.0381,-7.8265,-7.5478,-7.5032,-7.378,-7.2297,-7.2297,-7.2297,-7.2297,-7.2297,-7.2297,-7.2297,-7.2297,-7.2297,-7.2297,-7.2297,-7.2297,-7.2297,-7.2297,-7.2297,-7.2167,-7.167,-7.1565,-7.1435,-7.099,-7.0886,-7.0886,-7.0886,-7.0886,-7.086,-7.0755,-7.0311,-6.9919,-6.9736,-6.9291,-6.8743,-6.8063,-6.7906,-6.7671,-6.7279,-6.673,-6.6652,-6.7227,-6.7723,-6.8037,-6.8115,-6.8037,-6.7985,-6.7985,-6.788,-6.754,-6.6965,-6.7462,-6.7174,-6.6129,-6.6129,-6.5867,-6.5371,-6.5371,-6.5371,-6.5371,-6.5371,-6.5449,-6.5528,-6.5528,-6.5946,-6.6625,-6.707,-6.7619,-6.8194,-6.8664,-6.8899,-6.9082,-8.5073,-8.6389,-8.7526,-8.6928,-8.6748,-8.6689,-8.6689,-8.6748,-8.7018,-8.7616,-8.7197,-8.7257,-8.8424,-8.9142,-8.9591,-8.9771,-9.0818,-9.1237,-9.0668,-9.1776,-9.2434,-9.2344,-9.2434,-9.2165,-9.1506,-9.1476,-9.1147,-9.0519,-8.995,-8.9681,-8.9651,-8.8424,-8.7377,-8.6479,-8.5252,-8.3302,-8.0853,-7.8484,-7.9206,-8.1636,-7.9278,-8.006,-8.253,-8.1397,-7.973,-7.7677,-7.559,-7.378,-7.2297,-7.2297,-7.2297,-7.2297,-7.2297,-7.2297,-7.2297,-7.2297,-7.2297,-7.2297,-7.2297,-7.2297,-7.2297,-7.2297,-7.2297,-7.2271,-7.2193,-7.2167,-7.2167,-7.2088,-7.2062,-7.2062,-7.2062,-7.2062,-7.1905,-7.1382,-7.1226,-7.0834,-6.984,-6.9631,-6.9187,-6.8115,-6.754,-6.7383,-6.7828,-6.7331,-6.7227,-6.7828,-6.7932,-6.8194,-6.869,-6.8272,-6.7985,-6.7985,-6.7488,-6.6939,-6.639,-6.6469,-6.6181,-6.5501,-6.5501,-6.5475,-6.5371,-6.5371,-6.5371,-6.5371,-6.5371,-6.5684,-6.6155,-6.6155,-6.6782,-6.7775,-6.7828,-6.822,-6.8743,-6.8738,-6.9161,-6.9657,-8.4893,-8.6329,-8.7616,-8.7317,-8.7257,-8.7257,-8.7257,-8.7556,-8.7915,-8.8215,-8.7676,-8.7766,-8.9082,-8.9501,-8.983,-9.016,-9.1087,-9.1506,-9.1207,-9.2075,-9.2434,-9.2075,-9.2045,-9.1925,-9.1626,-9.1267,-9.0938,-9.0638,-9.0339,-9.001,-8.9651,-8.8693,-8.7676,-8.6629,-8.5671,-8.4474,-8.2929,-7.9829,-8.0517,-8.3234,-7.9857,-7.9861,-8.1833,-8.0904,-7.8845,-7.6175,-7.4203,-7.2942,-7.2297,-7.2297,-7.2297,-7.2297,-7.2297,-7.2297,-7.2297,-7.2297,-7.2297,-7.2297,-7.2297,-7.2297,-7.2297,-7.2297,-7.2297,-7.2297,-7.2297,-7.2297,-7.2297,-7.2297,-7.2297,-7.2297,-7.2297,-7.2297,-7.2219,-7.1958,-7.1618,-7.1226,-7.0729,-7.0102,-6.9396,-6.856,-6.822,-6.8168,-6.8429,-6.822,-6.8168,-6.8455,-6.8481,-6.8586,-6.8821,-6.8298,-6.7854,-6.7514,-6.7227,-6.6834,-6.6286,-6.6286,-6.6155,-6.5867,-6.5554,-6.5554,-6.5867,-6.5528,-6.5737,-6.6286,-6.5658,-6.5894,-6.6704,-6.6416,-6.6965,-6.8011,-6.835,-6.8821,-6.9318,-6.9318,-6.9474,-6.9814]},{"header":{"parameterUnit":"m.s-1","parameterCategory":1,"la1":30.6,"la2":28.766,"lo1":-90.7593,"lo2":-88.6598,"dy":0.0162,"dx":0.0183,"nx":116,"ny":114,"refTime":"2024-03-23T06:00:00:Z","depth":0,"parameterNumber":3,"parameterNumberName":"V-component_of_WINDS"},"data":[0.0,0.0,0.0,0.0,0.0,0.0,0.0,0.0,0.0,0.0,0.0,0.0,0.0,0.0,0.0,0.0,0.0,0.0,0.0,0.0,0.0,0.0,0.0,0.0,0.0,0.0,0.0,0.0,0.0,0.0,0.0,0.0,0.0,0.0,0.0,0.0,0.0,0.0,0.0,0.0,0.0,0.0,0.0,0.0,0.0,0.0,0.0,0.0,0.0,0.0,0.0,0.0,0.0,0.0,0.0,0.0,0.0,0.0,0.0,0.0,0.0,0.0,0.0,0.0,0.0,0.0,0.0,0.0,0.0,0.0,0.0,0.0,0.0,0.0,0.0,0.0,0.0,0.0,0.0,0.0,0.0,0.0,0.0,0.0,0.0,0.0,0.0,0.0,0.0,0.0,0.0,0.0,0.0,0.0,0.0,0.0,0.0,0.0,0.0,0.0,0.0,0.0,0.0,0.0,0.0,0.0,0.0,0.0,0.0,0.0,0.0,0.0,0.0,0.0,0.0,0.0,0.0,0.0,0.0,0.0,0.0,0.0,0.0,0.0,0.0,0.0,0.0,0.0,0.0,0.0,0.0,0.0,0.0,0.0,0.0,0.0,0.0,0.0,0.0,0.0,0.0,0.0,0.0,0.0,0.0,0.0,0.0,0.0,0.0,0.0,0.0,0.0,0.0,0.0,0.0,0.0,0.0,0.0,0.0,0.0,0.0,0.0,0.0,0.0,0.0,0.0,0.0,0.0,0.0,0.0,0.0,0.0,0.0,0.0,0.0,0.0,0.0,0.0,0.0,0.0,0.0,0.0,0.0,0.0,0.0,0.0,0.0,0.0,0.0,0.0,0.0,0.0,0.0,0.0,0.0,0.0,0.0,0.0,0.0,0.0,0.0,0.0,0.0,0.0,0.0,0.0,0.0,0.0,0.0,0.0,0.0,0.0,0.0,0.0,0.0,0.0,0.0,0.0,0.0,0.0,0.0,0.0,0.0,0.0,0.0,0.0,0.0,0.0,0.0,0.0,0.0,0.0,0.0,0.0,0.0,0.0,0.0,0.0,0.0,0.0,0.0,0.0,0.0,0.0,0.0,0.0,0.0,0.0,0.0,0.0,0.0,0.0,0.0,0.0,0.0,0.0,0.0,0.0,0.0,0.0,0.0,0.0,0.0,0.0,0.0,0.0,0.0,0.0,0.0,0.0,0.0,0.0,0.0,0.0,0.0,0.0,0.0,0.0,0.0,0.0,0.0,0.0,0.0,0.0,0.0,0.0,0.0,0.0,0.0,0.0,0.0,0.0,0.0,0.0,0.0,0.0,0.0,0.0,0.0,0.0,0.0,0.0,0.0,0.0,0.0,0.0,0.0,0.0,0.0,0.0,0.0,0.0,0.0,0.0,0.0,0.0,0.0,0.0,0.0,0.0,0.0,0.0,0.0,0.0,0.0,0.0,0.0,0.0,0.0,0.0,0.0,0.0,0.0,0.0,0.0,0.0,0.0,0.0,0.0,0.0,0.0,0.0,0.0,0.0,0.0,0.0,0.0,0.0,0.0,0.0,0.0,0.0,0.0,0.0,0.0,0.0,0.0,0.0,0.0,0.0,0.0,0.0,0.0,0.0,0.0,0.0,0.0,0.0,0.0,0.0,0.0,0.0,0.0,0.0,0.0,0.0,0.0,0.0,0.0,0.0,0.0,0.0,0.0,0.0,0.0,0.0,0.0,0.0,0.0,0.0,0.0,0.0,0.0,0.0,0.0,0.0,0.0,0.0,0.0,0.0,0.0,0.0,0.0,0.0,0.0,0.0,0.0,0.0,0.0,0.0,0.0,0.0,0.0,0.0,0.0,0.0,0.0,0.0,0.0,0.0,0.0,0.0,0.0,0.0,0.0,0.0,0.0,0.0,0.0,0.0,0.0,0.0,0.0,0.0,0.0,0.0,0.0,0.0,0.0,0.0,0.0,0.0,0.0,0.0,0.0,0.0,0.0,0.0,0.0,0.0,0.0,0.0,0.0,0.0,0.0,0.0,0.0,0.0,0.0,0.0,0.0,0.0,0.0,0.0,0.0,0.0,0.0,0.0,0.0,0.0,0.0,0.0,0.0,0.0,0.0,0.0,0.0,0.0,0.0,0.0,0.0,0.0,0.0,0.0,0.0,0.0,0.0,0.0,0.0,0.0,0.0,0.0,0.0,0.0,0.0,0.0,0.0,0.0,0.0,0.0,0.0,0.0,0.0,0.0,0.0,0.0,0.0,0.0,0.0,0.0,0.0,0.0,0.0,0.0,0.0,0.0,0.0,0.0,0.0,0.0,0.0,0.0,0.0,0.0,0.0,0.0,0.0,0.0,0.0,0.0,0.0,0.0,0.0,0.0,0.0,0.0,0.0,0.0,0.0,0.0,0.0,0.0,0.0,0.0,0.0,0.0,0.0,0.0,0.0,0.0,0.0,0.0,0.0,0.0,0.0,0.0,0.0,0.0,0.0,0.0,0.0,0.0,0.0,0.0,0.0,0.0,0.0,0.0,0.0,0.0,0.0,0.0,0.0,0.0,0.0,0.0,0.0,0.0,0.0,0.0,0.0,0.0,0.0,0.0,0.0,0.0,0.0,0.0,0.0,0.0,0.0,0.0,0.0,0.0,0.0,0.0,0.0,0.0,0.0,0.0,0.0,0.0,0.0,0.0,0.0,0.0,0.0,0.0,0.0,0.0,0.0,0.0,0.0,0.0,0.0,0.0,0.0,0.0,0.0,0.0,0.0,0.0,0.0,0.0,0.0,0.0,0.0,0.0,0.0,0.0,0.0,0.0,0.0,0.0,0.0,0.0,0.0,0.0,0.0,0.0,0.0,0.0,0.0,0.0,0.0,0.0,0.0,0.0,0.0,0.0,0.0,0.0,0.0,0.0,0.0,0.0,0.0,0.0,0.0,0.0,0.0,0.0,0.0,0.0,0.0,0.0,0.0,0.0,0.0,0.0,0.0,0.0,0.0,0.0,0.0,0.0,0.0,0.0,0.0,0.0,0.0,0.0,0.0,0.0,0.0,0.0,0.0,0.0,0.0,0.0,0.0,0.0,0.0,0.0,0.0,0.0,0.0,0.0,0.0,0.0,0.0,0.0,0.0,0.0,0.0,0.0,0.0,0.0,0.0,0.0,0.0,0.0,0.0,0.0,0.0,0.0,0.0,0.0,0.0,0.0,0.0,0.0,0.0,0.0,0.0,0.0,0.0,0.0,0.0,0.0,0.0,0.0,0.0,0.0,0.0,0.0,0.0,0.0,0.0,0.0,0.0,0.0,0.0,0.0,0.0,0.0,0.0,0.0,0.0,0.0,0.0,0.0,0.0,0.0,0.0,0.0,0.0,0.0,0.0,0.0,0.0,0.0,0.0,0.0,0.0,0.0,0.0,0.0,0.0,0.0,0.0,0.0,0.0,0.0,0.0,0.0,0.0,0.0,0.0,0.0,0.0,0.0,0.0,0.0,0.0,0.0,0.0,0.0,0.0,0.0,0.0,0.0,0.0,0.0,0.0,0.0,0.0,0.0,0.0,0.0,0.0,0.0,0.0,0.0,0.0,0.0,0.0,0.0,0.0,0.0,0.0,0.0,0.0,0.0,0.0,0.0,0.0,0.0,0.0,0.0,0.0,0.0,0.0,0.0,0.0,0.0,0.0,0.0,0.0,0.0,0.0,0.0,0.0,0.0,0.0,0.0,0.0,0.0,0.0,0.0,0.0,0.0,0.0,0.0,0.0,0.0,0.0,0.0,0.0,0.0,0.0,0.0,0.0,0.0,0.0,0.0,0.0,0.0,0.0,0.0,0.0,0.0,0.0,0.0,0.0,0.0,0.0,0.0,0.0,0.0,0.0,0.0,0.0,0.0,0.0,0.0,0.0,0.0,0.0,0.0,0.0,0.0,0.0,0.0,0.0,0.0,0.0,0.0,0.0,0.0,0.0,0.0,0.0,0.0,0.0,0.0,0.0,0.0,0.0,0.0,0.0,0.0,0.0,0.0,0.0,0.0,0.0,0.0,0.0,0.0,0.0,0.0,0.0,0.0,0.0,0.0,0.0,0.0,0.0,0.0,0.0,0.0,0.0,0.0,0.0,0.0,0.0,0.0,0.0,0.0,0.0,0.0,0.0,0.0,0.0,0.0,0.0,0.0,0.0,0.0,0.0,0.0,0.0,0.0,0.0,0.0,0.0,0.0,0.0,0.0,0.0,0.0,0.0,0.0,0.0,0.0,0.0,0.0,0.0,0.0,0.0,0.0,0.0,0.0,0.0,0.0,0.0,0.0,0.0,0.0,0.0,0.0,0.0,0.0,0.0,0.0,0.0,0.0,0.0,0.0,0.0,0.0,0.0,0.0,0.0,0.0,0.0,0.0,0.0,0.0,0.0,0.0,0.0,0.0,0.0,0.0,0.0,0.0,0.0,0.0,0.0,0.0,0.0,0.0,0.0,0.0,0.0,0.0,0.0,0.0,0.0,0.0,0.0,0.0,0.0,0.0,0.0,0.0,0.0,0.0,0.0,0.0,0.0,0.0,0.0,0.0,0.0,0.0,0.0,0.0,0.0,0.0,0.0,0.0,0.0,0.0,0.0,0.0,0.0,0.0,0.0,0.0,0.0,0.0,0.0,0.0,0.0,0.0,0.0,0.0,0.0,0.0,0.0,0.0,0.0,0.0,0.0,0.0,0.0,0.0,0.0,0.0,0.0,0.0,0.0,0.0,0.0,0.0,0.0,0.0,0.0,0.0,0.0,0.0,0.0,0.0,0.0,0.0,0.0,0.0,0.0,0.0,0.0,0.0,0.0,0.0,0.0,0.0,0.0,0.0,0.0,0.0,0.0,0.0,0.0,0.0,0.0,0.0,0.0,0.0,0.0,0.0,0.0,0.0,0.0,0.0,0.0,0.0,0.0,0.0,0.0,0.0,0.0,0.0,0.0,0.0,0.0,0.0,0.0,0.0,0.0,0.0,0.0,0.0,0.0,0.0,0.0,0.0,0.0,0.0,0.0,0.0,0.0,0.0,0.0,0.0,0.0,0.0,0.0,0.0,0.0,0.0,0.0,0.0,0.0,0.0,0.0,0.0,0.0,0.0,0.0,0.0,0.0,0.0,0.0,0.0,0.0,0.0,0.0,0.0,0.0,0.0,0.0,0.0,0.0,0.0,0.0,0.0,0.0,0.0,0.0,0.0,0.0,0.0,0.0,0.0,0.0,0.0,0.0,0.0,0.0,0.0,0.0,0.0,0.0,0.0,0.0,0.0,0.0,0.0,0.0,0.0,0.0,0.0,0.0,0.0,0.0,0.0,0.0,0.0,0.0,0.0,0.0,0.0,0.0,0.0,0.0,0.0,0.0,0.0,0.0,0.0,0.0,0.0,0.0,0.0,0.0,0.0,0.0,0.0,0.0,0.0,0.0,0.0,0.0,0.0,0.0,0.0,0.0,0.0,0.0,0.0,0.0,0.0,0.0,0.0,0.0,0.0,0.0,0.0,0.0,0.0,0.0,0.0,0.0,0.0,0.0,0.0,0.0,0.0,0.0,0.0,0.0,0.0,0.0,0.0,0.0,0.0,0.0,0.0,0.0,0.0,0.0,0.0,0.0,0.0,0.0,0.0,0.0,0.0,0.0,0.0,0.0,0.0,0.0,0.0,0.0,0.0,0.0,0.0,0.0,0.0,0.0,0.0,0.0,0.0,0.0,0.0,0.0,0.0,0.0,0.0,0.0,0.0,0.0,0.0,0.0,0.0,0.0,0.0,0.0,0.0,0.0,0.0,0.0,0.0,0.0,0.0,0.0,0.0,0.0,0.0,0.0,0.0,0.0,0.0,0.0,0.0,0.0,0.0,0.0,0.0,0.0,0.0,0.0,0.0,0.0,0.0,0.0,0.0,0.0,0.0,0.0,0.0,0.0,0.0,0.0,0.0,0.0,0.0,0.0,0.0,0.0,0.0,0.0,0.0,0.0,0.0,0.0,0.0,0.0,0.0,0.0,0.0,0.0,0.0,0.0,0.0,0.0,0.0,0.0,0.0,0.0,0.0,0.0,0.0,0.0,0.0,0.0,0.0,0.0,0.0,0.0,0.0,0.0,0.0,0.0,0.0,0.0,0.0,4.9233,4.8282,0.0,0.0,0.0,0.0,0.0,0.0,0.0,0.0,0.0,0.0,0.0,0.0,0.0,0.0,0.0,0.0,0.0,0.0,0.0,0.0,0.0,0.0,0.0,0.0,0.0,0.0,4.3614,4.3765,4.3765,4.4041,0.0,0.0,0.0,0.0,4.4618,4.4895,4.5623,4.6777,4.7085,4.7436,4.7923,4.7865,4.6828,4.507,0.0,0.0,0.0,0.0,0.0,0.0,0.0,0.0,0.0,0.0,0.0,0.0,0.0,0.0,0.0,0.0,0.0,0.0,0.0,0.0,0.0,0.0,0.0,0.0,0.0,0.0,0.0,0.0,0.0,0.0,0.0,0.0,0.0,0.0,0.0,0.0,0.0,0.0,0.0,0.0,0.0,0.0,0.0,0.0,0.0,0.0,0.0,0.0,0.0,0.0,0.0,0.0,0.0,0.0,0.0,0.0,0.0,0.0,0.0,0.0,0.0,0.0,0.0,0.0,0.0,0.0,0.0,0.0,0.0,0.0,5.4158,5.1954,0.0,0.0,0.0,0.0,0.0,0.0,0.0,0.0,0.0,0.0,0.0,0.0,0.0,0.0,0.0,0.0,0.0,0.0,0.0,0.0,0.0,0.0,0.0,4.4518,4.4744,4.4267,4.4644,4.5003,4.5396,4.5294,4.5294,4.5396,4.5294,4.5229,4.5196,4.5809,4.718,4.9317,5.0055,5.1207,5.2746,5.2956,5.1125,4.7657,4.7682,0.0,0.0,0.0,0.0,0.0,0.0,0.0,0.0,0.0,0.0,0.0,0.0,0.0,0.0,0.0,0.0,0.0,0.0,0.0,0.0,0.0,0.0,0.0,0.0,0.0,0.0,0.0,0.0,0.0,0.0,0.0,0.0,0.0,0.0,0.0,0.0,0.0,0.0,0.0,0.0,0.0,0.0,0.0,0.0,0.0,0.0,0.0,0.0,0.0,0.0,0.0,0.0,0.0,0.0,0.0,0.0,0.0,0.0,0.0,0.0,0.0,0.0,0.0,6.2943,6.4276,6.5697,6.5225,6.511,6.5113,6.141,5.8035,5.5083,5.5121,0.0,0.0,0.0,0.0,0.0,0.0,0.0,0.0,0.0,0.0,0.0,0.0,0.0,0.0,0.0,0.0,0.0,0.0,0.0,0.0,0.0,4.5447,4.605,4.5974,4.605,4.6755,4.838,4.7971,4.786,4.8498,4.7971,4.7589,4.7456,4.8206,4.9027,4.9801,5.3697,5.6321,5.7599,5.9228,5.8693,5.6068,5.1875,5.1521,5.4026,0.0,0.0,0.0,0.0,0.0,0.0,0.0,0.0,0.0,0.0,0.0,0.0,0.0,0.0,0.0,0.0,0.0,0.0,0.0,0.0,0.0,0.0,0.0,0.0,0.0,0.0,0.0,0.0,0.0,0.0,0.0,0.0,0.0,0.0,0.0,0.0,0.0,0.0,0.0,0.0,0.0,4.8508,4.9669,0.0,0.0,0.0,0.0,0.0,0.0,0.0,0.0,0.0,0.0,0.0,0.0,0.0,5.9446,6.2406,6.4955,6.6829,6.7969,7.0861,7.1977,7.1414,7.1589,7.1691,7.1661,7.1098,0.0,5.9972,5.7547,0.0,0.0,0.0,0.0,0.0,0.0,0.0,0.0,0.0,0.0,0.0,0.0,0.0,0.0,0.0,0.0,0.0,0.0,0.0,0.0,0.0,4.8566,5.0165,4.9006,5.2539,5.4054,5.2366,5.2991,5.2749,5.1261,5.0532,5.0159,5.0067,5.0771,5.2418,5.5199,6.0599,6.3386,6.3633,6.5103,6.4486,6.2174,5.9282,5.7128,5.5668,5.5078,0.0,0.0,0.0,0.0,0.0,0.0,0.0,0.0,0.0,0.0,0.0,0.0,0.0,0.0,0.0,0.0,0.0,0.0,0.0,0.0,0.0,0.0,0.0,0.0,0.0,0.0,0.0,0.0,0.0,0.0,0.0,0.0,0.0,0.0,0.0,0.0,0.0,0.0,0.0,4.9262,5.0685,5.0211,5.112,5.0743,0.0,0.0,0.0,0.0,0.0,0.0,0.0,0.0,0.0,6.1348,6.322,6.5815,6.9151,7.137,7.3525,7.5716,7.7091,7.8119,7.8751,7.8148,7.7682,7.7322,7.6963,7.4001,6.9064,6.4427,6.1055,5.8578,0.0,0.0,0.0,0.0,5.6034,5.6974,0.0,0.0,0.0,0.0,0.0,0.0,0.0,0.0,0.0,0.0,0.0,0.0,4.8412,5.2231,5.465,5.433,5.8488,6.005,5.7713,5.7217,5.619,5.4254,5.2932,5.2236,5.2271,5.4041,5.7385,6.2247,6.7262,6.9687,6.9661,7.0232,6.9615,6.8054,6.7429,6.4145,5.9086,5.8292,5.7349,5.6333,0.0,0.0,0.0,0.0,0.0,0.0,0.0,0.0,0.0,0.0,0.0,0.0,0.0,0.0,0.0,0.0,0.0,0.0,0.0,0.0,0.0,0.0,0.0,0.0,0.0,0.0,0.0,0.0,0.0,0.0,0.0,0.0,0.0,0.0,0.0,0.0,0.0,5.1962,5.3181,5.1585,5.3936,5.3907,0.0,0.0,0.0,0.0,0.0,0.0,5.8435,6.0584,6.3466,6.7312,6.9621,7.2364,7.5762,7.7394,7.9574,8.229,8.229,8.3158,8.4714,8.3397,8.2409,8.1751,8.1123,7.9327,7.6455,7.0649,6.6311,6.3139,6.0805,5.9668,5.9398,5.9578,6.0146,6.0954,0.0,0.0,0.0,0.0,0.0,0.0,0.0,0.0,0.0,0.0,0.0,5.0281,5.3903,5.6014,5.8909,6.3015,6.1466,6.1666,6.5034,5.9121,5.6251,5.794,5.51,5.3488,5.3435,5.8808,6.4406,7.0159,7.2217,7.3912,7.5211,7.4562,7.4258,7.4475,7.5431,7.2964,6.7806,6.1836,6.1274,6.4004,5.9045,0.0,0.0,0.0,0.0,0.0,0.0,0.0,0.0,0.0,0.0,0.0,0.0,0.0,0.0,0.0,0.0,0.0,0.0,0.0,0.0,0.0,0.0,0.0,0.0,0.0,0.0,0.0,0.0,0.0,0.0,0.0,0.0,0.0,0.0,0.0,0.0,0.0,0.0,5.6142,5.9364,0.0,0.0,0.0,0.0,5.6026,5.8377,6.1164,6.4386,6.697,7.0366,7.4808,7.6633,7.8938,8.2064,8.3144,8.4652,8.6389,8.6389,8.6778,8.7467,8.612,8.5132,8.4474,8.3816,8.205,7.9208,7.3851,7.0799,6.9153,6.5951,6.5054,6.5413,6.4156,6.4545,6.5413,0.0,0.0,0.0,0.0,0.0,0.0,0.0,0.0,4.701,4.8433,5.1623,5.4597,5.6875,6.2792,6.7223,6.8855,7.0781,7.1221,6.97,6.5331,6.2399,6.1451,5.8317,5.7797,6.0228,6.4733,6.9104,7.3236,7.6313,7.8091,7.8548,7.9108,7.878,7.7861,7.9119,7.8178,7.542,7.0571,6.7644,6.578,6.1077,5.8,0.0,0.0,0.0,0.0,0.0,0.0,0.0,0.0,0.0,0.0,0.0,0.0,0.0,0.0,0.0,0.0,0.0,0.0,0.0,0.0,0.0,0.0,0.0,0.0,0.0,0.0,0.0,0.0,0.0,0.0,0.0,0.0,0.0,0.0,0.0,0.0,0.0,6.3022,6.6157,0.0,6.1135,6.1571,6.2441,6.3109,6.5896,6.8973,7.2195,7.4401,7.7194,8.0687,8.1571,8.3489,8.6639,8.6742,8.7602,8.9202,8.8364,8.8095,8.8274,8.6509,8.5342,8.4684,8.4025,8.2739,8.0913,7.8579,7.5587,7.2265,7.0231,6.9333,6.9093,6.8615,6.9004,6.9572,0.0,0.0,0.0,0.0,0.0,0.0,0.0,0.0,4.7769,4.9623,5.3844,5.7973,6.1267,6.8188,7.3357,7.5068,7.6587,7.6259,7.3472,6.8247,6.4619,6.3167,6.0845,6.1396,6.5257,6.9728,7.3699,7.7122,7.9351,8.061,8.0808,8.0337,8.0148,8.0302,8.0925,8.154,8.1826,7.855,7.4053,6.8799,6.4735,6.2209,6.0351,0.0,0.0,0.0,0.0,0.0,0.0,0.0,0.0,0.0,0.0,0.0,0.0,0.0,0.0,0.0,0.0,0.0,0.0,0.0,0.0,0.0,0.0,0.0,0.0,0.0,0.0,0.0,0.0,0.0,0.0,0.0,0.0,0.0,0.0,6.2645,6.6767,6.8015,7.176,7.2311,6.7405,6.8479,6.9757,7.0366,7.3008,7.5795,7.8582,8.0323,8.2401,8.4771,8.5222,8.6573,8.9068,8.8817,8.9186,9.0279,8.8993,8.8215,8.7945,8.618,8.5013,8.4354,8.3906,8.2858,8.1422,8.0973,7.8729,7.5437,7.433,7.3612,7.3193,7.2744,7.2864,7.2984,0.0,0.0,0.0,0.0,0.0,0.0,0.0,4.6307,4.7819,4.9756,5.4357,6.0148,6.7202,7.2021,7.6782,8.1833,7.8204,7.5853,7.6404,6.7463,6.2441,6.308,6.2558,6.4096,6.8073,7.3676,7.8465,8.2326,8.1565,8.1497,8.2002,7.8201,7.8368,8.2067,8.1443,8.3394,8.6855,8.4968,8.0236,7.3676,7.0337,6.7812,6.5693,0.0,0.0,0.0,0.0,0.0,0.0,0.0,0.0,0.0,0.0,0.0,0.0,0.0,0.0,0.0,0.0,0.0,0.0,0.0,0.0,0.0,0.0,0.0,0.0,0.0,0.0,0.0,0.0,0.0,0.0,0.0,0.0,0.0,6.0409,6.6535,7.0976,7.1092,7.6056,7.7769,7.3385,7.5243,7.6985,7.7566,7.9423,8.1339,8.3226,8.4503,8.5752,8.6971,8.761,8.8359,8.9297,8.9268,8.9448,8.9621,8.8304,8.7317,8.6569,8.5282,8.4325,8.3666,8.3666,8.2589,8.0794,8.0764,7.9986,7.8759,7.81,7.7831,7.7652,7.6395,7.5886,7.5437,0.0,0.0,0.0,0.0,0.0,0.0,4.6228,4.7069,4.8594,5.1494,5.7481,6.3661,6.9321,7.5998,8.1223,8.4039,8.0585,7.7566,7.5882,6.8073,6.337,6.3109,6.4677,6.8247,7.3966,7.7478,8.1136,8.4968,8.42,8.394,8.4134,8.3107,8.3107,8.4197,8.5426,8.637,8.6942,8.6419,8.4533,8.1426,7.5417,7.1266,6.8334,0.0,0.0,0.0,0.0,0.0,0.0,0.0,0.0,0.0,0.0,0.0,0.0,0.0,0.0,0.0,0.0,0.0,0.0,0.0,0.0,0.0,0.0,0.0,0.0,0.0,0.0,0.0,0.0,0.0,0.0,0.0,6.1687,6.5896,6.6999,7.1992,7.6608,7.9423,8.1978,8.282,8.1107,8.2007,8.2588,8.2268,8.4039,8.5374,8.5926,8.671,8.7319,8.7668,8.8186,8.8531,8.8787,8.8994,8.8849,8.8442,8.7426,8.6359,8.5222,8.4384,8.3397,8.232,8.232,8.1751,8.0764,8.0285,7.9866,7.9477,7.8789,7.822,7.7711,7.6874,7.5377,7.3642,0.0,0.0,0.0,0.0,0.0,0.0,4.5953,4.6795,4.8624,5.2158,5.8726,6.5228,7.0889,7.7653,8.2326,8.3749,8.0352,7.6811,7.3705,6.7812,6.4648,6.5083,6.8305,7.2456,7.7537,8.0701,8.3662,8.6419,8.5496,8.4972,8.4944,8.4134,8.4225,8.5061,8.6155,8.6975,8.7377,8.7377,8.6797,8.549,8.1136,7.7595,7.4518,7.0395,6.8363,6.7405,6.5054,6.4154,6.3661,6.0845,0.0,0.0,0.0,0.0,0.0,0.0,0.0,0.0,0.0,0.0,0.0,0.0,0.0,0.0,0.0,0.0,0.0,0.0,0.0,0.0,0.0,0.0,0.0,0.0,6.7434,7.2166,7.533,7.8117,8.0962,8.401,8.552,8.6129,8.5723,8.6042,8.61,8.5723,8.6739,8.7377,8.7377,8.7726,8.7929,8.7929,8.8188,8.8445,8.8616,8.8649,8.8351,8.7595,8.639,8.5312,8.4265,8.3337,8.2499,8.1781,8.1781,8.1242,8.0345,7.9986,7.9656,7.9357,0.0,0.0,0.0,0.0,7.4958,7.2924,0.0,0.0,0.0,0.0,0.0,0.0,4.4879,4.5982,4.8246,5.2165,5.8697,6.5315,7.1411,7.7275,8.1049,8.1717,7.8233,7.443,7.0657,6.7144,6.6273,6.8625,7.2776,7.6579,7.9888,8.3458,8.5897,8.7087,8.5899,8.5329,8.5329,8.3472,8.3653,8.5329,8.5329,8.6272,8.7929,8.7929,8.761,8.7029,8.6477,8.4678,8.1833,7.7653,7.5882,7.5156,7.1586,6.935,6.758,6.4357,0.0,0.0,0.0,0.0,0.0,0.0,0.0,0.0,0.0,0.0,0.0,0.0,0.0,0.0,0.0,0.0,0.0,0.0,0.0,0.0,0.0,0.0,0.0,0.0,7.3298,7.8175,8.3633,8.401,8.4358,8.6042,8.7232,8.7929,8.7929,8.7929,8.7929,8.7929,8.7929,8.7929,8.7929,8.7929,0.0,0.0,0.0,8.8158,8.8414,8.822,8.7576,8.6542,8.5088,8.4038,8.3291,8.22,8.1631,8.1572,8.1572,8.0853,7.9716,7.9716,7.9297,7.8669,7.8579,7.822,7.7532,7.6275,7.4569,7.2894,0.0,0.0,0.0,0.0,0.0,0.0,4.4879,4.5982,4.8391,5.2746,5.8552,6.3951,6.8305,7.4372,7.8407,7.9075,7.5592,7.1963,6.8654,6.7231,6.877,7.3821,7.6811,8.012,8.3894,8.5723,8.7,8.7755,8.7496,8.738,8.738,8.6915,8.7003,8.738,8.738,8.7554,8.7929,8.7929,8.7842,8.7726,8.761,8.5723,8.2733,8.0294,7.8088,7.6056,7.4285,7.4372,7.4866,7.1644,7.1034,7.0657,6.5373,6.1687,0.0,0.0,0.0,0.0,0.0,0.0,0.0,0.0,0.0,0.0,0.0,0.0,0.0,0.0,0.0,0.0,0.0,0.0,0.0,7.2485,7.7624,8.2181,8.5897,8.6768,8.7145,8.7523,8.7784,8.7929,8.7929,8.7929,8.7929,8.7929,8.7929,8.7929,8.7929,8.7929,8.7929,8.7929,8.8274,8.8097,8.7345,8.6936,8.5685,8.3621,8.2888,0.0,8.0914,8.0944,8.0704,8.0195,8.0195,7.9746,7.8998,7.8998,7.8609,7.7951,7.7412,7.7143,7.6874,7.5557,7.4151,7.2834,0.0,0.0,0.0,0.0,0.0,0.0,4.4443,4.5547,4.7724,5.1585,5.5729,5.9686,6.3335,6.7925,7.0621,7.0434,6.8489,6.7492,6.787,6.906,7.234,7.8117,8.0817,8.34,8.5984,8.6971,8.7149,8.6448,8.7467,8.738,8.6448,8.7467,8.7929,8.7929,8.7929,8.7929,8.7929,8.7929,8.7929,8.7929,8.7929,8.6971,8.5432,8.4126,8.2646,8.1078,7.9801,7.9307,7.8872,7.5969,7.4779,7.3676,6.8886,6.5838,6.3225,0.0,0.0,0.0,0.0,0.0,0.0,0.0,0.0,0.0,0.0,0.0,0.0,0.0,0.0,6.0903,6.3138,0.0,7.2892,7.803,8.1543,8.4649,8.7523,8.7929,8.7929,8.7929,8.7929,8.7929,8.7929,8.8219,8.8277,8.7958,8.8509,8.8597,8.7958,8.8219,8.8248,8.7929,8.8101,8.7722,8.6506,8.6217,8.4824,8.2326,8.1662,8.0846,7.987,7.9991,7.9811,7.9513,7.9733,7.9417,7.8759,7.843,7.81,7.7711,7.6754,7.6365,7.6215,7.4869,7.3762,7.2774,0.0,0.0,0.0,0.0,0.0,0.0,0.0,4.4671,4.6547,4.98,5.2304,5.4874,5.7805,6.1034,6.2612,6.1649,6.2352,6.4386,6.8015,7.1586,7.6114,8.1891,8.4387,8.6245,8.7523,8.7929,8.7379,8.5794,8.7235,8.709,8.5596,8.7177,8.7929,8.7929,8.7929,8.7929,8.7929,8.7929,8.7929,8.7929,8.7929,8.7929,8.7842,8.7232,8.6594,8.5868,8.4707,8.2733,8.0381,7.8582,7.6608,7.4343,7.1266,6.9699,6.8015,6.2964,6.1687,0.0,0.0,0.0,0.0,0.0,0.0,0.0,0.0,5.8087,5.9451,6.1164,6.3951,6.7086,7.0453,7.4314,7.8436,8.2849,8.4736,8.6361,8.8422,8.8248,8.7929,8.7929,8.7929,8.7929,8.7929,8.8393,8.848,8.7958,8.8887,8.9003,8.7987,8.8422,8.8451,8.7929,8.7813,8.7145,8.5868,8.5388,8.403,8.1604,8.0705,8.0023,7.9464,7.9041,7.8996,7.9085,7.9291,7.9079,7.8512,7.7856,7.7527,7.736,7.6225,7.5667,7.5377,7.43,7.3402,7.2505,0.0,0.0,0.0,0.0,0.0,0.0,0.0,0.0,4.4809,4.7985,4.9767,5.1369,5.2828,5.666,5.9038,5.8813,6.2902,6.6651,6.9379,7.414,7.9452,8.5229,8.6855,8.819,8.9467,8.9032,8.8684,8.848,8.8104,8.7756,8.7554,8.7843,8.7929,8.7929,8.7929,8.7929,8.7929,8.7929,8.7929,8.7929,8.7929,8.7929,8.7842,8.7232,8.6594,8.5926,8.5229,8.2268,7.8843,7.9685,7.832,7.6172,7.5737,7.4401,7.2079,6.7492,6.3835,6.0671,5.7855,5.5503,5.4604,5.7768,5.7536,5.8232,0.0,6.5635,6.5809,6.8828,7.1528,7.3821,7.5417,7.9307,8.2849,8.4591,8.6419,8.7726,8.7987,8.7987,8.7929,8.7929,8.7929,8.7929,8.7929,8.7987,8.7987,8.7929,8.8045,8.8074,8.7929,8.7987,8.7987,8.7929,8.7377,8.6477,8.52,8.4092,8.2465,8.046,7.9569,7.9155,7.9038,7.8152,7.811,7.8641,7.8051,7.7755,7.7711,7.7061,7.6686,7.6409,7.5665,7.4862,7.4091,7.3941,7.3103,7.1816,0.0,0.0,0.0,0.0,0.0,0.0,0.0,0.0,0.0,4.6139,4.6174,4.6464,4.7647,4.9902,5.1648,5.2642,5.8116,6.337,6.7812,7.4634,8.0933,8.6361,8.8161,8.9293,8.9816,8.9555,8.8679,8.7184,8.8044,8.7726,8.6272,8.738,8.7929,8.7843,8.6711,8.6244,8.6244,8.6244,8.6244,8.6332,8.7467,8.7697,8.7319,8.6681,8.462,8.2094,8.1804,8.0033,0.0,7.6724,7.594,7.5388,7.5795,7.4082,7.1469,6.9234,6.5606,6.1571,5.8203,5.7623,5.8116,5.861,6.0932,6.4009,6.7609,6.9466,7.1208,7.4024,7.6927,7.9365,8.0672,8.3342,8.5665,8.6594,8.7406,8.8045,8.8422,8.7523,8.6536,8.5781,8.5694,8.6274,8.7784,8.8248,8.8335,8.7958,8.8626,8.8713,8.7958,8.8277,8.8132,8.7406,8.7116,8.6013,8.401,8.3458,8.1833,7.9191,7.8794,7.823,7.7549,7.7398,7.7578,7.8006,7.7962,7.7709,7.7368,7.6932,7.6521,7.5935,7.4931,7.4254,7.3851,7.3462,7.2475,7.1128,0.0,0.0,0.0,0.0,0.0,0.0,0.0,0.0,0.0,0.0,4.3006,4.2839,4.4428,4.509,4.6236,4.8249,5.3849,5.9771,6.5693,7.356,8.0527,8.6216,8.8451,8.9435,8.9219,8.9075,8.7807,8.5303,8.701,8.6877,8.5061,8.7003,8.7929,8.7843,8.589,8.5329,8.5773,8.524,8.5329,8.5862,8.654,8.6831,8.645,8.4208,8.117,7.8001,7.7972,7.6143,7.3443,7.1586,7.1034,7.1295,7.2485,7.1528,6.9786,6.8973,6.5548,6.1367,5.8174,5.8958,6.0642,6.0438,6.4444,6.8799,7.0337,7.3153,7.6085,7.8262,8.0991,8.3313,8.4416,8.6071,8.7377,8.7842,8.8074,8.8219,8.8335,8.671,8.4939,8.3458,8.2994,8.3429,8.5142,8.7,8.7987,8.7697,8.8684,8.8887,8.7987,8.8364,8.8103,8.7,8.6652,8.5403,8.3226,8.2675,8.1136,7.864,7.8291,7.7624,7.6799,7.685,7.6973,7.7063,7.7358,7.7047,7.6398,7.6035,7.5625,7.5011,7.3852,7.3334,7.3148,7.2461,7.1571,7.05,0.0,0.0,0.0,0.0,0.0,0.0,0.0,0.0,0.0,0.0,0.0,0.0,0.0,4.404,4.4795,4.7612,5.1991,5.7332,6.3656,7.0744,7.7798,8.4852,8.7552,8.8526,8.7762,8.7227,8.5971,8.3888,8.4747,8.5061,8.5061,8.7003,8.7929,8.7843,8.589,8.6067,8.764,8.5802,8.6067,8.7583,8.5237,8.4989,8.5325,7.9168,7.591,7.4692,7.4663,7.025,6.4352,6.4294,6.3486,6.2906,6.5431,6.7028,6.7725,6.6476,6.2935,5.9103,5.7681,5.8319,6.038,6.4648,6.7725,7.0715,7.4459,7.7798,8.0468,8.1775,8.3633,8.52,8.5868,8.7029,8.79,8.7929,8.8451,8.8422,8.7203,8.5374,8.3429,8.1514,8.0207,7.9249,7.8727,8.3197,8.6361,8.6971,8.761,8.7958,8.7929,8.7958,8.7668,8.7,8.5781,8.4533,8.3197,8.1339,8.0004,7.9249,7.803,7.742,7.7362,7.6828,7.6189,7.5534,7.5608,7.523,7.4562,7.3951,7.3556,7.3169,7.2537,7.1953,7.1377,7.0694,7.0301,6.9901,0.0,0.0,0.0,0.0,0.0,0.0,0.0,0.0,0.0,0.0,0.0,0.0,0.0,0.0,0.0,0.0,4.8963,5.2911,5.8579,6.5427,7.186,7.7792,8.3135,8.549,8.4663,8.6096,8.5684,8.3196,8.485,8.5365,8.5061,8.7003,8.7177,8.589,8.3953,8.2648,8.2002,8.1258,8.1388,8.2037,8.2067,8.2368,8.2448,7.9005,7.432,6.9176,0.0,6.3951,6.0642,5.89,5.8581,5.9219,6.099,6.1222,6.0438,5.8348,5.9074,6.0264,5.8987,6.2035,6.6389,6.9583,7.295,7.6288,7.9278,8.1426,8.282,8.2849,8.3023,8.2965,8.2355,8.2588,8.3284,8.4591,8.5665,8.6652,8.7493,8.6332,8.3865,7.983,7.9307,7.8233,7.5475,7.983,8.3458,8.4939,8.6071,8.7029,8.7871,8.7523,8.6826,8.5752,8.4881,8.3604,8.1891,8.1223,8.0149,7.8698,7.7391,7.6782,7.6753,7.6114,7.5708,7.5475,7.5334,7.4853,7.4283,7.3884,7.3451,7.2816,7.2001,7.1296,7.073,7.0271,6.9538,6.8615,0.0,0.0,0.0,0.0,0.0,0.0,0.0,0.0,0.0,0.0,0.0,0.0,0.0,0.0,0.0,0.0,0.0,5.0138,5.4571,5.9782,6.5055,7.0286,7.489,7.7063,7.6619,7.7835,7.7684,7.6047,7.8277,7.9857,8.0791,8.2565,8.3163,8.264,8.0265,7.8933,7.8592,7.7847,7.7543,7.7455,7.6582,7.6057,7.5344,7.1699,6.7039,0.0,5.8842,5.6578,5.4923,5.3239,5.353,5.4749,5.5591,5.5736,5.5387,5.4197,5.7042,6.07,6.1454,6.5664,7.0628,7.3879,7.7072,7.9888,8.1775,8.3023,8.3255,8.1484,8.0585,7.9685,7.8175,7.7159,7.7537,8.0614,8.1426,8.2733,8.581,8.4562,8.2094,7.8785,7.7914,7.655,7.3879,7.7188,8.0497,8.2878,8.4707,8.6158,8.7203,8.7087,8.639,8.5142,8.4242,8.2849,8.0904,8.0439,7.9365,7.7711,7.6869,7.6346,7.6114,7.5708,7.5272,7.4808,7.4402,7.3832,7.3291,7.2859,7.2284,7.165,7.0796,7.0172,6.9624,6.8931,6.8326,6.7832,0.0,0.0,0.0,0.0,0.0,0.0,0.0,0.0,0.0,0.0,0.0,0.0,0.0,0.0,0.0,0.0,0.0,0.0,5.1497,5.3951,5.7551,6.2563,6.375,6.4409,6.4577,6.3729,6.3337,6.34,6.5958,6.8998,7.2613,7.4168,7.5931,7.7727,7.4868,7.4844,7.6841,7.4994,7.408,7.3459,6.8784,6.6454,6.4901,5.8274,5.5298,5.4149,5.0918,4.8885,4.7695,4.7753,4.8682,4.9814,4.9785,5.112,5.2949,5.4313,5.7042,6.0584,6.4938,6.8963,7.2951,7.7297,7.9731,8.1179,8.1817,8.2419,8.1746,7.7914,7.6462,7.5272,7.3327,7.1121,7.1237,7.6317,7.6404,7.7595,8.2704,8.0817,7.8814,7.8582,7.6433,7.4634,7.385,7.5446,7.7827,8.0904,8.3517,8.5287,8.5955,8.6565,8.6274,8.4968,8.3749,8.2181,8.0323,7.9046,7.7769,7.6596,7.6538,7.6114,7.5504,7.5475,7.475,7.3531,7.2863,7.2195,7.1586,7.0947,7.0308,6.967,6.9031,6.8564,6.8137,6.6879,6.6858,6.7489,0.0,0.0,0.0,0.0,0.0,0.0,0.0,0.0,0.0,0.0,0.0,0.0,0.0,0.0,0.0,0.0,0.0,0.0,4.6796,4.8095,5.0209,5.3583,5.7732,5.9664,5.9008,6.0618,6.0788,5.9382,6.1441,6.3218,6.4679,6.652,6.7059,6.6626,6.6236,6.5553,6.4746,6.4205,6.3983,6.3867,6.1759,6.0854,6.0441,5.7706,5.5007,5.2511,5.1141,4.885,4.6505,4.7462,4.9291,5.1149,5.112,5.2455,5.4458,5.6694,6.0613,6.4909,6.7957,7.2011,7.5752,7.7897,7.8746,7.9142,7.9284,7.8767,7.7217,7.3821,7.0337,6.7173,6.4793,6.5751,6.8421,7.3095,7.7159,8.1368,8.6071,8.6013,8.4242,8.0875,8.0788,7.9598,7.6085,7.7043,7.864,8.0381,8.2471,8.4155,8.5258,8.549,8.4765,8.2994,8.2123,8.1252,8.0323,7.9046,7.8001,7.7159,7.6666,7.6114,7.5475,7.4982,7.4082,7.2834,7.2195,7.1557,7.0918,7.0279,6.9641,6.9002,6.8631,6.7867,6.6879,6.6878,6.6656,6.6369,0.0,0.0,0.0,0.0,0.0,0.0,0.0,0.0,0.0,0.0,0.0,0.0,0.0,0.0,0.0,0.0,0.0,0.0,0.0,4.3823,4.4873,4.6751,4.9204,5.0623,5.0876,5.1753,5.2334,5.2452,5.3782,5.5606,5.7837,5.8487,5.8844,5.8965,5.8785,5.8408,5.7801,5.7801,5.7258,0.0,0.0,5.3295,5.2143,5.0932,4.9555,4.8263,4.8111,4.7661,4.7404,4.9262,5.1033,5.2688,5.411,5.6055,5.8406,6.1222,6.5083,6.9118,7.2282,7.5201,7.7612,7.865,7.8398,7.75,7.5539,7.4488,7.2485,6.7318,6.3777,6.0845,5.829,5.9974,6.3486,6.8828,7.3821,7.9075,8.5026,8.5578,8.4794,8.311,8.3081,8.221,7.9656,7.9801,8.0497,8.1484,8.2297,8.3313,8.4591,8.4649,8.4039,8.2675,8.1426,8.0236,7.9046,7.8059,7.7362,7.6985,7.6637,7.5969,7.5069,7.4692,7.3676,7.2166,7.1528,7.0744,6.9844,6.9205,6.8741,6.8305,6.7575,6.6999,6.6598,6.6236,6.5987,6.5819,0.0,0.0,0.0,0.0,0.0,0.0,0.0,0.0,0.0,0.0,0.0,0.0,0.0,0.0,0.0,0.0,0.0,0.0,0.0,0.0,4.1261,4.181,4.0927,4.1078,4.2509,4.1605,4.2308,4.4719,4.5196,4.7436,5.1206,5.0295,5.0869,5.2705,5.1859,5.2026,5.2929,5.2929,5.1825,4.9891,4.7857,4.5547,4.3274,0.0,4.2462,4.3399,4.4057,4.6044,4.8779,5.1786,5.3429,5.4865,5.8145,6.0932,6.3569,6.6648,6.9909,7.3139,7.6176,7.7718,7.843,7.8625,7.7565,7.5442,7.1178,6.9764,6.7434,6.0264,5.7448,5.5562,5.3181,5.4633,5.8232,6.4584,6.9118,7.4518,8.2355,8.2936,8.3255,8.5113,8.4445,8.3749,8.3575,8.2965,8.282,8.34,8.2675,8.2646,8.3662,8.3778,8.3487,8.2704,8.1049,7.9278,7.742,7.6869,7.655,7.6538,7.6538,7.5766,7.4518,7.4518,7.3414,7.1498,7.0947,6.9989,6.877,6.8247,6.7957,6.7754,6.6622,6.6418,6.6622,6.5519,6.5245,6.5475,0.0,0.0,0.0,0.0,0.0,0.0,0.0,0.0,0.0,0.0,4.0827,3.9697,0.0,0.0,0.0,0.0,0.0,0.0,0.0,0.0,0.0,4.0099,3.9948,3.9973,4.0249,4.0074,4.0224,4.0701,4.0802,4.1465,4.2645,4.2443,4.2826,4.3579,4.3935,4.4199,4.4375,4.4375,4.4148,4.3721,4.2811,4.1852,4.1053,4.0862,0.0,0.0,4.3681,4.5217,4.7131,5.2004,5.5709,5.8958,6.2674,6.5606,6.8027,7.0226,7.3478,7.6262,7.5321,7.6741,7.7694,7.486,7.305,7.0931,6.7165,6.4492,0.0,5.7013,5.3384,5.0569,4.9059,5.2107,5.6926,6.325,6.8915,7.533,8.3604,8.4649,8.5084,8.6506,8.6913,8.6681,8.5636,8.4968,8.4649,8.4765,8.3168,8.2036,8.1717,8.221,8.1746,8.0033,7.9656,7.8814,7.742,7.7304,7.6985,7.6538,7.6538,7.5766,7.4518,7.4518,7.3182,7.0889,7.0773,6.9989,6.8828,6.8712,6.8363,6.787,6.7638,6.6941,6.607,6.5867,6.5496,6.5124,0.0,0.0,0.0,0.0,0.0,0.0,0.0,0.0,4.2509,4.5598,4.4568,4.3011,0.0,0.0,0.0,0.0,0.0,0.0,0.0,0.0,0.0,0.0,3.9697,3.9697,3.9697,3.9697,3.9848,4.0124,0.0,3.9973,4.0501,4.0224,4.0224,4.0501,4.0752,4.1028,4.1304,4.1304,4.1304,4.1279,4.1028,4.0576,4.0099,0.0,0.0,0.0,4.2958,4.4308,4.5929,5.0186,5.4162,5.8255,6.3331,6.807,7.1812,7.1867,7.4759,7.7618,7.6737,7.6886,7.6747,7.4134,7.111,6.7456,6.2557,0.0,0.0,5.1866,4.9494,4.7927,4.6969,5.0481,5.5039,5.9771,6.4241,7.0395,7.9772,8.0817,8.2181,8.6477,8.7261,8.7203,8.6594,8.5345,8.4562,8.4562,8.2762,8.1833,8.221,8.1572,8.0468,7.8872,7.8494,7.7856,7.6927,7.6898,7.6753,7.6538,7.6538,7.5795,7.4547,7.4547,7.3327,7.1208,7.1208,7.0105,6.8334,6.8334,6.7957,6.7318,6.6999,6.668,6.6389,6.6041,6.5519,6.506,0.0,0.0,0.0,0.0,0.0,0.0,0.0,4.4066,4.4819,4.9414,4.8636,4.6778,4.4468,4.1932,4.0199,0.0,0.0,0.0,0.0,0.0,0.0,0.0,0.0,0.0,3.9697,0.0,0.0,4.035,3.9898,0.0,0.0,0.0,0.0,0.0,3.9697,3.9923,4.035,4.035,4.035,0.0,0.0,4.0074,0.0,0.0,0.0,0.0,0.0,4.3242,4.4765,4.792,5.135,5.5196,6.0387,6.7128,7.2876,7.1741,7.4526,7.7868,7.7251,7.6887,7.6047,7.3729,6.9605,6.4613,5.895,5.5388,0.0,4.7672,4.6546,4.6301,4.5953,4.902,5.2688,5.6142,5.9393,6.4967,7.4982,7.655,7.9133,8.5781,8.6826,8.6971,8.6971,8.549,8.4445,8.43,8.25,8.1746,8.253,8.1136,7.9714,7.8436,7.7885,7.7246,7.6538,7.6538,7.6538,7.6538,7.6317,7.5737,7.475,7.4488,7.3443,7.1876,7.1731,7.0308,6.8073,6.8073,6.7696,6.7057,6.6535,6.6564,6.6825,6.6331,6.5635,6.506,0.0,0.0,0.0,0.0,0.0,0.0,0.0,4.4141,4.62,5.313,5.1322,4.9088,4.8335,4.492,4.1882,0.0,0.0,0.0,0.0,0.0,0.0,0.0,0.0,0.0,0.0,0.0,0.0,3.9772,3.9722,0.0,0.0,0.0,0.0,0.0,0.0,3.9722,3.9772,3.9772,0.0,0.0,0.0,0.0,0.0,0.0,0.0,0.0,0.0,4.2065,4.3431,4.6257,4.8492,5.0363,5.2013,5.9977,6.8738,6.8992,0.0,0.0,7.3925,7.5216,7.6212,7.1784,6.7085,6.2394,5.8073,0.0,4.8872,4.7124,4.5895,4.5227,4.5779,4.7172,4.9669,5.4052,5.7477,6.2732,7.1789,7.5504,7.9307,8.462,8.6274,8.6971,8.6971,8.6303,8.5607,8.5026,8.3197,8.1659,8.0614,8.041,7.9714,7.8436,7.8349,7.7711,7.6538,7.6538,7.6538,7.6538,7.5882,7.5534,7.5388,7.4227,7.3269,7.2485,7.1934,7.057,6.8741,6.8741,6.8363,6.7783,6.7725,6.7376,6.6883,6.6825,6.6041,6.4996,0.0,0.0,0.0,0.0,0.0,0.0,0.0,4.4016,4.5748,5.3984,5.2754,5.1147,5.1272,4.8083,4.4267,0.0,0.0,0.0,0.0,0.0,0.0,0.0,0.0,0.0,0.0,0.0,3.9697,3.9697,3.9697,0.0,0.0,0.0,0.0,0.0,0.0,3.9697,3.9697,3.9697,0.0,0.0,0.0,0.0,0.0,0.0,0.0,0.0,0.0,0.0,4.1103,4.2232,4.3913,4.5641,4.6129,5.0998,5.7424,6.2275,6.7611,7.2038,7.2581,7.4091,7.4819,7.1545,6.6967,6.1953,5.7447,0.0,4.8286,4.6622,4.5518,4.5082,4.5779,4.6301,4.7462,5.0046,5.004,5.2951,6.2119,6.4281,6.8636,7.8707,8.1049,8.3168,8.6652,8.5374,8.4039,8.34,8.2617,8.163,8.0381,7.9569,7.8727,7.7827,7.7449,7.6985,7.6538,7.6538,7.6259,7.5882,7.6027,7.5475,7.4372,7.4634,7.3966,7.2602,7.234,7.0947,6.8828,6.8828,6.8218,6.7289,6.7289,6.7115,6.6883,6.6883,6.607,6.5025,0.0,0.0,0.0,0.0,0.0,3.8894,4.4694,4.4192,4.5974,5.3858,5.3256,5.2327,5.2879,4.9339,4.5372,4.148,0.0,0.0,0.0,0.0,0.0,0.0,0.0,0.0,0.0,0.0,3.9697,3.9697,3.9697,3.9697,0.0,0.0,3.9697,3.9697,0.0,0.0,0.0,0.0,0.0,0.0,0.0,0.0,0.0,0.0,0.0,0.0,0.0,0.0,0.0,0.0,0.0,4.2007,4.2007,4.4116,4.8134,5.6043,6.229,6.737,7.0468,7.2439,7.3167,7.1108,6.6069,6.0444,0.0,0.0,4.6751,4.5642,4.502,4.4821,4.5459,4.5576,4.5834,4.6627,4.5533,4.7412,5.5701,5.742,6.2016,7.3197,7.5795,7.8814,8.4184,8.4126,8.34,8.2559,8.2297,8.1543,8.0091,7.8988,7.8088,7.742,7.6985,7.6637,7.6538,7.6538,7.6143,7.5504,7.5766,7.5185,7.3908,7.443,7.4024,7.2892,7.2718,7.1179,6.8828,6.8828,6.8044,6.6883,6.6883,6.6883,6.6883,6.6883,6.607,6.5083,0.0,0.0,0.0,0.0,0.0,0.0,0.0,4.4744,4.7431,5.3005,5.2779,5.2327,5.2879,4.7983,4.4644,4.4568,0.0,0.0,0.0,0.0,0.0,0.0,0.0,0.0,0.0,0.0,3.9697,3.9697,3.9697,3.9697,3.9697,3.9697,3.9697,3.9697,0.0,0.0,0.0,0.0,0.0,0.0,0.0,0.0,0.0,0.0,0.0,0.0,0.0,0.0,0.0,0.0,0.0,0.0,0.0,4.0501,4.2981,5.1348,5.77,6.2898,6.6789,6.9853,7.1535,6.9878,6.3651,5.7192,0.0,4.8289,4.3547,4.419,4.4155,4.4182,4.4792,4.4908,4.4771,4.4414,4.5934,4.9188,5.5026,5.854,6.2872,6.9137,7.1528,7.443,7.893,8.282,8.4533,8.3284,8.2559,8.1339,7.9423,7.8727,7.8088,7.742,7.7391,7.7101,7.6538,7.6538,7.6143,7.5504,7.4837,7.4547,7.4591,7.324,7.3008,7.356,7.2892,7.1179,6.8828,6.8828,6.8044,6.6883,6.6883,6.6883,6.6883,6.6883,6.607,6.5083,0.0,0.0,0.0,0.0,0.0,0.0,0.0,4.04,4.2233,4.7405,4.7456,4.7933,5.0393,4.7054,4.4618,4.4618,0.0,0.0,0.0,0.0,0.0,0.0,0.0,0.0,0.0,0.0,4.0249,4.1433,4.1433,4.1634,4.1932,4.1555,4.0978,4.0249,3.9848,3.9697,0.0,0.0,0.0,0.0,0.0,0.0,0.0,0.0,0.0,0.0,0.0,0.0,0.0,0.0,0.0,0.0,0.0,0.0,0.0,4.5171,5.1096,5.6922,5.9684,6.2169,6.34,6.1014,5.7557,5.3793,5.0406,4.6853,4.4283,4.4274,4.3585,4.3351,4.4675,4.4879,4.5428,4.7041,4.6454,4.7298,5.1649,5.55,6.0365,6.7004,7.605,8.2181,8.3168,8.3952,8.4068,8.3255,8.2152,8.0875,7.9365,7.8727,7.8088,7.742,7.6985,7.6666,7.6538,7.6538,7.5911,7.4837,7.5069,7.4518,7.324,7.3705,7.356,7.2863,7.1789,7.0366,6.877,6.787,6.6999,6.6273,6.6709,6.6622,6.6273,6.6709,6.607,6.5083,0.0,0.0,0.0,0.0,0.0,0.0,0.0,3.8642,4.0149,4.3489,4.379,4.497,4.8309,4.5146,4.3263,4.4518,0.0,0.0,0.0,0.0,0.0,0.0,0.0,0.0,0.0,3.9898,4.1028,4.3087,4.3514,4.4116,4.4844,4.4777,4.3514,4.143,4.1078,4.0475,0.0,0.0,0.0,0.0,0.0,0.0,4.0895,0.0,0.0,0.0,0.0,0.0,0.0,0.0,0.0,0.0,0.0,0.0,0.0,0.0,4.5673,5.0469,5.416,5.6771,5.8052,5.6319,5.3673,5.0753,4.788,4.5197,4.326,4.2917,4.2657,4.2603,4.3041,4.3453,4.3938,4.4734,4.3803,4.4552,4.919,5.3027,5.859,6.7301,7.7107,8.3081,8.2907,8.3633,8.372,8.2878,8.1601,8.041,7.9365,7.8494,7.7827,7.742,7.6782,7.6538,7.6538,7.6538,7.5795,7.4518,7.4924,7.4256,7.2631,7.3443,7.324,7.2195,7.1179,6.9873,0.0,6.758,6.6883,6.636,6.6999,6.6854,6.636,6.7028,6.6302,6.5112,0.0,0.0,0.0,0.0,0.0,0.0,0.0,0.0,0.0,0.0,4.158,4.3112,4.625,4.2459,4.0927,0.0,0.0,0.0,0.0,0.0,0.0,0.0,0.0,0.0,0.0,4.0325,4.1982,4.4744,4.5874,4.6979,4.8109,4.8586,4.6778,4.3087,4.3011,4.1756,0.0,0.0,0.0,0.0,4.0745,4.1412,0.0,0.0,0.0,0.0,0.0,0.0,0.0,0.0,0.0,0.0,0.0,0.0,0.0,0.0,0.0,0.0,0.0,5.2854,5.4486,5.4361,5.1222,4.7782,4.62,4.338,0.0,4.0638,4.1482,4.1914,4.0722,4.1024,4.0979,3.9427,3.952,4.1852,4.7783,5.1834,5.8417,6.9916,7.5679,7.8901,7.9452,8.2152,8.3371,8.2152,8.0933,7.9917,7.9191,7.8059,7.7391,7.7333,7.6753,7.6538,7.6538,7.6479,7.5766,7.4518,7.4459,7.3792,7.2602,7.2573,7.2224,7.1615,7.086,6.9525,6.787,6.7725,6.7318,6.6825,6.7492,6.7376,6.6883,6.758,6.6651,6.5228,0.0,0.0,0.0,0.0,0.0,0.0,0.0,0.0,0.0,0.0,3.9295,4.0151,4.1304,4.04,3.9998,0.0,0.0,0.0,0.0,0.0,0.0,0.0,0.0,0.0,0.0,4.1279,4.3137,4.5924,4.7004,4.8309,4.9816,4.954,4.7556,4.4192,4.3363,4.1756,3.9697,0.0,0.0,0.0,4.1075,4.125,0.0,0.0,0.0,0.0,4.0945,4.1019,0.0,0.0,0.0,0.0,0.0,0.0,0.0,0.0,4.0174,4.0877,4.2735,0.0,4.5598,4.4317,4.3237,4.2233,0.0,4.1234,4.1392,4.207,4.1781,4.1773,4.3037,4.1791,4.1423,4.4192,4.3833,4.4617,4.8519,5.6685,6.6076,7.6046,7.9656,8.1368,8.1484,8.1717,8.1572,8.0788,7.9975,7.9046,7.7914,7.7566,7.7188,7.6695,7.6521,7.6538,7.6538,7.5969,7.533,7.4518,7.4053,7.3414,7.2602,7.2108,7.1818,7.1557,6.9466,6.8305,6.7754,6.6273,6.5577,6.5489,6.6128,6.6302,6.6244,6.6883,6.6506,6.5809,0.0,0.0,0.0,0.0,0.0,0.0,0.0,0.0,0.0,0.0,0.0,0.0,0.0,0.0,0.0,0.0,0.0,0.0,0.0,0.0,0.0,0.0,0.0,0.0,4.0849,4.1982,4.4141,4.7431,4.8786,5.0444,5.2327,5.2277,4.9791,4.5296,4.2635,4.0802,3.9749,4.0517,4.1106,4.1638,4.2113,0.0,0.0,0.0,0.0,0.0,4.1169,4.1518,0.0,4.1104,4.1207,4.1537,0.0,0.0,0.0,0.0,3.9697,3.9747,4.0049,4.1153,4.2082,4.143,4.1078,4.0802,4.0526,4.049,4.0716,4.1519,4.1176,4.0938,4.1563,4.0649,4.0553,4.2675,4.3253,4.5844,5.2906,6.1852,7.0561,7.8369,8.0497,8.1659,8.2559,8.1775,8.0817,7.9917,7.9249,7.8465,7.7449,7.713,7.6811,7.6538,7.6538,7.6317,7.6027,7.5679,7.504,7.4082,7.3443,7.2979,7.2573,7.1673,7.1063,7.0686,6.8741,6.7696,6.7318,6.5983,6.5606,6.5925,6.6564,6.6651,6.6447,6.7086,6.6738,6.5983,0.0,0.0,0.0,0.0,0.0,0.0,0.0,0.0,0.0,0.0,0.0,0.0,0.0,0.0,0.0,0.0,0.0,0.0,0.0,0.0,0.0,0.0,0.0,4.1626,4.1777,4.266,4.502,4.8887,5.067,5.2653,5.4838,5.5566,5.2553,4.6376,4.2359,4.0249,3.9774,4.1132,4.1903,4.2159,4.2935,0.0,0.0,0.0,0.0,0.0,0.0,0.0,0.0,4.2042,4.2028,4.2031,4.1773,0.0,0.0,0.0,0.0,0.0,4.0099,4.0953,4.1731,4.181,4.1505,4.115,4.105,4.0612,4.0287,4.069,4.0732,4.0469,3.9832,3.9773,3.9868,3.9956,4.2312,4.8068,5.938,6.6668,7.2966,7.864,7.9975,8.1049,8.2617,8.163,8.041,7.9249,7.8582,7.7972,7.7304,7.6753,7.6538,7.6538,7.6375,7.5998,7.5359,7.5359,7.4721,7.3443,7.2776,7.2427,7.2282,7.1121,7.0221,6.9554,6.8276,6.7347,6.668,6.6041,6.6157,6.6767,6.726,6.7202,6.6941,6.7405,6.6883,6.5925,0.0,0.0,0.0,0.0,0.0,0.0,0.0,0.0,0.0,0.0,0.0,0.0,0.0,0.0,0.0,0.0,0.0,0.0,0.0,0.0,0.0,0.0,4.2233,4.3162,4.4034,4.384,4.5573,4.9464,5.1624,5.3808,5.5993,5.7499,5.4461,4.7668,4.5522,4.2785,3.9697,3.9979,4.0824,4.2082,4.171,0.0,0.0,0.0,0.0,0.0,0.0,0.0,0.0,4.0874,4.1298,4.1799,4.0007,0.0,0.0,0.0,0.0,0.0,4.1957,4.2936,4.2886,4.0626,4.035,4.0526,4.0049,4.1175,4.2328,4.2442,4.2415,4.2786,4.4006,4.2882,4.2525,4.4723,4.9393,5.6245,6.6104,6.9889,7.357,7.8736,8.0323,8.0962,8.0759,8.0033,7.9307,7.8582,7.7943,7.7275,7.6637,7.6596,7.6538,7.6538,7.594,7.533,7.4663,7.4663,7.4024,7.2776,7.2108,7.1528,7.0976,7.025,6.9583,6.8886,6.7609,6.668,6.6041,6.5402,6.5519,6.6041,6.5606,6.6012,6.6825,6.6389,6.6099,6.5925,0.0,0.0,0.0,0.0,0.0,0.0,0.0,0.0,0.0,0.0,0.0,0.0,0.0,0.0,0.0,0.0,0.0,0.0,0.0,0.0,0.0,4.3489,4.3765,4.4242,4.507,4.5999,4.8385,5.2277,5.5089,5.7474,5.9307,5.7047,5.3281,4.8322,4.5397,4.2635,4.0176,4.131,4.2081,4.2552,0.0,0.0,0.0,0.0,0.0,0.0,0.0,0.0,0.0,0.0,4.2393,4.2658,4.1413,0.0,0.0,0.0,0.0,0.0,4.0927,4.1831,4.2398,4.2133,4.265,4.2644,4.0901,4.1716,4.3176,4.4387,4.4184,4.4486,4.649,4.6303,4.7405,5.226,5.7443,6.2961,6.8963,7.1805,7.4764,7.8794,7.9801,8.0468,8.1252,8.0091,7.9046,7.8465,7.7769,7.713,7.6567,7.6538,7.6288,7.5969,7.565,7.504,7.4024,7.3676,7.3008,7.2108,7.1469,7.1005,7.0686,6.9699,6.8915,6.8276,6.7667,6.6854,6.5896,6.5606,6.5664,6.5896,6.5606,6.5867,6.6331,6.6041,6.5925,6.5867,0.0,0.0,0.0,0.0,0.0,0.0,0.0,0.0,0.0,0.0,0.0,0.0,0.0,0.0,0.0,0.0,0.0,0.0,0.0,0.0,4.1781,4.4593,4.502,4.5974,4.7581,4.9138,5.195,5.6118,5.9433,6.1843,6.3249,5.7801,5.3206,4.9389,4.5497,4.2635,4.0782,4.2105,4.2598,4.2606,0.0,0.0,0.0,0.0,0.0,0.0,0.0,0.0,0.0,0.0,0.0,0.0,0.0,0.0,0.0,4.0641,4.008,3.9874,4.0843,4.1392,4.1998,4.3329,4.4221,4.4565,4.357,4.3822,4.498,4.7494,4.7374,4.7418,4.9388,5.068,5.3432,5.9472,6.4453,6.8712,7.1938,7.4476,7.6869,7.9423,7.9743,8.0265,8.1601,8.0149,7.8843,7.8204,7.7566,7.6985,7.6567,7.6317,7.5998,7.5534,7.5214,7.4518,7.3385,7.2718,7.2079,7.144,7.0802,7.0424,7.025,6.9118,6.8247,6.7638,6.7492,6.6767,6.5722,6.5722,6.5809,6.5925,6.5925,6.5925,6.5896,6.5751,6.5722,6.5635,0.0,0.0,0.0,0.0,0.0,0.0,0.0,0.0,0.0,0.0,0.0,0.0,0.0,0.0,0.0,0.0,0.0,0.0,0.0,0.0,4.1078,4.2389,4.5321,4.9138,5.3808,5.3532,5.5767,6.0713,6.4028,6.6237,6.7267,6.2245,5.7022,5.1699,4.7807,4.4292,4.1204,4.0331,4.0559,4.1496,4.2492,0.0,0.0,0.0,0.0,0.0,0.0,0.0,0.0,0.0,0.0,0.0,0.0,0.0,4.1331,4.2423,4.1337,4.051,4.408,4.3998,4.2791,4.2423,4.2723,4.4256,4.8735,4.9186,4.9559,5.2708,5.3274,5.3355,5.3906,5.6813,6.0431,6.4362,6.8911,7.3331,7.7289,7.8997,8.0178,8.0962,8.1049,8.0904,8.0468,7.9249,7.8204,7.7537,7.6898,7.6596,7.6538,7.5911,7.5563,7.5504,7.4372,7.3414,7.2689,7.205,7.1411,7.0773,7.0163,6.9525,6.8944,6.8247,6.758,6.6912,6.6331,6.5693,6.5054,6.5054,6.5402,6.5925,6.5925,6.5925,6.5867,6.5257,6.5054,6.5054,0.0,0.0,0.0,0.0,0.0,0.0,0.0,0.0,0.0,0.0,0.0,0.0,0.0,0.0,0.0,0.0,0.0,0.0,0.0,0.0,4.1279,4.4116,4.61,4.9138,5.3457,5.7047,6.1316,6.6312,6.8597,6.9225,6.8196,6.2144,5.657,5.1448,4.7883,4.5422,4.3847,4.269,4.283,4.3733,4.2389,4.17,0.0,0.0,0.0,0.0,0.0,0.0,0.0,0.0,4.289,4.3031,4.1779,4.1822,4.2137,4.1593,4.0387,3.9649,4.1813,4.2464,4.2705,4.3627,4.4681,4.6228,4.9199,5.1532,5.4179,5.8204,5.9009,5.8791,5.8286,6.184,6.5351,6.6871,7.155,7.5935,7.8562,7.9743,8.0527,8.1136,8.0875,8.0556,8.0323,7.8785,7.7682,7.742,7.6433,7.5882,7.5882,7.5243,7.4518,7.3734,7.324,7.2485,7.144,7.0802,7.0366,7.0134,6.9902,6.9437,6.8799,6.8189,6.7522,6.6883,6.6622,6.5925,6.5025,6.5402,6.5722,6.5925,6.5925,6.6157,6.6389,6.5373,6.5489,6.6099,0.0,0.0,0.0,0.0,0.0,0.0,0.0,0.0,0.0,0.0,0.0,0.0,0.0,0.0,0.0,0.0,0.0,0.0,3.9697,3.9697,4.1028,4.4041,4.5899,4.8937,5.3356,5.9583,6.4705,6.8673,7.1736,7.156,6.8246,6.2446,5.7374,5.2929,4.9063,4.733,4.7191,4.5309,4.4655,4.4716,4.2784,4.1676,0.0,0.0,0.0,0.0,0.0,0.0,0.0,0.0,4.307,4.3398,4.2739,4.2798,4.2995,4.2471,4.1256,4.0304,4.1201,4.1544,4.2053,4.4019,4.603,4.8489,5.2478,5.5167,5.8406,6.3743,6.3838,6.2644,6.1603,6.4813,6.763,6.7804,7.3028,7.7595,7.9075,7.9685,8.0149,8.0556,8.0062,7.9627,7.9394,7.8175,7.7333,7.713,7.6114,7.5504,7.5504,7.4488,7.3501,7.2631,7.2224,7.1498,7.0424,6.9989,6.9583,6.9176,6.9176,6.8944,6.8509,6.7667,6.7028,6.6564,6.636,6.578,6.5025,6.546,6.5751,6.5896,6.5722,6.6012,6.6476,6.5606,6.5838,6.6535,0.0,0.0,0.0,0.0,0.0,0.0,0.0,0.0,0.0,0.0,0.0,0.0,0.0,0.0,0.0,0.0,0.0,0.0,3.9697,3.9697,4.0199,4.1225,4.4518,4.8862,5.4361,6.0989,6.5258,6.7015,7.3042,7.3167,6.7668,6.3776,6.0186,5.6771,5.185,5.0243,5.1129,4.7733,4.5376,4.3866,4.3748,4.2694,4.1214,0.0,0.0,0.0,0.0,0.0,0.0,0.0,4.3166,4.262,4.5223,4.4874,4.3778,4.5557,4.4546,4.2897,4.3277,4.1869,4.0841,4.317,4.6174,5.085,5.9538,6.0879,6.2259,6.928,6.7633,6.4648,6.3695,6.5346,6.6944,6.7263,7.3557,7.8582,7.9191,7.9278,7.9278,7.9278,7.8756,7.8146,7.7478,7.7391,7.713,7.6567,7.5853,7.5504,7.5475,7.3647,7.2602,7.2573,7.1353,7.0395,6.9757,6.9757,6.9118,6.787,6.787,6.787,6.7841,6.6535,6.5925,6.5896,6.5257,6.4996,6.4996,6.4996,6.5373,6.5867,6.5257,6.5373,6.5954,6.5925,6.5954,6.6041,0.0,0.0,0.0,0.0,0.0,0.0,0.0,0.0,0.0,0.0,0.0,0.0,0.0,0.0,0.0,0.0,0.0,0.0,3.9749,3.9697,4.0023,4.0727,4.3966,4.6502,4.8134,5.5842,6.3324,7.0455,7.1083,6.8773,6.3676,6.0964,5.7901,5.4708,5.468,5.3875,5.2453,5.0079,4.8959,4.8535,4.5579,4.3676,4.2497,0.0,0.0,0.0,0.0,0.0,0.0,0.0,0.0,0.0,4.4818,4.538,4.5845,4.4655,4.3633,4.2753,4.2343,4.2052,4.2552,4.5533,4.9171,5.4057,6.1703,6.385,6.6075,7.2733,7.2807,7.1066,6.8883,6.8838,6.9219,6.9531,7.2772,7.5858,7.7703,7.8378,7.8669,7.8669,7.8088,7.7624,7.742,7.7014,7.6666,7.6538,7.5417,7.4634,7.4198,7.2776,7.1324,6.9989,6.9583,6.8857,6.7754,6.7754,6.7551,6.7173,6.6709,6.6738,6.7144,6.6302,6.5925,6.5896,6.5257,6.4996,6.5025,6.546,6.5751,6.5954,6.6215,6.6447,6.6535,6.6099,6.6506,6.726,0.0,0.0,0.0,0.0,0.0,0.0,0.0,0.0,0.0,0.0,4.1617,4.155,0.0,0.0,0.0,0.0,0.0,0.0,0.0,3.9697,4.0049,4.0802,4.3388,4.605,4.8686,5.5164,6.0537,6.468,6.6338,6.4831,6.0387,6.104,5.9784,5.7097,6.015,5.9618,5.6278,5.4399,5.2668,5.096,4.7427,4.5273,4.4045,0.0,0.0,0.0,0.0,0.0,0.0,0.0,0.0,0.0,4.4326,4.5171,4.5931,4.3957,4.3371,4.3194,4.2415,4.2896,4.4545,4.8499,5.2545,5.7667,6.5773,6.9073,7.1818,7.6462,7.5479,7.3387,7.1924,7.092,7.0424,7.0825,7.335,7.5755,7.7181,7.774,7.8001,7.8001,7.742,7.7014,7.7014,7.6462,7.6085,7.6085,7.4634,7.3501,7.2892,7.1382,6.9902,6.8509,6.8189,6.7667,6.6883,6.6883,6.6767,6.6506,6.6099,6.6012,6.6099,6.5722,6.5548,6.5519,6.5141,6.4996,6.5025,6.5402,6.5548,6.5635,6.6244,6.6506,6.6535,6.6651,6.7202,6.7812,0.0,0.0,4.1699,4.1499,0.0,0.0,0.0,0.0,0.0,0.0,4.0923,4.0572,0.0,0.0,0.0,0.0,0.0,0.0,0.0,0.0,4.0224,4.1376,4.3363,4.7305,5.3507,5.6947,5.6922,5.3331,5.9834,6.109,5.7549,6.2672,6.4002,6.227,6.656,6.5721,6.1031,5.8978,5.5697,5.1502,4.9086,4.7157,4.549,4.2627,0.0,0.0,0.0,0.0,0.0,0.0,0.0,0.0,4.3805,4.4472,4.4792,4.3398,4.3515,4.395,4.3398,4.44,4.6773,5.1902,5.6651,6.2244,7.0969,7.5272,7.7914,7.9685,7.6358,7.3217,7.3594,7.2161,7.1097,7.1737,7.4762,7.7152,7.7333,7.7275,7.7246,7.7246,7.6666,7.6288,7.6363,7.5708,7.533,7.533,7.3531,7.2166,7.1528,6.9757,6.8421,6.7725,6.7115,6.6767,6.6709,6.6709,6.6418,6.5838,6.5838,6.5548,6.4996,6.4996,6.4996,6.4996,6.4996,6.4996,6.4996,6.4996,6.4996,6.5054,6.5751,6.6012,6.6186,6.7434,6.7899,6.7957,0.0,0.0,4.2457,4.0676,0.0,0.0,0.0,0.0,0.0,0.0,0.0,0.0,0.0,0.0,0.0,0.0,0.0,0.0,0.0,0.0,4.0576,4.2534,4.6728,5.0293,5.303,5.2628,5.1749,5.0469,5.5415,5.652,5.4135,6.0412,6.3099,6.2722,6.5754,6.4474,5.9877,5.5681,5.283,5.096,4.9265,4.7205,4.4933,4.3716,4.126,0.0,0.0,0.0,0.0,0.0,0.0,0.0,4.3849,4.5111,4.5953,4.366,4.3805,4.4763,4.5169,4.6251,4.8962,5.6058,6.3762,7.0639,7.475,7.655,7.7537,7.7943,7.7915,7.7617,7.6674,7.4706,7.3679,7.5168,7.5021,7.5133,7.6486,7.623,7.5911,7.5911,7.533,7.4953,7.4982,7.4401,7.4024,7.4024,7.2224,7.086,7.0221,6.8857,6.7551,6.6389,6.6215,6.5896,6.5402,6.5402,6.5315,6.5199,6.5199,6.5112,6.4996,6.4996,6.4996,6.4996,6.4996,6.4996,6.4996,6.4996,6.4996,6.5083,6.6244,6.668,6.6767,6.758,6.8189,6.8567,0.0,0.0,0.0,0.0,0.0,0.0,0.0,0.0,0.0,0.0,0.0,0.0,0.0,0.0,0.0,0.0,4.0875,0.0,0.0,0.0,0.0,4.5196,4.8862,5.087,5.0946,5.0067,4.8586,4.6426,4.954,5.1724,5.3055,5.9182,6.2747,6.4078,6.6814,6.4743,5.9129,5.606,5.3684,5.1981,4.9941,4.8446,4.6996,4.4681,4.1555,3.8465,3.8545,0.0,0.0,0.0,0.0,0.0,0.0,0.0,4.4182,4.2179,4.2163,4.3111,4.4573,4.7106,5.1598,6.1044,6.8044,7.3298,7.5882,7.6956,7.7391,7.7391,7.7943,7.8175,7.7537,7.5898,7.4963,7.5849,7.5006,7.4476,7.543,7.5243,7.504,7.504,7.4459,7.4198,7.4518,7.3414,7.2689,7.2689,7.0889,6.9408,6.845,6.7463,6.6506,6.5519,6.5489,6.5315,6.4996,6.4996,6.4996,6.4996,6.4996,6.4996,6.4996,6.4996,6.4996,6.4996,6.4996,6.4996,6.4996,6.4996,6.4996,6.5112,6.6389,6.6883,6.6999,6.7986,6.8538,6.8741,0.0,0.0,0.0,0.0,0.0,0.0,0.0,0.0,0.0,0.0,0.0,0.0,0.0,0.0,4.085,0.0,0.0,0.0,0.0,0.0,0.0,0.0,4.964,5.0293,4.9088,4.841,0.0,4.3564,4.4844,4.8184,5.3482,5.873,6.2747,6.566,6.7392,6.4608,5.8465,5.615,5.3865,5.165,4.9501,4.8523,4.799,4.4649,4.1379,3.8617,3.8508,3.8964,3.9887,4.2159,0.0,0.0,0.0,0.0,4.1976,4.0525,4.0277,4.0986,4.3473,4.8218,5.4882,6.5151,6.9869,7.2634,7.5161,7.6144,7.6519,7.6519,7.692,7.7217,7.7101,7.6114,7.5301,7.5185,7.4721,7.4314,7.4198,7.4082,7.4024,7.4024,7.3472,7.3327,7.3821,7.2224,7.1179,7.1179,6.9408,6.787,6.6767,6.6099,6.5519,6.4996,6.4996,6.4996,6.4996,6.4996,6.4996,6.4996,6.4996,6.4996,6.4996,6.4996,6.4996,6.4996,6.4996,6.4996,6.4996,6.4996,6.4996,6.5112,6.6389,6.6883,6.7028,6.8334,6.8828,6.8741,0.0,0.0,0.0,0.0,0.0,0.0,0.0,0.0,0.0,0.0,4.3075,4.2995,0.0,0.0,0.0,4.1527,4.1749,0.0,0.0,0.0,0.0,0.0,4.7933,4.9439,5.0167,4.6903,0.0,4.5874,4.5623,4.8761,5.5139,5.9257,6.3174,6.6639,6.4128,6.1119,5.7547,5.066,4.6683,4.5062,4.4742,4.345,4.1774,4.1685,3.9898,3.7486,3.7911,3.7551,3.7365,4.0267,4.1333,0.0,0.0,0.0,4.2498,4.0641,4.0126,4.0828,4.3907,5.1338,5.9594,6.5577,6.8319,7.0176,7.2227,7.2735,7.2792,7.2792,7.4838,7.6404,7.5853,7.5156,7.4459,7.3966,7.3792,7.3531,7.295,7.2398,7.205,7.205,7.1498,7.115,7.1208,6.9989,6.9205,6.9205,6.7405,6.6244,6.607,6.546,6.5083,6.4996,6.4996,6.4996,6.4996,6.4996,6.4996,6.4996,6.4996,6.4996,6.4996,6.4996,6.4996,6.4996,6.4996,6.4996,6.4996,6.4996,6.4996,6.5112,6.6389,6.6883,6.7028,6.8334,6.8828,6.8828,0.0,0.0,0.0,0.0,0.0,0.0,0.0,0.0,0.0,0.0,0.0,4.2834,0.0,0.0,0.0,4.3307,0.0,0.0,0.0,0.0,0.0,0.0,4.6878,4.7763,4.8503,4.6257,4.5623,4.6852,4.5938,4.9691,5.787,5.9766,6.2772,6.6338,6.2697,5.9207,5.5641,4.9715,4.6426,4.5121,4.4192,4.3589,4.3137,4.1505,3.9923,3.8591,3.8636,3.8283,3.8158,4.109,4.1775,4.1502,4.2006,0.0,0.0,0.0,3.9693,4.0402,4.5806,5.1292,5.71,6.3661,6.5954,6.7241,6.9534,6.9876,7.0075,7.0904,7.1563,7.225,7.3021,7.3052,7.2518,7.1437,7.1408,7.1498,7.1557,7.0686,7.0192,7.057,6.9728,6.9263,6.9612,6.8479,6.7725,6.7725,6.6622,6.578,6.5431,6.5141,6.4822,6.4473,6.4444,6.4299,6.3922,6.3922,6.4096,6.4444,6.4444,6.4648,6.4996,6.4996,6.4996,6.4996,6.4996,6.4996,6.5025,6.5373,6.5519,6.5635,6.6941,6.7434,6.7551,6.8479,6.8828,6.8886,0.0,0.0,0.0,0.0,0.0,0.0,0.0,0.0,0.0,0.0,0.0,0.0,0.0,0.0,0.0,0.0,4.4303,0.0,0.0,0.0,0.0,0.0,0.0,0.0,4.6649,4.5401,4.5498,4.7025,4.6341,5.0815,6.0124,6.0782,6.355,6.7618,6.3601,5.9734,5.5917,5.0745,4.8083,4.7129,4.4443,4.3714,4.3991,4.1781,4.0325,3.9474,3.9375,3.9157,3.9382,4.1695,4.2206,4.1959,4.2767,4.1889,0.0,0.0,0.0,4.0237,4.5978,4.9416,5.3036,6.009,6.2295,6.3415,6.6003,6.6523,6.6909,6.8475,6.8221,6.8128,6.9579,7.0421,7.054,6.9252,6.9182,6.9408,6.9699,6.8944,6.8509,6.8973,6.8189,6.7812,6.8276,6.7318,6.6651,6.6651,6.6041,6.5489,6.4996,6.4996,6.4706,6.4004,6.3975,6.3719,6.3109,6.308,6.3399,6.3975,6.3975,6.4357,6.4996,6.4996,6.4996,6.4996,6.4996,6.4996,6.5025,6.5489,6.578,6.6041,6.7173,6.7725,6.7957,6.8596,6.8828,6.8886,0.0,0.0,0.0,0.0,0.0,0.0,0.0,0.0,0.0,0.0,0.0,0.0,4.4325,4.5073,4.5306,4.4754,4.4669,4.3533,4.0835,4.3194,0.0,0.0,0.0,0.0,4.5434,4.386,4.415,4.6321,4.7231,5.2246,6.1165,6.2759,6.6689,7.2188,6.7769,6.3952,6.0387,5.3281,5.0268,4.9741,4.4392,4.1656,4.0877,4.1785,4.0805,3.902,3.9524,3.962,3.9707,4.0742,4.1708,4.2523,4.2868,4.2528,4.186,0.0,0.0,0.0,4.2705,4.5618,4.9291,5.4546,5.6884,5.8535,6.1051,6.1966,6.2698,6.4192,6.5233,6.5821,6.5808,6.749,6.8702,6.8093,6.8015,6.7783,6.7173,6.7028,6.6999,6.7028,6.697,6.6941,6.697,6.636,6.5983,6.5983,6.5402,6.5025,6.4996,6.4996,6.4706,6.4004,6.3975,6.3719,6.3109,6.308,6.3399,6.3975,6.3975,6.4357,6.4996,6.4996,6.4996,6.4996,6.4996,6.4996,6.4996,6.5025,6.5373,6.6012,6.668,6.7318,6.7957,6.8596,6.8828,6.8828,0.0,0.0,0.0,0.0,0.0,0.0,0.0,0.0,0.0,0.0,0.0,0.0,0.0,4.5912,4.6892,4.637,4.7275,4.6835,4.4361,4.5838,0.0,0.0,0.0,0.0,4.5835,4.5651,4.6334,4.7829,4.8254,5.2063,5.9167,6.1604,6.5034,6.8899,6.5886,6.3099,6.0161,5.2578,4.8761,4.7481,4.4066,4.2861,4.2961,4.1229,4.0978,4.1411,4.044,3.9832,3.9707,4.1324,4.1569,4.1423,4.2176,4.1976,4.125,4.0205,3.9712,3.9944,4.1889,4.3253,4.5296,5.016,5.2435,5.4052,5.6342,5.8349,6.0215,6.2178,6.3241,6.4194,6.5488,6.6785,6.716,6.5962,6.626,6.668,6.6854,6.6186,6.5809,6.6215,6.5925,6.5664,6.5664,6.546,6.5315,6.5315,6.4735,6.4561,6.4967,6.4212,6.3661,6.3428,6.3022,6.2499,6.189,6.189,6.218,6.279,6.3225,6.3777,6.4386,6.4793,6.4996,6.4996,6.4996,6.4996,6.5025,6.5431,6.5983,6.6593,6.726,6.7928,6.8509,6.8741,6.8828,6.8886,0.0,0.0,0.0,0.0,0.0,4.7547,4.4972,0.0,0.0,0.0,0.0,0.0,0.0,0.0,4.7364,4.72,4.8755,4.8553,4.5904,4.6966,4.6997,4.5413,0.0,0.0,4.6679,4.6933,4.7616,4.8663,4.8912,5.1726,5.7091,5.9777,6.2964,6.6262,6.3149,6.227,6.2672,5.5842,5.1975,5.0117,4.62,4.507,4.5547,4.3915,4.374,4.4206,4.3196,4.2315,4.1728,4.2463,4.2269,4.1882,4.2534,4.2121,4.1221,4.0147,3.9828,4.006,4.1134,4.1599,4.2909,4.7746,4.8934,4.9803,5.348,5.4889,5.6316,5.9476,6.0706,6.1917,6.4509,6.5315,6.534,6.4529,6.4699,6.5141,6.5548,6.488,6.4502,6.4938,6.4619,6.4357,6.4357,6.4357,6.4357,6.4357,6.3951,6.4009,6.4648,6.3661,6.2993,6.2761,6.2122,6.16,6.1193,6.1193,6.1483,6.2093,6.2761,6.3428,6.4004,6.4706,6.4996,6.4996,6.4996,6.4996,6.5025,6.5664,6.6302,6.6941,6.7609,6.8276,6.8828,6.8828,6.8828,6.8886,0.0,4.2186,4.4021,4.3122,4.5678,4.6755,4.3565,4.4913,4.5155,4.1853,0.0,0.0,0.0,0.0,0.0,4.7291,4.887,4.8346,4.4993,4.6262,4.6588,4.538,0.0,0.0,4.7735,4.7352,4.7636,4.8605,4.9149,5.1313,5.5088,5.7355,6.0763,6.4731,6.0035,6.1793,6.7919,6.2923,5.9935,5.7926,5.077,4.7958,4.8234,4.9741,4.9038,4.7313,4.7733,4.7133,4.5969,4.4291,4.3894,4.4052,4.4008,4.3137,4.1976,4.1308,4.1105,4.0989,0.0,0.0,0.0,4.7213,4.6301,4.5856,5.2407,5.162,5.0989,5.5992,5.7482,5.8984,6.234,6.2993,6.3167,6.3806,6.3457,6.308,6.308,6.308,6.308,6.308,6.308,6.308,6.308,6.308,6.308,6.308,6.308,6.3341,6.3917,6.3399,6.2761,6.2093,6.1513,6.1193,6.1193,6.1193,6.1483,6.2093,6.2761,6.3428,6.4004,6.4706,6.4996,6.4996,6.4996,6.4996,6.5025,6.5635,6.6302,6.6941,6.7609,6.8247,6.8828,6.8828,6.8828,6.8828,3.9623,4.2354,4.4248,4.3177,4.6423,4.8309,4.5779,4.5894,4.5847,0.0,0.0,0.0,4.5448,4.8382,5.0286,5.0172,5.1585,5.1244,4.8452,4.8276,4.8105,4.776,4.7786,4.7817,4.7782,4.8105,4.7961,4.73,4.8413,4.8986,4.9284,5.2855,5.5377,5.6972,5.8403,5.9282,5.9282,5.3884,5.3181,5.5214,4.959,4.9264,5.18,4.9088,4.9302,5.0971,4.9845,4.9462,4.936,4.8977,4.7559,4.5751,4.444,4.3427,4.2528,4.1424,4.1424,4.157,4.0408,0.0,0.0,0.0,0.0,0.0,4.5914,4.7712,5.002,5.3729,5.5386,5.6995,5.9828,6.0351,6.0409,6.0584,6.2006,6.2935,6.2441,6.279,6.2906,6.2412,6.279,6.308,6.308,6.308,6.308,6.308,6.2645,6.2645,6.3312,6.2732,6.2093,6.1454,6.128,6.1193,6.1193,6.1193,6.1483,6.2093,6.2761,6.3428,6.4004,6.4706,6.4996,6.4996,6.4996,6.4996,6.4996,6.517,6.5896,6.6912,6.7086,6.7841,6.8828,6.8828,6.8828,6.8886,4.044,4.2287,4.3975,4.5048,4.7985,4.9629,4.781,4.7919,0.0,0.0,0.0,0.0,4.7054,5.1656,5.4088,5.2631,5.3134,5.2659,5.0627,4.9378,4.8624,4.8333,4.8856,4.8972,4.8595,4.9204,4.8914,4.7561,4.8101,4.7828,4.6955,4.957,5.1083,5.1747,5.3514,5.3884,5.2779,4.7908,4.8962,5.3708,5.1724,5.2452,5.4632,5.37,5.4064,5.5193,5.5564,5.4495,5.2986,5.3136,5.0844,4.7543,4.512,4.4298,4.395,4.2673,4.276,4.2963,4.1657,4.1134,4.1215,4.2267,0.0,0.0,4.4333,4.5327,4.662,4.9687,5.1352,5.3007,5.562,5.652,5.7071,5.7594,5.9161,6.0438,6.0874,6.128,6.1367,6.099,6.128,6.1513,6.1513,6.1745,6.189,6.189,6.1774,6.189,6.2296,6.218,6.1803,6.1222,6.1193,6.1193,6.1193,6.1193,6.1367,6.1745,6.2645,6.3283,6.3661,6.459,6.4996,6.4996,6.4996,6.4996,6.4996,6.4996,6.5722,6.6912,6.7202,6.7928,6.8828,6.8828,6.8828,6.8915,0.0,4.2264,4.3596,4.7487,4.9773,5.0823,4.9908,5.0744,5.0551,0.0,0.0,0.0,5.0385,5.5375,0.0,0.0,5.4143,5.3227,5.1817,4.9901,0.0,4.8014,4.9175,4.9785,4.9717,5.0386,4.9988,4.8624,4.7985,4.7387,4.6833,4.7183,4.7737,4.8413,4.7348,4.7355,4.8033,4.4995,4.7104,5.2653,5.4737,5.5968,5.6919,6.0441,6.0682,5.9566,6.2361,6.0426,5.6578,5.6311,5.3333,4.9242,4.6256,4.5576,4.5634,4.4356,4.4472,4.4705,4.3456,4.2876,4.3224,4.5734,4.3398,0.0,4.538,4.3942,4.2505,4.5152,4.6505,4.8043,5.0448,5.2005,5.3303,5.4327,5.542,5.6781,5.8697,5.9045,5.9045,5.8987,5.9045,5.9103,5.919,5.9684,6.0032,6.009,6.07,6.1077,6.1077,6.16,6.1629,6.1106,6.1077,6.1077,6.1077,6.1164,6.1222,6.1309,6.2499,6.3138,6.3225,6.4444,6.4996,6.4996,6.4996,6.4996,6.4996,6.4996,6.5693,6.6854,6.7522,6.816,6.8741,6.8799,6.8886,6.9031,4.125,4.2891,4.4676,4.6425,4.9894,5.2631,5.326,5.4161,5.4786,5.4844,5.3638,5.4074,5.7192,5.77,0.0,0.0,0.0,0.0,0.0,0.0,4.9465,4.932,5.0075,5.022,4.9746,5.0386,4.9785,4.7956,4.7317,4.6774,4.6335,4.5426,4.5475,4.6212,4.5418,4.4995,4.492,4.7305,4.8812,4.969,5.1021,5.4486,5.8982,5.9692,6.1044,6.2404,6.2185,6.1164,5.9457,5.6276,5.298,4.9977,4.8413,4.6998,4.5634,4.4356,4.4792,4.543,4.4124,4.4821,4.5547,4.4095,4.4602,0.0,4.3385,4.2865,4.304,4.4139,4.4124,4.4456,4.6263,4.8287,4.9482,4.8937,5.1817,5.4749,5.6694,5.739,5.7507,5.7042,5.739,5.7913,5.8435,5.861,5.89,5.9451,6.0061,6.0409,6.0409,6.0496,6.0526,6.0409,6.0409,6.0409,6.0409,6.0932,6.1425,6.1919,6.2703,6.3341,6.3893,6.4648,6.4996,6.4996,6.4996,6.4996,6.4996,6.4996,6.5431,6.6186,6.6825,6.7492,6.8131,6.8625,6.9147,6.967,4.2442,4.364,4.5907,5.0137,0.0,5.515,0.0,0.0,5.7871,5.8105,5.8212,5.8378,5.8654,6.0116,6.0491,0.0,0.0,0.0,0.0,0.0,5.0046,4.9746,5.0307,5.0975,5.1585,5.1294,5.083,5.0211,4.8566,4.7615,4.7424,4.6528,4.5768,4.5182,4.5067,4.3975,4.2333,4.4819,4.6376,4.7581,5.2553,5.6696,6.0138,6.2344,6.3655,6.4405,6.4922,6.3809,6.1353,5.67,5.4725,5.3669,5.0637,4.993,4.9756,4.7491,4.7288,4.7521,4.6214,4.6127,4.6214,4.5547,4.514,0.0,0.0,4.2528,4.215,4.2469,4.2005,4.1997,4.3499,4.4526,4.547,4.6461,4.7949,4.9868,5.2259,5.4517,5.5678,5.5039,5.5242,5.5678,5.6345,5.6694,5.739,5.8697,5.9074,5.9393,5.9742,5.9742,5.9742,5.9742,6.0032,6.0206,6.0206,6.0874,6.1338,6.1658,6.2616,6.3254,6.3603,6.4561,6.4996,6.4996,6.4996,6.4996,6.4996,6.4996,6.5373,6.5983,6.6622,6.7492,6.8421,6.906,6.9495,6.9902,4.3411,4.4266,4.6814,5.2814,0.0,0.0,0.0,0.0,5.9884,5.9988,6.1248,6.1441,5.9533,6.188,6.2812,6.0693,0.0,0.0,0.0,5.2699,5.0485,4.9901,5.0743,5.1701,5.2746,5.202,5.1701,5.1846,4.964,4.8682,4.8866,4.8134,4.6745,4.5064,4.5155,4.3733,4.1354,4.2258,4.4217,4.7431,5.5013,5.8453,5.9562,6.418,6.5447,6.4948,6.6819,6.5338,6.1835,5.7584,5.6813,5.6908,5.3054,5.2949,5.3791,5.1062,5.0278,5.0017,4.8856,4.8217,4.7956,4.813,4.6563,4.4879,0.0,0.0,0.0,4.1163,4.0434,4.0198,4.141,4.1511,4.2059,4.4101,4.4482,4.5091,4.6842,5.0213,5.2583,5.2752,5.2543,5.2758,5.3704,5.4252,5.5401,5.7448,5.7565,5.7971,5.8871,5.89,5.8987,5.9103,5.9568,5.9887,6.0032,6.0671,6.1077,6.1222,6.2499,6.308,6.3138,6.4415,6.4996,6.4996,6.4996,6.4996,6.4996,6.5112,6.5548,6.6157,6.668,6.7609,6.8712,6.935,6.9757,7.0105,4.2468,4.4302,4.6429,4.7846,0.0,0.0,0.0,0.0,6.0365,6.1894,6.2392,6.3174,6.4329,6.1836,6.1197,6.4039,5.7309,5.4414,5.7958,5.3557,5.073,5.0598,5.2252,5.2223,5.0162,5.1091,5.0801,4.9175,4.8304,4.8478,4.9553,0.0,4.6851,4.6209,4.4705,4.4068,4.4166,4.4292,4.7054,5.1624,5.4587,5.5239,5.5013,6.0521,6.2482,6.2502,6.3179,6.1923,5.9819,5.9206,5.7644,5.6057,5.5794,5.4778,5.3442,5.2514,5.2252,5.2078,5.1381,5.3152,5.4284,5.0452,5.0917,5.1004,4.5924,0.0,4.3166,4.1453,0.0,3.9084,3.9829,0.0,0.0,3.9408,4.2182,4.3742,4.1534,4.3499,4.6426,4.9754,4.9117,4.921,5.1148,5.1381,5.2405,5.4728,5.4952,5.5707,5.7448,5.7536,5.7797,5.8406,5.8493,5.8813,5.9393,6.0003,6.0613,6.1222,6.2499,6.308,6.3138,6.4415,6.4996,6.4996,6.4996,6.4996,6.5025,6.5606,6.6215,6.6767,6.6854,6.7347,6.8073,6.8712,6.9641,7.0628,4.1375,4.315,4.5482,4.7534,0.0,0.0,0.0,0.0,6.1984,6.2118,6.3603,6.5132,6.6162,6.4367,6.3614,6.4764,6.0237,5.7674,5.8585,5.4923,5.296,5.3419,5.3123,5.2804,5.2484,5.1904,5.1033,4.9872,4.9204,4.8972,0.0,0.0,4.8247,4.7541,4.6649,4.6204,4.6225,4.6399,4.7933,5.0419,5.3256,5.4135,5.4411,6.0939,6.3249,6.2923,6.2496,6.0914,5.9035,5.8907,5.8481,5.8004,5.8081,5.7768,5.7187,5.62,5.5358,5.4575,5.3559,5.3895,5.3915,5.1439,5.0427,4.9307,4.6639,4.4676,4.3282,4.2876,0.0,0.0,0.0,0.0,0.0,0.0,3.95,4.0142,4.0415,4.0007,4.1414,4.6139,4.5694,4.5616,4.7197,4.8187,4.9512,5.1228,5.1943,5.3268,5.5562,5.6026,5.6665,5.7681,5.8116,5.861,5.9306,6.0293,6.1106,6.1745,6.3022,6.3632,6.3661,6.459,6.4996,6.4996,6.4996,6.4996,6.5025,6.5664,6.6302,6.6912,6.7318,6.787,6.8509,6.9147,6.9728,7.0279,4.0543,4.242,4.4679,4.6627,4.8745,0.0,5.5732,5.9162,6.1377,6.1752,6.3525,6.5434,6.7241,6.6186,6.5698,6.6547,6.3071,6.0632,6.0237,5.6741,5.4848,5.5365,5.4255,5.3733,5.3965,5.2601,5.1497,5.0734,4.9688,4.9378,4.9756,0.0,0.0,4.8299,4.8244,4.8136,4.8092,4.8925,5.0218,5.1925,5.4486,5.6068,5.7349,6.1692,6.3375,6.3382,6.2628,6.1038,5.9406,5.969,6.0018,6.0221,6.0352,6.0526,6.0467,5.919,5.829,5.7361,5.5707,5.5334,5.4828,5.2659,5.0618,4.8742,4.7171,4.5808,4.4763,4.456,4.3893,0.0,0.0,0.0,3.978,0.0,0.0,3.7904,3.9027,3.7682,3.8374,4.3143,4.3156,4.3237,4.438,4.5354,4.665,4.8432,4.9243,5.083,5.3559,5.4284,5.53,5.6723,5.7594,5.8435,5.9306,6.038,6.1309,6.2093,6.3225,6.3864,6.4004,6.4706,6.4996,6.4996,6.4996,6.4996,6.5054,6.5867,6.6476,6.697,6.7812,6.8421,6.8886,6.935,6.9728,7.0163,4.0109,4.2684,4.4367,4.3341,4.5833,4.9302,5.3218,5.4905,5.6996,6.0713,6.1291,6.3199,6.8045,6.6172,6.6248,7.0547,6.4387,6.1352,6.384,5.8846,5.5651,5.5423,5.5968,5.5126,5.2688,5.2623,5.1984,5.0734,4.8769,4.9407,5.242,4.934,0.0,0.0,4.8624,4.9009,4.968,5.1825,5.5239,5.9207,5.9859,6.2044,6.458,6.1592,6.1441,6.286,6.3258,6.2318,6.1064,6.2853,6.2697,6.1892,6.2731,6.2529,6.1774,6.0496,6.0555,6.0467,5.7913,5.9016,5.9741,5.472,5.3361,5.2172,4.7793,4.817,4.8798,4.633,4.752,4.866,4.7738,4.532,0.0,0.0,0.0,0.0,0.0,3.6302,3.8016,4.1299,4.201,4.264,4.3638,4.3123,4.402,4.701,4.7042,4.8286,5.1527,5.231,5.353,5.5416,5.6694,5.7971,5.9306,5.9916,6.0845,6.2093,6.279,6.3428,6.4004,6.4706,6.4996,6.4996,6.4996,6.4996,6.5083,6.6331,6.6854,6.6999,6.8305,6.8799,6.8828,6.8857,6.9641,7.0686,4.4513,4.4559,4.3619,4.167,4.3187,4.6326,5.1348,5.4285,5.7725,6.2697,6.3977,6.6639,7.2364,7.151,7.1108,7.2615,7.0349,6.8459,6.7494,6.5434,6.4032,6.3685,6.1832,5.9829,5.7681,5.5968,5.3849,5.1294,5.022,5.0452,5.1875,4.9524,4.9593,5.1729,5.0378,5.1183,5.371,5.5064,5.6721,5.8579,6.0236,6.2873,6.5584,6.34,6.2672,6.2653,6.1317,6.0605,6.0644,6.2291,6.2323,6.2182,6.4288,6.3951,6.2761,6.2732,6.2616,6.2151,6.0845,6.1016,6.0608,5.647,5.4675,5.3037,4.9531,4.9553,4.9756,4.7579,4.876,4.9502,4.729,4.6095,0.0,0.0,0.0,0.0,0.0,3.8558,3.8787,3.9069,3.9796,4.0324,4.0341,4.1018,4.2199,4.391,4.4633,4.6156,4.8943,5.0075,5.2107,5.53,5.6258,5.7739,5.9858,6.0526,6.128,6.2093,6.3196,6.3835,6.4004,6.4706,6.4996,6.4996,6.4996,6.4996,6.5083,6.636,6.6883,6.6999,6.8305,6.8567,6.8247,6.8683,6.935,7.0221,4.7466,4.5234,4.2892,4.2464,4.4122,4.7061,5.1674,5.5688,5.9871,6.4627,6.6606,6.9627,7.495,7.49,7.4623,7.5025,7.4794,7.3259,6.983,7.009,6.9536,6.76,6.578,6.3661,6.128,5.919,5.6432,5.2978,5.2107,5.2252,5.3268,5.0162,5.034,5.3156,5.1642,5.2325,5.4887,5.7422,5.8956,5.9912,6.2458,6.4868,6.6517,6.4862,6.3696,6.2577,6.0657,6.0538,6.1369,6.2501,6.3034,6.3513,6.5051,6.4764,6.3748,6.3719,6.3893,6.3806,6.2441,6.2543,6.2095,5.861,5.7025,5.5424,5.1844,5.2252,5.2717,5.0307,5.1352,5.2156,5.0274,4.8311,0.0,0.0,0.0,0.0,0.0,3.9605,3.9286,3.8532,3.8846,3.9081,3.8924,4.0134,4.1351,4.2351,4.3384,4.4908,4.6998,4.8304,5.0569,5.3965,5.5591,5.7419,5.951,6.0845,6.1832,6.247,6.3545,6.4091,6.4386,6.4793,6.4996,6.4996,6.4996,6.4996,6.5083,6.636,6.6883,6.6999,6.8073,6.8363,6.8305,6.8915,6.9699,7.0599,4.8803,4.5146,4.2551,4.5358,4.8116,5.0891,5.3726,5.84,6.2764,6.6299,6.8911,7.1861,7.5804,7.623,7.6632,7.7662,7.7776,7.5872,7.136,7.319,7.2375,6.7803,6.8044,6.6825,6.3632,6.2122,5.9539,5.5794,5.4313,5.4575,5.6345,5.1265,5.0248,5.2796,5.2338,5.243,5.3296,5.8856,6.1953,6.3294,6.6439,6.7854,6.7779,6.592,6.4283,6.2658,6.1398,6.1934,6.3204,6.3607,6.4718,6.578,6.5228,6.4996,6.4764,6.3574,6.4502,6.5402,6.2993,6.369,6.4328,6.1164,6.0351,5.9161,5.4807,5.62,5.7565,5.44,5.5271,5.6549,5.6345,5.188,4.801,0.0,0.0,0.0,0.0,3.9566,3.9442,3.9774,3.9087,3.8815,3.9337,4.0388,4.1361,4.2267,4.327,0.0,4.5721,4.6998,4.8914,5.1585,5.472,5.7013,5.8377,6.0845,6.2412,6.3051,6.3719,6.4357,6.4938,6.4967,6.4996,6.4996,6.4996,6.4996,6.5083,6.636,6.6883,6.6941,6.7609,6.8276,6.8915,6.9583,7.0599,7.1731,5.0774,4.9596,4.8043,4.6926,4.7048,4.8466,5.2098,5.6167,6.0987,6.6762,7.02,7.3745,7.8063,7.854,7.8465,7.8314,8.1014,8.1459,7.8443,8.0758,8.0852,7.7682,7.5417,7.2979,7.0221,6.6128,6.3051,6.1106,5.6955,5.5649,5.6984,5.2833,5.149,5.268,5.3836,5.4085,5.3927,5.9253,6.3259,6.6033,6.6357,6.7357,6.8194,6.5712,6.4206,6.318,6.073,6.0984,6.2573,6.2696,6.3852,6.5286,6.5606,6.5373,6.5025,6.517,6.5548,6.5896,6.5693,6.6012,6.5867,6.3603,6.2325,6.0932,5.8406,5.919,5.98,5.7536,5.8232,5.8348,5.5533,5.303,5.04,0.0,0.0,0.0,4.2236,4.1481,4.1032,4.1109,3.9891,3.9105,3.9239,4.0529,4.1279,4.1066,4.2023,4.3137,4.4414,4.5692,4.8188,5.2194,5.4487,5.6955,5.9684,6.128,6.218,6.2354,6.3486,6.4125,6.4299,6.4764,6.4996,6.4996,6.4996,6.4996,6.5083,6.636,6.6883,6.6941,6.7609,6.8276,6.8973,7.0076,7.0686,7.1121,5.2659,5.3219,5.2473,4.9161,5.0141,5.2304,5.5146,5.8079,6.1886,6.7341,7.1013,7.3971,7.623,7.844,7.952,7.8942,8.2397,8.3427,8.0615,8.4379,8.5084,8.1368,7.922,7.6335,7.2454,6.8373,6.4878,6.2022,5.8407,5.6897,5.7216,5.3413,5.2107,5.3042,5.4234,5.4433,5.4128,5.8791,6.3466,6.7774,6.7083,6.7957,0.0,6.7665,6.5578,6.3527,6.2664,6.2662,6.3062,6.3044,6.4053,6.5431,6.5489,6.5257,6.5112,6.5751,6.6128,6.6418,6.6796,6.7086,6.6912,6.5286,6.4299,6.3196,6.1019,6.1077,6.1106,5.948,5.9016,5.8377,5.652,5.3733,5.0569,4.6998,0.0,4.4589,4.3921,4.3372,4.2838,4.2295,4.1677,4.0916,3.9924,4.0861,4.1479,4.1269,4.1881,4.2725,4.395,4.5027,4.7645,5.202,5.4807,5.7507,6.0177,6.2296,6.3225,6.2964,6.3951,6.4444,6.4473,6.4822,6.4996,6.4996,6.5286,6.5402,6.5489,6.6796,6.7144,6.6941,6.7609,6.8276,6.8973,7.025,7.0889,7.1266,5.4197,5.5786,5.5633,5.1586,5.4824,5.863,6.0464,6.2351,6.4866,6.8481,7.2115,7.4171,7.3644,7.7486,7.9896,7.9419,8.2687,8.3536,8.0577,8.5794,8.6855,8.2036,8.1078,7.8171,7.2685,6.9448,6.5698,6.1212,5.9051,5.7742,5.71,5.353,5.2368,5.3303,5.4175,5.456,5.4763,5.787,6.2663,6.8213,6.7724,6.8834,7.0782,7.0342,6.7504,6.3927,6.5694,6.5298,6.3866,6.3926,6.4775,6.5809,6.5199,6.4996,6.5112,6.5751,6.6331,6.6767,6.6854,6.7318,6.7463,6.6244,6.5925,6.5315,6.2993,6.247,6.2151,6.1048,5.9219,5.7913,5.8232,5.4052,4.963,4.6621,4.6127,4.5895,4.5227,4.4964,4.4457,4.3515,4.3719,0.0,4.1227,4.1494,4.181,4.1914,4.2194,4.2833,4.3936,4.479,4.727,5.1592,5.5184,5.8145,6.0438,6.337,6.4619,6.4183,6.4735,6.4996,6.4996,6.5083,6.5054,6.5025,6.5751,6.6012,6.6041,6.7347,6.7551,6.7057,6.7667,6.8276,6.8973,7.025,7.1121,7.176,5.4546,5.5846,5.6212,5.3958,5.6302,5.9862,6.3811,6.697,6.9851,7.231,7.6026,7.834,7.8239,7.8992,7.9495,7.9394,8.3056,8.4987,8.3834,8.747,8.8306,8.5316,8.3575,8.0357,7.5244,7.0294,6.6691,6.4495,5.9155,5.6535,5.652,5.4255,5.2746,5.2027,5.4797,5.6711,5.7875,5.7533,6.0765,6.5971,6.6277,6.7441,6.9187,6.9895,6.7674,6.4479,6.6972,6.5898,6.3449,6.422,6.5117,6.5809,6.5199,6.4996,6.5112,6.5751,6.6012,6.6215,6.6738,6.697,6.6883,6.6128,6.5925,6.5664,6.4706,6.4473,6.4415,6.4183,6.2209,6.0061,5.8581,5.3675,4.9369,4.7724,4.7462,4.723,4.6592,4.5373,4.4761,4.5312,4.4342,4.3531,4.343,4.3011,4.2237,4.0958,4.1652,4.2707,4.3921,4.4631,4.7293,5.2252,5.4575,5.7681,6.1716,6.3399,6.4415,6.4822,6.4938,6.4996,6.4996,6.5519,6.5489,6.5054,6.6215,6.6418,6.6041,6.7347,6.7812,6.7725,6.7841,6.8276,6.8973,7.025,7.1121,7.176,5.7337,5.8111,5.8765,5.8509,6.1017,6.4304,6.8145,7.1786,7.3795,7.2841,7.4849,7.6256,7.5979,7.7988,7.9394,7.9394,8.3162,8.5313,8.4688,8.8206,8.9061,8.6158,8.4503,8.0784,7.4629,7.0334,6.6607,6.3551,5.855,5.6246,5.6374,5.4081,5.2862,5.2665,5.3809,5.5607,5.7686,5.663,5.9362,6.4518,6.5271,6.7161,6.9481,6.9643,6.8009,6.5842,6.7689,6.705,6.5399,6.5691,6.5828,6.5809,6.5199,6.4996,6.5112,6.5751,6.6157,6.6418,6.6389,6.6622,6.6651,6.5693,6.5431,6.5373,6.5054,6.4996,6.488,6.4561,6.2993,6.0787,5.7855,5.4226,5.1352,5.0423,4.9746,4.9059,4.842,4.7376,4.6505,4.5966,4.5216,4.455,4.4052,4.3979,4.3372,4.1966,4.2096,4.2912,4.4414,4.5183,4.7722,5.2426,5.5387,5.8581,6.2064,6.4038,6.4996,6.4996,6.4996,6.4996,6.4996,6.5635,6.5751,6.5548,6.6825,6.7231,6.697,6.726,6.758,6.7841,6.7492,6.8363,6.9873,7.0482,7.1557,7.2718,6.0871,6.1326,6.1961,6.2966,6.5658,6.8597,7.1309,7.5025,7.6557,7.3845,7.4272,7.4598,7.4021,7.7109,7.9143,7.9043,8.2793,8.4933,8.4213,8.798,8.8829,8.5752,8.4142,8.0157,7.3459,6.9839,6.5828,6.1301,5.7779,5.5751,5.5149,0.0,5.2787,5.3111,5.2862,5.4017,5.6084,5.572,5.8635,6.3673,6.4863,6.7055,6.9663,6.9483,6.8392,6.7032,6.8121,6.8228,6.7819,6.7411,6.6883,6.6244,6.5606,6.5373,6.546,6.5809,6.6273,6.6535,6.5896,6.6099,6.6244,6.5228,6.4996,6.4996,6.4996,6.4996,6.4851,6.4328,6.3109,6.1019,5.7477,5.5445,5.3936,5.2827,5.1897,5.0917,4.9872,4.9494,4.8595,4.6534,4.6534,4.604,4.4356,4.4734,4.4618,4.3485,4.3024,4.3348,4.4806,4.5795,4.8195,5.2252,5.5823,5.9103,6.2064,6.4241,6.5344,6.5373,6.5112,6.5141,6.5402,6.5896,6.6128,6.6215,6.7522,6.8015,6.7841,6.7173,6.7289,6.7841,6.7463,6.8712,7.0744,7.086,7.205,7.3647,6.4408,6.4923,6.5221,6.5343,6.7918,7.0229,7.1033,7.4448,7.736,7.854,7.8792,7.8616,7.8038,7.8365,7.8415,7.7913,8.158,8.3712,8.2994,8.628,8.7029,8.4387,8.1995,7.8346,7.3321,6.8893,6.4186,5.9287,5.6904,5.4211,5.133,5.2191,5.234,5.1924,5.3389,5.3869,5.3635,5.54,5.8999,6.37,6.5325,6.6767,6.8083,6.9588,6.8705,6.7012,6.8594,6.9309,6.9504,6.8818,6.8218,6.758,6.6912,6.6709,6.6593,6.607,6.5918,6.5867,6.5257,6.5112,6.5141,6.5025,6.4996,6.4996,6.4996,6.4996,6.4967,6.4909,6.3399,6.128,5.861,5.7477,5.5997,5.3088,5.2949,5.2426,5.0017,5.0656,5.0423,4.7898,4.8653,4.8159,4.5082,4.5401,4.5488,4.4763,4.4153,4.4153,4.485,4.6065,4.8296,5.1614,5.4284,5.7739,6.2064,6.2935,6.4473,6.668,6.5548,6.5577,6.6709,6.6767,6.6796,6.6854,6.816,6.8421,6.7841,6.7173,6.7289,6.7928,6.845,6.9495,7.0802,7.1382,7.2456,7.3705,6.7524,6.6433,6.6266,6.9293,6.9752,7.0857,7.4071,7.5879,7.7235,7.8239,7.8365,7.8289,7.8063,7.8038,7.7938,7.7712,8.1422,8.3386,8.2316,8.5826,8.6623,8.3691,8.2598,7.9928,7.54,7.112,6.748,6.4464,6.0035,5.7366,5.6394,5.4938,5.3726,5.2743,5.2951,5.3407,5.4233,5.5989,5.957,6.4218,6.5442,6.7271,6.914,6.8434,6.7825,6.7246,6.6487,6.7653,6.9252,6.8256,6.7907,6.7754,6.7086,6.6883,6.6825,6.6564,6.6796,6.6883,6.5838,6.5838,6.5954,6.517,6.4996,6.4996,6.4996,6.4996,6.4996,6.4996,6.4067,6.2703,6.0903,5.9451,5.7942,5.6287,5.4952,5.3471,5.1722,5.1207,5.0249,4.8043,4.7898,4.7317,4.5663,4.5721,4.5924,4.604,4.5111,4.4966,4.6011,4.6911,4.8682,5.1527,5.4807,5.7971,6.0932,6.3516,6.5315,6.6302,6.6186,6.6389,6.6883,6.7289,6.7492,6.7492,6.7609,6.7289,6.6738,6.726,6.7405,6.7434,6.8857,6.9931,7.086,7.1876,7.3066,7.4256,6.9916,6.8384,6.7924,7.1872,7.1769,7.2339,7.5854,7.6532,7.6783,7.7159,7.721,7.7285,7.7436,7.7461,7.7385,7.7235,8.0737,8.2533,8.1693,8.509,8.6013,8.3575,8.212,7.9708,7.6256,7.2559,6.9468,6.7101,6.323,6.0764,5.9644,5.751,5.5708,5.42,5.452,5.5102,5.5966,5.787,6.138,6.5671,6.6926,6.8669,7.0268,6.8338,6.7892,6.8009,6.6179,6.7241,6.9377,6.8811,6.8658,6.8567,6.7725,6.7463,6.7405,6.7231,6.7522,6.7609,6.6273,6.6273,6.6389,6.5489,6.5257,6.5315,6.5489,6.5548,6.5489,6.5315,6.4619,6.3748,6.2819,6.1425,6.0032,5.8784,5.71,5.5155,5.2891,5.2136,5.0859,4.8362,4.8014,4.755,4.6534,4.6272,4.6359,4.6749,4.5982,4.5953,4.7056,4.7898,4.9436,5.1817,5.5242,5.8145,6.0467,6.3748,6.5664,6.6215,6.6651,6.7086,6.7463,6.7754,6.7783,6.7551,6.7086,6.6738,6.6593,6.7696,6.7986,6.7899,6.9641,7.0715,7.1411,7.2515,7.3705,7.4866,7.115,7.1291,7.1137,7.2494,7.4071,7.5201,7.5251,7.5728,7.608,7.608,7.608,7.6281,7.6833,7.6883,7.6682,7.613,7.9155,8.0988,8.0988,8.3616,8.4823,8.4097,7.9462,7.6258,7.5062,7.2016,6.8621,6.4637,6.5746,6.3616,5.8438,5.8981,5.8118,5.616,5.9075,5.9739,5.8832,6.1599,6.4924,6.8594,7.0378,7.1035,7.0969,6.9872,6.9493,6.9411,6.8737,6.924,7.0255,7.1251,7.1208,7.0453,6.9205,6.8799,6.8683,6.8044,6.787,6.7609,6.6273,6.5925,6.5954,6.5925,6.5925,6.607,6.6709,6.6854,6.668,6.6041,6.4845,6.3975,6.3946,6.3486,6.2238,5.9713,5.9277,5.7681,5.3262,5.3675,5.3036,4.9175,4.9843,4.9921,4.7956,4.7201,4.6778,4.6778,4.6778,4.7085,4.7724,4.902,5.0589,5.2565,5.5068,5.7942,6.1164,6.3109,6.4996,6.6883,6.6883,6.7551,6.877,6.816,6.7522,6.6883,6.6883,6.726,6.7899,6.8567,6.9176,6.9873,7.115,7.205,7.266,7.3356,7.4401,7.5504,7.1393,7.1417,7.1332,7.2533,7.382,7.4799,7.5176,7.5703,7.6055,7.6055,7.6055,7.613,7.6306,7.6306,7.6256,7.608,7.7946,7.8909,7.8486,8.0199,8.0565,7.9008,7.7538,7.6087,7.4977,7.3575,7.2449,7.1525,7.062,6.8386,6.4821,6.2539,6.1051,6.0279,5.9986,6.025,6.1094,6.3129,6.5719,6.8751,7.0464,7.179,7.2642,7.1642,7.0534,6.9493,6.9303,6.9152,6.9267,7.0329,7.0994,7.115,6.9873,6.9466,6.935,6.8712,6.8509,6.8334,6.7492,6.726,6.7144,6.6709,6.6593,6.6622,6.6825,6.6535,6.6186,6.5918,6.5257,6.4677,6.4677,6.4154,6.3167,6.1483,5.9742,5.7507,5.4342,5.3123,5.1585,4.8982,4.9088,4.8943,4.7869,4.7608,4.7666,4.8054,4.8083,4.8014,4.7782,4.9001,5.1004,5.382,5.6374,5.9016,6.1774,6.459,6.6273,6.6883,6.7783,6.8189,6.8131,6.7057,6.668,6.6854,6.6418,6.6854,6.7957,6.9031,6.935,6.9379,7.1992,7.2311,7.1615,7.4024,7.4866,7.4895,7.1547,7.1525,7.1309,7.1987,7.3393,7.4523,7.4875,7.5578,7.6055,7.6055,7.6055,7.6055,7.6055,7.6055,7.6055,7.6055,7.719,7.7682,7.7222,7.8368,7.8475,7.7362,7.7091,7.6629,7.5955,7.6034,7.5957,7.576,7.3623,7.1452,6.9292,6.6691,6.4993,6.3975,6.3244,6.3519,6.4635,6.5844,6.8117,7.0927,7.2236,7.3375,7.4153,7.3208,7.2077,7.1116,7.0869,7.0566,7.033,7.121,7.1898,7.2166,7.0889,7.0308,6.996,6.9089,6.8828,6.8683,6.8044,6.787,6.7783,6.7347,6.726,6.7318,6.7551,6.6941,6.6302,6.6302,6.5606,6.4996,6.4996,6.4677,6.398,6.2674,6.0351,5.7768,5.5213,5.2978,5.0975,4.9291,4.9088,4.8914,4.8537,4.8478,4.8566,4.8663,4.9407,4.9436,4.8537,5.0191,5.2514,5.5474,5.8261,6.0845,6.3167,6.5896,6.726,6.726,6.8073,6.8131,6.7492,6.6651,6.6389,6.6535,6.6883,6.7492,6.8363,6.9873,7.025,7.0105,7.2369,7.2776,7.2369,7.414,7.4837,7.4953,7.1641,7.1627,7.1158,7.1184,7.2941,7.4372,7.4473,7.5301,7.5954,7.5979,7.6004,7.6004,7.6004,7.603,7.6055,7.6055,7.6715,7.706,7.7008,7.7684,7.7976,7.793,7.7593,7.7329,7.7247,7.8621,7.8817,7.7745,7.5218,7.3255,7.2024,7.1159,6.943,6.7039,6.799,6.8449,6.8764,6.9225,7.1408,7.4458,7.5169,7.5504,7.5414,7.4448,7.4028,7.3788,7.3303,7.3078,7.3006,7.3468,7.3647,7.3385,7.2137,7.1324,7.0599,6.9292,6.8857,6.8712,6.8102,6.7957,6.7957,6.8015,6.8015,6.816,6.8712,6.7841,6.6941,6.6941,6.5925,6.5054,6.5054,6.5025,6.4561,6.3225,6.0874,5.8348,5.5765,5.3181,5.112,4.9959,4.9843,4.9872,4.9814,4.9843,4.964,4.903,5.0569,5.1091,5.0075,5.2455,5.4923,5.7303,6.0496,6.308,6.5025,6.6941,6.787,6.787,6.7841,6.7492,6.6883,6.6825,6.6564,6.6244,6.7986,6.8857,6.9147,7.0831,7.1586,7.1731,7.2427,7.3385,7.4343,7.3966,7.4518,7.5504,7.112,7.1604,7.1836,7.2263,7.3142,7.4071,7.4925,7.49,7.495,7.5377,7.5427,7.5427,7.5427,7.5804,7.6055,7.6055,7.5793,7.5503,7.5072,7.4838,7.4149,7.2844,7.4037,7.4341,7.347,7.648,7.8544,7.9632,7.8031,7.6617,7.5406,7.2478,7.0334,6.8793,6.6925,6.7038,6.8775,6.9291,7.0964,7.3387,7.4897,7.5504,7.5488,7.5826,7.5087,7.4,7.5249,7.4469,7.3063,7.3929,7.3995,7.3472,7.266,7.2282,7.1818,7.0076,6.9205,6.8799,6.8654,6.8596,6.8712,6.9205,6.9321,6.9234,6.8886,6.8218,6.7638,6.7638,6.6622,6.5722,6.5722,6.5315,6.4415,6.2616,6.0206,5.7797,5.5707,5.2804,5.0975,5.1149,5.1585,5.1701,5.1207,5.1585,5.1868,5.1672,5.1178,5.1614,5.3297,5.5794,5.7448,5.8058,6.1193,6.3777,6.5693,6.7144,6.787,6.787,6.7347,6.7028,6.6854,6.6389,6.6883,6.8131,6.8102,6.9205,7.0947,7.0424,7.0802,7.1789,7.2921,7.324,7.3269,7.5098,7.5679,7.5504,7.0958,7.1535,7.2087,7.264,7.3217,7.3971,7.5075,7.4774,7.4699,7.5502,7.5176,7.505,7.5552,7.5653,7.5778,7.603,7.5327,7.4749,7.4423,7.3418,7.2414,7.151,7.2966,7.3908,7.424,7.7036,7.9072,8.0294,7.8207,7.6763,7.5755,7.2963,7.074,6.9077,6.7815,6.8247,6.9958,7.0206,7.1944,7.4649,7.5537,7.594,7.5998,7.6317,7.5877,7.524,7.6132,7.5675,7.4564,7.486,7.475,7.4372,7.3705,7.3095,7.2398,7.1382,7.0831,7.057,7.057,7.0337,7.0134,7.0192,7.0192,7.0047,6.9408,6.877,6.8131,6.7551,6.6622,6.5838,6.5548,6.4735,6.3486,6.1542,5.8842,5.6316,5.4371,5.2136,5.1004,5.1933,5.2891,5.3559,5.3791,5.4371,5.4371,5.353,5.3617,5.3936,5.4487,5.8029,5.9916,5.9626,6.2993,6.546,6.6825,6.7522,6.7725,6.7434,6.7376,6.7347,6.7347,6.758,6.8102,6.8828,6.906,6.9641,7.0366,7.025,7.0628,7.1353,7.266,7.3298,7.3618,7.475,7.5301,7.5475,7.1309,7.1711,7.2213,7.2765,7.3268,7.3971,7.5075,7.4774,7.4774,7.5804,7.5126,7.49,7.5829,7.5603,7.5552,7.603,7.505,7.4423,7.4423,7.2991,7.2037,7.1786,7.316,7.465,7.6299,7.8541,7.9747,7.987,7.7287,7.5347,7.423,7.2505,7.0515,6.8455,6.8845,6.9885,7.1284,7.1284,7.3298,7.6538,7.6538,7.6538,7.6538,7.6538,7.6538,7.6538,7.6538,7.6538,7.6375,7.5824,7.565,7.5563,7.4982,7.3995,7.3066,7.3066,7.3066,7.2979,7.2573,7.2224,7.1789,7.1034,7.086,7.0686,6.9931,6.9292,6.8509,6.7405,6.6593,6.5896,6.5373,6.4067,6.2441,6.0526,5.7507,5.4778,5.2978,5.1614,5.1323,5.2688,5.4168,5.5503,5.6578,5.7332,5.7071,5.5503,5.6665,5.6926,5.5707,5.9858,6.2151,6.1919,6.5228,6.7289,6.787,6.787,6.758,6.7028,6.7609,6.7928,6.8073,6.9234,6.9466,6.9031,7.0105,7.0076,6.9321,7.0221,7.0744,7.1121,7.2311,7.3472,7.4459,7.4169,7.4721,7.5563,7.2389,7.2539,7.2791,7.3368,7.3544,7.3971,7.5075,7.4774,7.4649,7.5276,7.5226,7.5176,7.5352,7.5703,7.5954,7.6055,7.505,7.4423,7.4423,7.3745,7.269,7.1284,7.2863,7.428,7.5164,7.8463,7.9484,7.8017,7.7013,7.4938,7.1846,7.0615,6.9046,6.7248,6.6818,6.8377,7.1284,7.1284,7.3298,7.6538,7.6538,7.6538,7.6538,7.6538,7.6538,7.6538,7.6538,7.6538,7.6433,7.6346,7.6317,7.6288,7.6201,7.565,7.5069,7.5069,7.5069,7.4576,7.2398,7.2544,7.3037,7.1818,7.1528,7.1208,7.0047,6.9292,6.877,6.8567,6.758,6.6709,6.6593,6.4677,6.2441,6.0526,5.7507,5.4923,5.3559,5.2281,5.2165,5.3994,5.6287,5.7797,5.8,5.9074,5.9626,5.9335,5.8581,5.8958,6.0816,6.2209,6.3632,6.5141,6.6825,6.7783,6.787,6.787,6.7841,6.7725,6.7841,6.816,6.8712,6.9437,6.9728,6.9641,6.9844,7.0424,7.115,7.0279,7.086,7.2398,7.3153,7.3908,7.4634,7.565,7.6143,7.6288,7.274,7.2991,7.3268,7.3544,7.3594,7.3971,7.5075,7.4774,7.4724,7.5552,7.49,7.4699,7.5578,7.5377,7.5301,7.5578,7.4875,7.4297,7.3996,7.3167,7.2339,7.156,7.1734,7.2852,7.4893,7.75,7.8423,7.7582,7.6011,7.3697,7.0834,6.9617,6.8213,6.6538,6.6865,6.8643,7.1284,7.1284,7.3298,7.6538,7.6538,7.6538,7.6538,7.6538,7.6538,7.6538,7.6538,7.6538,7.6596,7.6869,7.6956,7.7043,7.7391,7.7043,7.6462,7.6114,7.5766,7.5156,7.3618,7.3647,7.3792,7.2515,7.2166,7.1934,7.1005,7.0308,6.9641,6.8973,6.8073,6.7202,6.6506,6.4561,6.2674,6.1425,5.7681,5.4836,5.4575,5.3762,5.3878,5.5794,5.8581,6.0758,6.1803,6.2441,6.2645,6.2296,6.1716,6.1745,6.2587,6.3893,6.517,6.6418,6.7696,6.8392,6.8392,6.8044,6.787,6.7899,6.8567,6.906,6.9379,7.0715,7.0918,7.0308,7.0657,7.0744,7.0628,7.0395,7.1005,7.2166,7.2834,7.3472,7.414,7.5069,7.565,7.594,7.2816,7.3192,7.3594,7.3594,7.382,7.4272,7.5101,7.4975,7.5101,7.5954,7.495,7.4649,7.5929,7.5301,7.4925,7.5226,7.4749,7.4247,7.382,7.2715,7.2037,7.1912,7.1418,7.2229,7.4616,7.6816,7.7591,7.6733,7.5153,7.2983,7.0196,6.9156,6.7869,6.6538,6.7417,6.9127,7.1501,7.1501,7.3437,7.6538,7.6538,7.6538,7.6538,7.6538,7.6538,7.6538,7.6538,7.6538,7.6654,7.7362,7.7624,7.774,7.8407,7.8175,7.7507,7.6869,7.6317,7.5795,7.5127,7.5069,7.4837,7.3414,7.295,7.2631,7.1847,7.1179,7.0453,6.9466,6.8654,6.7783,6.6796,6.4793,6.2993,6.2035,5.8232,5.5445,5.562,5.5503,5.6084,5.7971,6.0758,6.3254,6.5025,6.5344,6.517,6.4468,6.441,6.4328,6.398,6.5373,6.6593,6.7522,6.8509,6.8973,6.8828,6.8334,6.8334,6.877,6.9612,7.0163,7.0482,7.2108,7.2079,7.0744,7.1382,7.1121,7.025,7.0744,7.1324,7.1963,7.2602,7.3153,7.3705,7.4459,7.5069,7.5534,7.274,7.3192,7.3594,7.3594,7.4448,7.5151,7.5226,7.5628,7.5954,7.6055,7.5954,7.5929,7.6128,7.5979,7.5753,7.5276,7.4749,7.4397,7.4347,7.3293,7.2439,7.1937,7.2912,7.3608,7.3913,7.7408,7.7579,7.4091,7.5148,7.352,6.948,6.8848,6.8296,6.7693,6.7769,6.936,7.2016,7.2016,7.3749,7.6538,7.6538,7.6538,7.6538,7.6538,7.6538,7.6538,7.6538,7.6538,7.6666,7.7914,7.832,7.8436,7.9046,7.8814,7.8204,7.7537,7.7304,7.713,7.6491,7.6753,7.6753,7.4895,7.3966,7.3211,7.1963,7.1179,7.0686,7.0599,6.9612,6.8712,6.8625,6.607,6.337,6.1571,5.9451,5.7623,5.649,5.7303,5.8726,6.0671,6.2674,6.4415,6.5751,6.6389,6.6476,6.5838,6.578,6.6041,6.6564,6.6738,6.7667,6.9495,6.9641,6.9408,6.8828,6.877,6.9641,7.1382,7.0889,7.1266,7.2427,7.3182,7.2515,7.0744,7.1382,7.1615,7.1528,7.1586,7.1963,7.2602,7.3269,7.356,7.3763,7.4982,7.5475,7.5592,7.2791,7.3192,7.3594,7.3594,7.4222,7.4849,7.5201,7.5703,7.6055,7.6055,7.5753,7.5552,7.5552,7.5552,7.5176,7.4297,7.4347,7.4272,7.392,7.3494,7.2866,7.1937,7.2073,7.2656,7.3776,7.5171,7.5259,7.3776,7.4341,7.2815,6.9361,6.9577,6.8974,6.7882,6.8969,7.0441,7.2152,7.2926,7.4713,7.7014,7.6608,7.6695,7.7014,7.6608,7.6538,7.6538,7.6538,7.6538,7.6666,7.7972,7.8407,7.8582,7.9598,7.9772,7.9365,7.832,7.803,7.7798,7.6753,7.6927,7.7043,7.5534,7.4982,7.4459,7.3182,7.2369,7.1789,7.1382,7.0599,6.9873,6.9495,6.7783,6.6186,6.546,6.2703,6.0758,6.1077,6.1222,6.1687,6.2819,6.4648,6.5983,6.6476,6.7115,6.7405,6.7173,6.7492,6.8015,6.8625,6.906,6.9612,7.0337,7.0366,7.025,7.0018,6.9612,7.0163,7.1673,7.1818,7.2369,7.3269,7.3879,7.356,7.2544,7.3153,7.3211,7.2892,7.2892,7.3008,7.3211,7.3066,7.324,7.3705,7.4576,7.5156,7.5592,7.2816,7.3192,7.3594,7.3594,7.4046,7.4598,7.5151,7.5402,7.5653,7.6004,7.5578,7.5251,7.5251,7.5251,7.4875,7.392,7.4046,7.4146,7.4121,7.3795,7.3242,7.2464,7.1912,7.2209,7.3443,7.4053,7.4053,7.3443,7.4053,7.2953,7.0229,7.043,6.9828,6.8661,6.9644,7.0736,7.1896,7.3289,7.5042,7.6857,7.6989,7.7333,7.7682,7.7246,7.6956,7.6753,7.6753,7.6637,7.6637,7.7711,7.8088,7.8291,7.9365,7.983,7.9801,7.893,7.8843,7.8814,7.7914,7.7972,7.7856,7.5969,7.5504,7.5243,7.4169,7.356,7.3095,7.266,7.205,7.144,7.0773,6.9641,6.8509,6.7696,6.5519,6.4009,6.4299,6.4299,6.4532,6.517,6.6389,6.7347,6.7754,6.8218,6.8479,6.8479,6.8886,6.9321,6.9757,7.057,7.1005,7.1005,7.1208,7.1324,7.1324,7.0686,7.1121,7.2573,7.3008,7.356,7.4227,7.443,7.4285,7.3937,7.414,7.3995,7.3618,7.3618,7.3501,7.3269,7.3037,7.3211,7.3705,7.4518,7.5127,7.5592,7.274,7.3192,7.3594,7.3594,7.4046,7.4598,7.5151,7.4774,7.4799,7.5904,7.5578,7.5226,7.5226,7.5226,7.5,7.4448,7.392,7.4071,7.5176,7.4222,7.3594,7.3619,7.3042,7.2715,7.274,7.4629,7.4629,7.274,7.4629,7.4346,7.1887,7.1359,7.0807,7.0229,6.9677,7.0057,7.1304,7.3157,7.4554,7.5835,7.7653,7.8407,7.8407,7.8407,7.8001,7.742,7.742,7.7014,7.6579,7.7188,7.7391,7.7537,7.8204,7.8814,7.9307,7.9307,7.9772,8.0294,8.0294,8.0294,7.9511,7.6346,7.5534,7.5359,7.4721,7.4547,7.4518,7.4518,7.4024,7.3414,7.2747,7.1586,6.9902,6.7347,6.7492,6.7231,6.5286,6.6099,6.7173,6.7812,6.7899,6.8392,6.9641,6.9786,6.9786,6.9786,6.9786,6.9786,6.9786,7.1005,7.1673,7.1673,7.2282,7.2602,7.2631,7.1992,7.2631,7.4518,7.4518,7.4866,7.5475,7.4808,7.4518,7.4518,7.3908,7.3618,7.3618,7.3618,7.3211,7.2689,7.3356,7.3618,7.3763,7.504,7.5504,7.5592,7.2665,7.2866,7.3117,7.3519,7.372,7.4021,7.4573,7.4523,7.4523,7.4875,7.4774,7.4523,7.4121,7.4423,7.4272,7.3318,7.3795,7.4473,7.5201,7.4573,7.4347,7.4724,7.3092,7.2339,7.2715,7.4629,7.4629,7.274,7.4629,7.4346,7.1912,7.1736,7.1158,7.0321,7.0975,7.1267,7.1364,7.4033,7.4908,7.4691,7.7328,7.7912,7.7225,7.8059,7.8291,7.8117,7.8117,7.7682,7.7217,7.7885,7.7798,7.7595,7.8698,7.9162,7.9307,7.9307,7.9452,7.9511,7.9075,7.8959,7.8843,7.8291,7.8175,7.7769,7.623,7.5882,7.5621,7.4692,7.4372,7.4169,7.3995,7.3298,7.2195,7.0512,7.0424,7.0018,6.8567,6.906,6.9641,6.9844,6.9873,6.9844,6.9786,7.0163,7.025,6.9815,7.0599,7.1092,7.1092,7.1876,7.2544,7.3008,7.234,7.2602,7.3937,7.3327,7.3531,7.4547,7.5011,7.533,7.5504,7.5301,7.4953,7.4518,7.4314,7.4256,7.4256,7.3792,7.3501,7.3327,7.3531,7.3879,7.4343,7.5185,7.5795,7.6201,7.2615,7.274,7.2916,7.3494,7.3393,7.3443,7.3996,7.3895,7.392,7.4347,7.4222,7.3971,7.3619,7.4096,7.4146,7.3443,7.4423,7.5126,7.5226,7.4925,7.49,7.5226,7.3745,7.2941,7.3067,7.4243,7.4243,7.3067,7.4243,7.409,7.2565,7.2339,7.1636,7.0648,7.1128,7.1428,7.1791,7.4276,7.4939,7.4547,7.7029,7.7194,7.612,7.7537,7.7914,7.7763,7.8494,7.8349,7.7856,7.8262,7.8146,7.7943,7.8698,7.9104,7.9307,7.9307,7.9481,7.9627,7.9249,7.9162,7.9249,7.9598,7.9307,7.8582,7.7159,7.684,7.655,7.5504,7.5272,7.5214,7.4953,7.4605,7.3937,7.266,7.2631,7.234,7.1092,7.1469,7.1673,7.115,7.1092,7.0947,7.057,7.086,7.1034,7.0918,7.1847,7.2427,7.2427,7.3037,7.356,7.3966,7.3472,7.3734,7.4895,7.4808,7.4663,7.4547,7.5185,7.5359,7.5098,7.4866,7.4663,7.4488,7.4256,7.4169,7.4169,7.3763,7.3618,7.3647,7.3879,7.4343,7.4982,7.565,7.6114,7.6538,7.2539,7.269,7.2891,7.3418,7.3092,7.2916,7.3443,7.3067,7.3117,7.4197,7.387,7.3544,7.3594,7.4046,7.4347,7.4347,7.5352,7.5778,7.5276,7.5251,7.5251,7.5301,7.4774,7.4247,7.3745,7.3861,7.3836,7.3669,7.3785,7.381,7.3644,7.3016,7.2188,7.1209,7.0606,7.0974,7.2157,7.4042,7.4723,7.4693,7.676,7.6429,7.4947,7.6677,7.6972,7.6711,7.8473,7.8755,7.8234,7.833,7.8407,7.8407,7.8465,7.8872,7.9307,7.9365,7.983,8.0294,8.0294,8.0294,8.0294,8.0294,7.9423,7.8407,7.7711,7.7566,7.7391,7.6753,7.6637,7.6462,7.5882,7.5766,7.5359,7.4082,7.4314,7.4227,7.295,7.3327,7.324,7.2079,7.1934,7.1905,7.1847,7.1789,7.2021,7.266,7.3269,7.3647,7.3705,7.4169,7.4488,7.4605,7.5069,7.5388,7.5504,7.6027,7.5708,7.4605,7.5214,7.5127,7.4401,7.385,7.3879,7.4314,7.3763,7.3531,7.3531,7.3531,7.356,7.3676,7.4285,7.4924,7.5592,7.623,7.6538,7.6567,7.1987,7.2439,7.2765,7.2891,7.2816,7.2765,7.2891,7.2816,7.2991,7.3669,7.3268,7.3092,7.3544,7.3694,7.377,7.377,7.4774,7.5377,7.5251,7.5251,7.5427,7.5854,7.5352,7.5,7.4875,7.5882,7.5652,7.4247,7.531,7.5242,7.4222,7.3192,7.259,7.2339,7.1334,7.0856,7.0909,7.3714,7.3535,7.1666,7.5899,7.5925,7.3531,7.4971,7.5373,7.5515,7.7303,7.7557,7.7094,7.8059,7.8407,7.8494,7.8959,7.9191,7.9394,7.9917,8.0178,8.0294,8.0294,8.0294,8.0294,8.0294,8.0091,7.9714,7.9046,7.8901,7.8727,7.8117,7.7972,7.7943,7.7798,7.7769,7.7362,7.6056,7.594,7.5592,7.4285,7.4227,7.4198,7.3937,7.3908,7.3705,7.324,7.2718,7.2689,7.3356,7.3531,7.3821,7.4285,7.3995,7.4256,7.5272,7.4459,7.4518,7.5504,7.5127,7.504,7.5301,7.5446,7.4924,7.3792,7.3676,7.3385,7.3008,7.2892,7.2834,7.2834,7.2834,7.3153,7.3676,7.4285,7.4924,7.5592,7.623,7.6538,7.6608,7.1836,7.2565,7.3142,7.3142,7.2916,7.274,7.274,7.2966,7.3242,7.3544,7.3318,7.3268,7.3569,7.382,7.4197,7.4724,7.5301,7.5628,7.5628,7.5879,7.603,7.6055,7.603,7.5904,7.5628,7.6347,7.6067,7.4799,7.5507,7.5507,7.4799,7.3946,7.3092,7.2288,7.146,7.1155,7.1397,7.3806,7.3429,7.146,7.4916,7.4801,7.2647,7.3376,7.4696,7.6318,7.7254,7.7953,7.8471,7.9082,7.9307,7.9365,7.9685,7.9772,7.9859,8.0207,8.0294,8.0294,8.0294,8.0294,8.0294,8.0294,8.0294,8.012,7.9452,7.9307,7.9133,7.8524,7.8407,7.8407,7.8407,7.8407,7.8175,7.7507,7.713,7.6666,7.5969,7.5621,7.533,7.504,7.4982,7.475,7.4111,7.3472,7.3356,7.4024,7.4343,7.4663,7.4982,7.4692,7.4808,7.5475,7.4866,7.4692,7.504,7.5011,7.4866,7.4605,7.4605,7.4082,7.3124,7.3124,7.295,7.2602,7.2602,7.2602,7.2602,7.2602,7.3008,7.3676,7.4285,7.4924,7.5592,7.623,7.6538,7.6683,7.1811,7.274,7.3569,7.3468,7.3042,7.274,7.274,7.3142,7.3468,7.3569,7.3519,7.3519,7.372,7.4222,7.4925,7.5829,7.608,7.6155,7.6055,7.6657,7.6808,7.6356,7.6783,7.6758,7.6205,7.6205,7.5929,7.5377,7.5276,7.5251,7.5226,7.4573,7.3468,7.2012,7.1359,7.1548,7.2472,7.4155,7.3978,7.2603,7.4374,7.4053,7.2585,7.2376,7.4433,7.7312,7.7528,7.8774,8.0294,8.0294,8.0294,8.0294,8.0294,8.0294,8.0294,8.0294,8.0294,8.0294,8.0294,8.0294,8.0294,8.0294,8.0294,8.0149,7.9598,7.9481,7.9336,7.8843,7.8727,7.8727,7.8727,7.8727,7.8698,7.8582,7.8088,7.7653,7.7449,7.6956,7.6346,7.5592,7.5417,7.5156,7.4721,7.4111,7.4024,7.4663,7.5214,7.5563,7.565,7.5563,7.5504,7.5504,7.5388,7.5011,7.4372,7.4924,7.4605,7.3443,7.3443,7.3153,7.2602,7.2602,7.2602,7.2602,7.2602,7.2689,7.2776,7.2776,7.324,7.3995,7.4488,7.5098,7.5737,7.6259,7.6521,7.6724,7.1384,7.2489,7.3443,7.2941,7.2791,7.274,7.274,7.2791,7.3016,7.3519,7.3167,7.3217,7.4197,7.4799,7.5176,7.5327,7.6205,7.6557,7.608,7.7009,7.7561,7.7486,7.7561,7.7335,7.6783,7.6758,7.6482,7.5954,7.5477,7.5251,7.5226,7.4197,7.3318,7.2565,7.1535,7.1778,7.2961,7.4316,7.4347,7.3667,7.5068,7.5149,7.431,7.3291,7.4187,7.6166,7.7257,7.8774,8.0294,8.0294,8.0294,8.0294,8.0294,8.0294,8.0294,8.0294,8.0294,8.0294,8.0294,8.0294,8.0294,8.0294,8.0294,8.0265,8.0178,8.0149,8.0149,8.0062,8.0033,8.0033,8.0033,8.0033,7.9859,7.9278,7.9104,7.8669,7.7566,7.7333,7.684,7.565,7.5011,7.4837,7.533,7.4779,7.4663,7.533,7.5446,7.5737,7.6288,7.5824,7.5504,7.5504,7.4953,7.4343,7.3734,7.3821,7.3501,7.2747,7.2747,7.2718,7.2602,7.2602,7.2602,7.2602,7.2602,7.295,7.3472,7.3472,7.4169,7.5272,7.533,7.5766,7.6346,7.6508,7.6811,7.7362,7.1234,7.2439,7.3519,7.3268,7.3217,7.3217,7.3217,7.3468,7.377,7.4021,7.3569,7.3644,7.4749,7.5101,7.5377,7.5653,7.6431,7.6783,7.6532,7.726,7.7561,7.726,7.7235,7.7134,7.6883,7.6582,7.6306,7.6055,7.5804,7.5527,7.5226,7.4423,7.3569,7.269,7.1887,7.167,7.2089,7.4768,7.4429,7.2513,7.4794,7.4962,7.3683,7.2846,7.4332,7.701,7.8536,7.9603,8.0294,8.0294,8.0294,8.0294,8.0294,8.0294,8.0294,8.0294,8.0294,8.0294,8.0294,8.0294,8.0294,8.0294,8.0294,8.0294,8.0294,8.0294,8.0294,8.0294,8.0294,8.0294,8.0294,8.0294,8.0207,7.9917,7.954,7.9104,7.8553,7.7856,7.7072,7.6143,7.5766,7.5708,7.5998,7.5766,7.5708,7.6027,7.6056,7.6172,7.6433,7.5853,7.5359,7.4982,7.4663,7.4227,7.3618,7.3618,7.3472,7.3153,7.2805,7.2805,7.3153,7.2776,7.3008,7.3618,7.2921,7.3182,7.4082,7.3763,7.4372,7.5534,7.5911,7.6433,7.6985,7.6985,7.7159,7.7537]}]]